<?xml version="1.0" encoding="UTF-8" standalone="no" ?>
<gpx xmlns="http://www.topografix.com/GPX/1/1" xmlns:xsi="http://www.w3.org/2001/XMLSchema-instance" xsi:schemaLocation="http://www.topografix.com/GPX/1/1 http://www.topografix.com/GPX/1/1/gpx.xsd" version="1.1" creator="VisuGPX - https://www.visugpx.com">
  <metadata>
    <name>19-08-03 Bivouac au Lac de l'Agneau et ascension du Grand Galbert J1 sur 2</name>
    <desc><![CDATA[Massif du Taillefer

Itinéraire :
Parking au Lac du Poursollet alt. 1649m
Dessus des Sagnes
Lac Fourchu alt. 2050m
Lac Canard
Grand Galbert alt. 2561m
Refuge du Taillefer alt. 2056m
La Jasse alt. 2010m
Lac de la Vache
Lac Noir et Lac de l'Agneau alt. 2040m (lieu de bivouac)


J2 : [url]https://www.visugpx.com/geBr15K492[/url]]]></desc>
  </metadata>
  <trk>
    <name><![CDATA[19-08-03 Taillefer J1]]></name>
    <desc><![CDATA[]]></desc>
    <trkseg>
      <trkpt lat="45.05304" lon="5.89848">
        <ele>1709</ele>
        <time>2019-08-03T11:00:14.000Z</time>
      </trkpt>
      <trkpt lat="45.05306" lon="5.89855">
        <ele>1709</ele>
        <time>2019-08-03T11:00:18.000Z</time>
      </trkpt>
      <trkpt lat="45.05308" lon="5.89868">
        <ele>1708</ele>
        <time>2019-08-03T11:00:25.000Z</time>
      </trkpt>
      <trkpt lat="45.05311" lon="5.89878">
        <ele>1711</ele>
        <time>2019-08-03T11:00:31.000Z</time>
      </trkpt>
      <trkpt lat="45.05309" lon="5.89888">
        <ele>1711</ele>
        <time>2019-08-03T11:00:37.000Z</time>
      </trkpt>
      <trkpt lat="45.05308" lon="5.89897">
        <ele>1711</ele>
        <time>2019-08-03T11:00:41.000Z</time>
      </trkpt>
      <trkpt lat="45.05308" lon="5.89906">
        <ele>1712</ele>
        <time>2019-08-03T11:00:48.000Z</time>
      </trkpt>
      <trkpt lat="45.05309" lon="5.89912">
        <ele>1712</ele>
        <time>2019-08-03T11:00:52.000Z</time>
      </trkpt>
      <trkpt lat="45.05312" lon="5.89921">
        <ele>1712</ele>
        <time>2019-08-03T11:01:20.000Z</time>
      </trkpt>
      <trkpt lat="45.05315" lon="5.89929">
        <ele>1713</ele>
        <time>2019-08-03T11:01:27.000Z</time>
      </trkpt>
      <trkpt lat="45.05311" lon="5.89919">
        <ele>1711</ele>
        <time>2019-08-03T11:01:34.000Z</time>
      </trkpt>
      <trkpt lat="45.05305" lon="5.89921">
        <ele>1711</ele>
        <time>2019-08-03T11:01:41.000Z</time>
      </trkpt>
      <trkpt lat="45.05302" lon="5.89929">
        <ele>1711</ele>
        <time>2019-08-03T11:01:47.000Z</time>
      </trkpt>
      <trkpt lat="45.05299" lon="5.8994">
        <ele>1711</ele>
        <time>2019-08-03T11:01:54.000Z</time>
      </trkpt>
      <trkpt lat="45.05295" lon="5.89947">
        <ele>1711</ele>
        <time>2019-08-03T11:01:58.000Z</time>
      </trkpt>
      <trkpt lat="45.05293" lon="5.89955">
        <ele>1711</ele>
        <time>2019-08-03T11:02:02.000Z</time>
      </trkpt>
      <trkpt lat="45.05289" lon="5.89963">
        <ele>1711</ele>
        <time>2019-08-03T11:02:06.000Z</time>
      </trkpt>
      <trkpt lat="45.05286" lon="5.89969">
        <ele>1711</ele>
        <time>2019-08-03T11:02:10.000Z</time>
      </trkpt>
      <trkpt lat="45.05281" lon="5.89974">
        <ele>1711</ele>
        <time>2019-08-03T11:02:13.000Z</time>
      </trkpt>
      <trkpt lat="45.05278" lon="5.89978">
        <ele>1711</ele>
        <time>2019-08-03T11:02:16.000Z</time>
      </trkpt>
      <trkpt lat="45.05274" lon="5.89983">
        <ele>1711</ele>
        <time>2019-08-03T11:02:19.000Z</time>
      </trkpt>
      <trkpt lat="45.0527" lon="5.89989">
        <ele>1711</ele>
        <time>2019-08-03T11:02:23.000Z</time>
      </trkpt>
      <trkpt lat="45.05266" lon="5.89994">
        <ele>1711</ele>
        <time>2019-08-03T11:02:27.000Z</time>
      </trkpt>
      <trkpt lat="45.05262" lon="5.9">
        <ele>1710</ele>
        <time>2019-08-03T11:02:33.000Z</time>
      </trkpt>
      <trkpt lat="45.05258" lon="5.90006">
        <ele>1709</ele>
        <time>2019-08-03T11:02:37.000Z</time>
      </trkpt>
      <trkpt lat="45.0525" lon="5.90012">
        <ele>1709</ele>
        <time>2019-08-03T11:02:45.000Z</time>
      </trkpt>
      <trkpt lat="45.05248" lon="5.90018">
        <ele>1708</ele>
        <time>2019-08-03T11:02:48.000Z</time>
      </trkpt>
      <trkpt lat="45.05248" lon="5.90024">
        <ele>1708</ele>
        <time>2019-08-03T11:02:55.000Z</time>
      </trkpt>
      <trkpt lat="45.05242" lon="5.90026">
        <ele>1706</ele>
        <time>2019-08-03T11:03:06.000Z</time>
      </trkpt>
      <trkpt lat="45.05236" lon="5.90028">
        <ele>1705</ele>
        <time>2019-08-03T11:03:10.000Z</time>
      </trkpt>
      <trkpt lat="45.05231" lon="5.90028">
        <ele>1703</ele>
        <time>2019-08-03T11:03:13.000Z</time>
      </trkpt>
      <trkpt lat="45.05224" lon="5.90025">
        <ele>1699</ele>
        <time>2019-08-03T11:03:20.000Z</time>
      </trkpt>
      <trkpt lat="45.0523" lon="5.90032">
        <ele>1702</ele>
        <time>2019-08-03T11:13:52.000Z</time>
      </trkpt>
      <trkpt lat="45.05238" lon="5.90032">
        <ele>1702</ele>
        <time>2019-08-03T11:13:59.000Z</time>
      </trkpt>
      <trkpt lat="45.05243" lon="5.9003">
        <ele>1701</ele>
        <time>2019-08-03T11:14:03.000Z</time>
      </trkpt>
      <trkpt lat="45.05249" lon="5.90027">
        <ele>1699</ele>
        <time>2019-08-03T11:14:07.000Z</time>
      </trkpt>
      <trkpt lat="45.05254" lon="5.90023">
        <ele>1701</ele>
        <time>2019-08-03T11:14:11.000Z</time>
      </trkpt>
      <trkpt lat="45.05258" lon="5.90021">
        <ele>1702</ele>
        <time>2019-08-03T11:14:23.000Z</time>
      </trkpt>
      <trkpt lat="45.05257" lon="5.90012">
        <ele>1703</ele>
        <time>2019-08-03T11:15:54.000Z</time>
      </trkpt>
      <trkpt lat="45.05261" lon="5.90006">
        <ele>1704</ele>
        <time>2019-08-03T11:15:58.000Z</time>
      </trkpt>
      <trkpt lat="45.05266" lon="5.9">
        <ele>1703</ele>
        <time>2019-08-03T11:16:02.000Z</time>
      </trkpt>
      <trkpt lat="45.0527" lon="5.89995">
        <ele>1704</ele>
        <time>2019-08-03T11:16:06.000Z</time>
      </trkpt>
      <trkpt lat="45.05274" lon="5.89991">
        <ele>1704</ele>
        <time>2019-08-03T11:16:10.000Z</time>
      </trkpt>
      <trkpt lat="45.05279" lon="5.89983">
        <ele>1704</ele>
        <time>2019-08-03T11:16:17.000Z</time>
      </trkpt>
      <trkpt lat="45.05284" lon="5.89976">
        <ele>1703</ele>
        <time>2019-08-03T11:16:23.000Z</time>
      </trkpt>
      <trkpt lat="45.05287" lon="5.89971">
        <ele>1702</ele>
        <time>2019-08-03T11:16:27.000Z</time>
      </trkpt>
      <trkpt lat="45.0529" lon="5.89965">
        <ele>1702</ele>
        <time>2019-08-03T11:16:31.000Z</time>
      </trkpt>
      <trkpt lat="45.05293" lon="5.89957">
        <ele>1701</ele>
        <time>2019-08-03T11:16:37.000Z</time>
      </trkpt>
      <trkpt lat="45.05296" lon="5.89951">
        <ele>1701</ele>
        <time>2019-08-03T11:16:41.000Z</time>
      </trkpt>
      <trkpt lat="45.05299" lon="5.89944">
        <ele>1701</ele>
        <time>2019-08-03T11:16:45.000Z</time>
      </trkpt>
      <trkpt lat="45.05303" lon="5.89932">
        <ele>1701</ele>
        <time>2019-08-03T11:16:52.000Z</time>
      </trkpt>
      <trkpt lat="45.05305" lon="5.89927">
        <ele>1701</ele>
        <time>2019-08-03T11:16:55.000Z</time>
      </trkpt>
      <trkpt lat="45.05311" lon="5.89923">
        <ele>1701</ele>
        <time>2019-08-03T11:17:02.000Z</time>
      </trkpt>
      <trkpt lat="45.05314" lon="5.89935">
        <ele>1701</ele>
        <time>2019-08-03T11:17:10.000Z</time>
      </trkpt>
      <trkpt lat="45.05316" lon="5.89944">
        <ele>1701</ele>
        <time>2019-08-03T11:17:14.000Z</time>
      </trkpt>
      <trkpt lat="45.05317" lon="5.89955">
        <ele>1703</ele>
        <time>2019-08-03T11:17:18.000Z</time>
      </trkpt>
      <trkpt lat="45.05318" lon="5.89962">
        <ele>1704</ele>
        <time>2019-08-03T11:17:21.000Z</time>
      </trkpt>
      <trkpt lat="45.0532" lon="5.89969">
        <ele>1704</ele>
        <time>2019-08-03T11:17:25.000Z</time>
      </trkpt>
      <trkpt lat="45.05322" lon="5.89975">
        <ele>1706</ele>
        <time>2019-08-03T11:17:28.000Z</time>
      </trkpt>
      <trkpt lat="45.05324" lon="5.89988">
        <ele>1706</ele>
        <time>2019-08-03T11:17:35.000Z</time>
      </trkpt>
      <trkpt lat="45.05325" lon="5.89998">
        <ele>1706</ele>
        <time>2019-08-03T11:17:42.000Z</time>
      </trkpt>
      <trkpt lat="45.05324" lon="5.90008">
        <ele>1705</ele>
        <time>2019-08-03T11:17:48.000Z</time>
      </trkpt>
      <trkpt lat="45.05321" lon="5.90019">
        <ele>1704</ele>
        <time>2019-08-03T11:17:55.000Z</time>
      </trkpt>
      <trkpt lat="45.05315" lon="5.9003">
        <ele>1703</ele>
        <time>2019-08-03T11:18:02.000Z</time>
      </trkpt>
      <trkpt lat="45.05313" lon="5.90037">
        <ele>1703</ele>
        <time>2019-08-03T11:18:06.000Z</time>
      </trkpt>
      <trkpt lat="45.05311" lon="5.90043">
        <ele>1702</ele>
        <time>2019-08-03T11:18:09.000Z</time>
      </trkpt>
      <trkpt lat="45.05307" lon="5.90049">
        <ele>1701</ele>
        <time>2019-08-03T11:18:13.000Z</time>
      </trkpt>
      <trkpt lat="45.05301" lon="5.90059">
        <ele>1700</ele>
        <time>2019-08-03T11:18:20.000Z</time>
      </trkpt>
      <trkpt lat="45.05297" lon="5.90071">
        <ele>1697</ele>
        <time>2019-08-03T11:18:27.000Z</time>
      </trkpt>
      <trkpt lat="45.05298" lon="5.90079">
        <ele>1696</ele>
        <time>2019-08-03T11:18:31.000Z</time>
      </trkpt>
      <trkpt lat="45.053" lon="5.90085">
        <ele>1696</ele>
        <time>2019-08-03T11:18:34.000Z</time>
      </trkpt>
      <trkpt lat="45.05303" lon="5.90093">
        <ele>1695</ele>
        <time>2019-08-03T11:18:38.000Z</time>
      </trkpt>
      <trkpt lat="45.05306" lon="5.90101">
        <ele>1694</ele>
        <time>2019-08-03T11:18:42.000Z</time>
      </trkpt>
      <trkpt lat="45.05309" lon="5.90115">
        <ele>1694</ele>
        <time>2019-08-03T11:18:49.000Z</time>
      </trkpt>
      <trkpt lat="45.0531" lon="5.90124">
        <ele>1694</ele>
        <time>2019-08-03T11:18:53.000Z</time>
      </trkpt>
      <trkpt lat="45.05311" lon="5.90131">
        <ele>1695</ele>
        <time>2019-08-03T11:18:56.000Z</time>
      </trkpt>
      <trkpt lat="45.05311" lon="5.90137">
        <ele>1696</ele>
        <time>2019-08-03T11:18:59.000Z</time>
      </trkpt>
      <trkpt lat="45.05312" lon="5.90144">
        <ele>1696</ele>
        <time>2019-08-03T11:19:02.000Z</time>
      </trkpt>
      <trkpt lat="45.05314" lon="5.90157">
        <ele>1697</ele>
        <time>2019-08-03T11:19:09.000Z</time>
      </trkpt>
      <trkpt lat="45.05315" lon="5.90165">
        <ele>1699</ele>
        <time>2019-08-03T11:19:13.000Z</time>
      </trkpt>
      <trkpt lat="45.0531" lon="5.90178">
        <ele>1698</ele>
        <time>2019-08-03T11:19:20.000Z</time>
      </trkpt>
      <trkpt lat="45.05307" lon="5.90184">
        <ele>1695</ele>
        <time>2019-08-03T11:19:26.000Z</time>
      </trkpt>
      <trkpt lat="45.05307" lon="5.90198">
        <ele>1695</ele>
        <time>2019-08-03T11:19:33.000Z</time>
      </trkpt>
      <trkpt lat="45.05309" lon="5.90206">
        <ele>1695</ele>
        <time>2019-08-03T11:19:37.000Z</time>
      </trkpt>
      <trkpt lat="45.05311" lon="5.90212">
        <ele>1694</ele>
        <time>2019-08-03T11:19:40.000Z</time>
      </trkpt>
      <trkpt lat="45.05313" lon="5.9022">
        <ele>1693</ele>
        <time>2019-08-03T11:19:44.000Z</time>
      </trkpt>
      <trkpt lat="45.05314" lon="5.90226">
        <ele>1692</ele>
        <time>2019-08-03T11:19:48.000Z</time>
      </trkpt>
      <trkpt lat="45.05316" lon="5.90232">
        <ele>1692</ele>
        <time>2019-08-03T11:19:52.000Z</time>
      </trkpt>
      <trkpt lat="45.05318" lon="5.9024">
        <ele>1691</ele>
        <time>2019-08-03T11:19:56.000Z</time>
      </trkpt>
      <trkpt lat="45.0532" lon="5.90246">
        <ele>1690</ele>
        <time>2019-08-03T11:19:59.000Z</time>
      </trkpt>
      <trkpt lat="45.05321" lon="5.90253">
        <ele>1691</ele>
        <time>2019-08-03T11:20:03.000Z</time>
      </trkpt>
      <trkpt lat="45.05321" lon="5.9026">
        <ele>1694</ele>
        <time>2019-08-03T11:20:07.000Z</time>
      </trkpt>
      <trkpt lat="45.05322" lon="5.90268">
        <ele>1697</ele>
        <time>2019-08-03T11:20:11.000Z</time>
      </trkpt>
      <trkpt lat="45.05323" lon="5.90277">
        <ele>1699</ele>
        <time>2019-08-03T11:20:15.000Z</time>
      </trkpt>
      <trkpt lat="45.05325" lon="5.90285">
        <ele>1698</ele>
        <time>2019-08-03T11:20:19.000Z</time>
      </trkpt>
      <trkpt lat="45.05326" lon="5.90274">
        <ele>1696</ele>
        <time>2019-08-03T11:20:41.000Z</time>
      </trkpt>
      <trkpt lat="45.05322" lon="5.90278">
        <ele>1697</ele>
        <time>2019-08-03T11:20:48.000Z</time>
      </trkpt>
      <trkpt lat="45.0532" lon="5.90288">
        <ele>1697</ele>
        <time>2019-08-03T11:20:54.000Z</time>
      </trkpt>
      <trkpt lat="45.05318" lon="5.90298">
        <ele>1697</ele>
        <time>2019-08-03T11:21:01.000Z</time>
      </trkpt>
      <trkpt lat="45.05315" lon="5.90306">
        <ele>1697</ele>
        <time>2019-08-03T11:21:05.000Z</time>
      </trkpt>
      <trkpt lat="45.05312" lon="5.90313">
        <ele>1697</ele>
        <time>2019-08-03T11:21:09.000Z</time>
      </trkpt>
      <trkpt lat="45.05309" lon="5.90324">
        <ele>1698</ele>
        <time>2019-08-03T11:21:16.000Z</time>
      </trkpt>
      <trkpt lat="45.05313" lon="5.90337">
        <ele>1698</ele>
        <time>2019-08-03T11:21:23.000Z</time>
      </trkpt>
      <trkpt lat="45.05312" lon="5.90347">
        <ele>1700</ele>
        <time>2019-08-03T11:21:30.000Z</time>
      </trkpt>
      <trkpt lat="45.05311" lon="5.90355">
        <ele>1699</ele>
        <time>2019-08-03T11:21:34.000Z</time>
      </trkpt>
      <trkpt lat="45.0531" lon="5.90362">
        <ele>1699</ele>
        <time>2019-08-03T11:21:37.000Z</time>
      </trkpt>
      <trkpt lat="45.05309" lon="5.90369">
        <ele>1700</ele>
        <time>2019-08-03T11:21:40.000Z</time>
      </trkpt>
      <trkpt lat="45.05308" lon="5.90377">
        <ele>1701</ele>
        <time>2019-08-03T11:21:44.000Z</time>
      </trkpt>
      <trkpt lat="45.05307" lon="5.90391">
        <ele>1702</ele>
        <time>2019-08-03T11:21:51.000Z</time>
      </trkpt>
      <trkpt lat="45.05306" lon="5.90403">
        <ele>1705</ele>
        <time>2019-08-03T11:21:58.000Z</time>
      </trkpt>
      <trkpt lat="45.05301" lon="5.9041">
        <ele>1706</ele>
        <time>2019-08-03T11:22:04.000Z</time>
      </trkpt>
      <trkpt lat="45.05298" lon="5.90415">
        <ele>1709</ele>
        <time>2019-08-03T11:22:11.000Z</time>
      </trkpt>
      <trkpt lat="45.05302" lon="5.90426">
        <ele>1712</ele>
        <time>2019-08-03T11:22:32.000Z</time>
      </trkpt>
      <trkpt lat="45.05306" lon="5.90435">
        <ele>1712</ele>
        <time>2019-08-03T11:22:39.000Z</time>
      </trkpt>
      <trkpt lat="45.0531" lon="5.90443">
        <ele>1712</ele>
        <time>2019-08-03T11:22:45.000Z</time>
      </trkpt>
      <trkpt lat="45.05315" lon="5.90454">
        <ele>1712</ele>
        <time>2019-08-03T11:22:52.000Z</time>
      </trkpt>
      <trkpt lat="45.05323" lon="5.90459">
        <ele>1713</ele>
        <time>2019-08-03T11:22:58.000Z</time>
      </trkpt>
      <trkpt lat="45.05327" lon="5.90471">
        <ele>1712</ele>
        <time>2019-08-03T11:23:05.000Z</time>
      </trkpt>
      <trkpt lat="45.0533" lon="5.90479">
        <ele>1711</ele>
        <time>2019-08-03T11:23:11.000Z</time>
      </trkpt>
      <trkpt lat="45.05333" lon="5.90484">
        <ele>1710</ele>
        <time>2019-08-03T11:23:15.000Z</time>
      </trkpt>
      <trkpt lat="45.05336" lon="5.90494">
        <ele>1710</ele>
        <time>2019-08-03T11:23:22.000Z</time>
      </trkpt>
      <trkpt lat="45.05341" lon="5.90504">
        <ele>1709</ele>
        <time>2019-08-03T11:23:28.000Z</time>
      </trkpt>
      <trkpt lat="45.05344" lon="5.9051">
        <ele>1708</ele>
        <time>2019-08-03T11:23:32.000Z</time>
      </trkpt>
      <trkpt lat="45.05346" lon="5.90519">
        <ele>1708</ele>
        <time>2019-08-03T11:23:39.000Z</time>
      </trkpt>
      <trkpt lat="45.05345" lon="5.90533">
        <ele>1711</ele>
        <time>2019-08-03T11:23:46.000Z</time>
      </trkpt>
      <trkpt lat="45.05344" lon="5.90544">
        <ele>1711</ele>
        <time>2019-08-03T11:23:52.000Z</time>
      </trkpt>
      <trkpt lat="45.05345" lon="5.90551">
        <ele>1712</ele>
        <time>2019-08-03T11:23:59.000Z</time>
      </trkpt>
      <trkpt lat="45.05346" lon="5.90557">
        <ele>1712</ele>
        <time>2019-08-03T11:24:06.000Z</time>
      </trkpt>
      <trkpt lat="45.05352" lon="5.90565">
        <ele>1712</ele>
        <time>2019-08-03T11:24:16.000Z</time>
      </trkpt>
      <trkpt lat="45.05354" lon="5.90575">
        <ele>1713</ele>
        <time>2019-08-03T11:24:22.000Z</time>
      </trkpt>
      <trkpt lat="45.0535" lon="5.9058">
        <ele>1715</ele>
        <time>2019-08-03T11:24:26.000Z</time>
      </trkpt>
      <trkpt lat="45.05345" lon="5.90586">
        <ele>1716</ele>
        <time>2019-08-03T11:24:32.000Z</time>
      </trkpt>
      <trkpt lat="45.05339" lon="5.90593">
        <ele>1716</ele>
        <time>2019-08-03T11:24:40.000Z</time>
      </trkpt>
      <trkpt lat="45.05333" lon="5.90605">
        <ele>1716</ele>
        <time>2019-08-03T11:24:47.000Z</time>
      </trkpt>
      <trkpt lat="45.05331" lon="5.90611">
        <ele>1719</ele>
        <time>2019-08-03T11:24:54.000Z</time>
      </trkpt>
      <trkpt lat="45.05329" lon="5.90619">
        <ele>1720</ele>
        <time>2019-08-03T11:25:05.000Z</time>
      </trkpt>
      <trkpt lat="45.05326" lon="5.90629">
        <ele>1720</ele>
        <time>2019-08-03T11:25:12.000Z</time>
      </trkpt>
      <trkpt lat="45.05325" lon="5.90636">
        <ele>1721</ele>
        <time>2019-08-03T11:25:19.000Z</time>
      </trkpt>
      <trkpt lat="45.05321" lon="5.90646">
        <ele>1722</ele>
        <time>2019-08-03T11:25:26.000Z</time>
      </trkpt>
      <trkpt lat="45.05319" lon="5.90652">
        <ele>1721</ele>
        <time>2019-08-03T11:25:30.000Z</time>
      </trkpt>
      <trkpt lat="45.05316" lon="5.90661">
        <ele>1722</ele>
        <time>2019-08-03T11:25:36.000Z</time>
      </trkpt>
      <trkpt lat="45.05311" lon="5.90673">
        <ele>1724</ele>
        <time>2019-08-03T11:25:43.000Z</time>
      </trkpt>
      <trkpt lat="45.05306" lon="5.90676">
        <ele>1723</ele>
        <time>2019-08-03T11:25:47.000Z</time>
      </trkpt>
      <trkpt lat="45.053" lon="5.90683">
        <ele>1726</ele>
        <time>2019-08-03T11:25:54.000Z</time>
      </trkpt>
      <trkpt lat="45.05296" lon="5.90689">
        <ele>1727</ele>
        <time>2019-08-03T11:26:01.000Z</time>
      </trkpt>
      <trkpt lat="45.05291" lon="5.90695">
        <ele>1729</ele>
        <time>2019-08-03T11:26:08.000Z</time>
      </trkpt>
      <trkpt lat="45.05284" lon="5.90699">
        <ele>1729</ele>
        <time>2019-08-03T11:26:14.000Z</time>
      </trkpt>
      <trkpt lat="45.0528" lon="5.90703">
        <ele>1729</ele>
        <time>2019-08-03T11:26:18.000Z</time>
      </trkpt>
      <trkpt lat="45.05278" lon="5.90711">
        <ele>1728</ele>
        <time>2019-08-03T11:26:24.000Z</time>
      </trkpt>
      <trkpt lat="45.05274" lon="5.90716">
        <ele>1730</ele>
        <time>2019-08-03T11:26:32.000Z</time>
      </trkpt>
      <trkpt lat="45.05272" lon="5.90727">
        <ele>1732</ele>
        <time>2019-08-03T11:29:10.000Z</time>
      </trkpt>
      <trkpt lat="45.05272" lon="5.90735">
        <ele>1733</ele>
        <time>2019-08-03T11:29:16.000Z</time>
      </trkpt>
      <trkpt lat="45.05268" lon="5.90746">
        <ele>1736</ele>
        <time>2019-08-03T11:29:24.000Z</time>
      </trkpt>
      <trkpt lat="45.05265" lon="5.90751">
        <ele>1736</ele>
        <time>2019-08-03T11:29:28.000Z</time>
      </trkpt>
      <trkpt lat="45.0526" lon="5.90754">
        <ele>1736</ele>
        <time>2019-08-03T11:29:32.000Z</time>
      </trkpt>
      <trkpt lat="45.05255" lon="5.90755">
        <ele>1736</ele>
        <time>2019-08-03T11:29:36.000Z</time>
      </trkpt>
      <trkpt lat="45.05247" lon="5.90754">
        <ele>1735</ele>
        <time>2019-08-03T11:29:43.000Z</time>
      </trkpt>
      <trkpt lat="45.05238" lon="5.90753">
        <ele>1734</ele>
        <time>2019-08-03T11:29:50.000Z</time>
      </trkpt>
      <trkpt lat="45.05231" lon="5.90751">
        <ele>1735</ele>
        <time>2019-08-03T11:29:57.000Z</time>
      </trkpt>
      <trkpt lat="45.05225" lon="5.90746">
        <ele>1737</ele>
        <time>2019-08-03T11:30:04.000Z</time>
      </trkpt>
      <trkpt lat="45.05217" lon="5.9074">
        <ele>1739</ele>
        <time>2019-08-03T11:30:12.000Z</time>
      </trkpt>
      <trkpt lat="45.05212" lon="5.90738">
        <ele>1740</ele>
        <time>2019-08-03T11:30:16.000Z</time>
      </trkpt>
      <trkpt lat="45.05204" lon="5.90739">
        <ele>1741</ele>
        <time>2019-08-03T11:30:23.000Z</time>
      </trkpt>
      <trkpt lat="45.05198" lon="5.90746">
        <ele>1741</ele>
        <time>2019-08-03T11:30:30.000Z</time>
      </trkpt>
      <trkpt lat="45.05194" lon="5.90747">
        <ele>1742</ele>
        <time>2019-08-03T11:30:37.000Z</time>
      </trkpt>
      <trkpt lat="45.05188" lon="5.90752">
        <ele>1743</ele>
        <time>2019-08-03T11:30:44.000Z</time>
      </trkpt>
      <trkpt lat="45.05183" lon="5.90757">
        <ele>1743</ele>
        <time>2019-08-03T11:30:48.000Z</time>
      </trkpt>
      <trkpt lat="45.05181" lon="5.90763">
        <ele>1745</ele>
        <time>2019-08-03T11:30:52.000Z</time>
      </trkpt>
      <trkpt lat="45.05176" lon="5.90768">
        <ele>1745</ele>
        <time>2019-08-03T11:30:56.000Z</time>
      </trkpt>
      <trkpt lat="45.0517" lon="5.90764">
        <ele>1749</ele>
        <time>2019-08-03T11:31:14.000Z</time>
      </trkpt>
      <trkpt lat="45.05163" lon="5.90754">
        <ele>1750</ele>
        <time>2019-08-03T11:31:20.000Z</time>
      </trkpt>
      <trkpt lat="45.05158" lon="5.90748">
        <ele>1750</ele>
        <time>2019-08-03T11:31:24.000Z</time>
      </trkpt>
      <trkpt lat="45.05154" lon="5.90742">
        <ele>1750</ele>
        <time>2019-08-03T11:31:28.000Z</time>
      </trkpt>
      <trkpt lat="45.05145" lon="5.90737">
        <ele>1752</ele>
        <time>2019-08-03T11:31:35.000Z</time>
      </trkpt>
      <trkpt lat="45.0514" lon="5.90736">
        <ele>1751</ele>
        <time>2019-08-03T11:31:39.000Z</time>
      </trkpt>
      <trkpt lat="45.05136" lon="5.90737">
        <ele>1750</ele>
        <time>2019-08-03T11:31:43.000Z</time>
      </trkpt>
      <trkpt lat="45.05129" lon="5.90741">
        <ele>1751</ele>
        <time>2019-08-03T11:31:49.000Z</time>
      </trkpt>
      <trkpt lat="45.05124" lon="5.90747">
        <ele>1752</ele>
        <time>2019-08-03T11:31:56.000Z</time>
      </trkpt>
      <trkpt lat="45.05121" lon="5.90753">
        <ele>1751</ele>
        <time>2019-08-03T11:32:00.000Z</time>
      </trkpt>
      <trkpt lat="45.0512" lon="5.9076">
        <ele>1752</ele>
        <time>2019-08-03T11:32:04.000Z</time>
      </trkpt>
      <trkpt lat="45.05116" lon="5.90772">
        <ele>1753</ele>
        <time>2019-08-03T11:32:11.000Z</time>
      </trkpt>
      <trkpt lat="45.05114" lon="5.90784">
        <ele>1752</ele>
        <time>2019-08-03T11:32:19.000Z</time>
      </trkpt>
      <trkpt lat="45.05114" lon="5.90791">
        <ele>1753</ele>
        <time>2019-08-03T11:32:26.000Z</time>
      </trkpt>
      <trkpt lat="45.05109" lon="5.90798">
        <ele>1755</ele>
        <time>2019-08-03T11:32:33.000Z</time>
      </trkpt>
      <trkpt lat="45.05106" lon="5.90807">
        <ele>1758</ele>
        <time>2019-08-03T11:32:39.000Z</time>
      </trkpt>
      <trkpt lat="45.05103" lon="5.90815">
        <ele>1760</ele>
        <time>2019-08-03T11:32:46.000Z</time>
      </trkpt>
      <trkpt lat="45.05102" lon="5.90821">
        <ele>1760</ele>
        <time>2019-08-03T11:32:50.000Z</time>
      </trkpt>
      <trkpt lat="45.05104" lon="5.9083">
        <ele>1760</ele>
        <time>2019-08-03T11:32:57.000Z</time>
      </trkpt>
      <trkpt lat="45.05104" lon="5.90836">
        <ele>1760</ele>
        <time>2019-08-03T11:33:01.000Z</time>
      </trkpt>
      <trkpt lat="45.05101" lon="5.90841">
        <ele>1761</ele>
        <time>2019-08-03T11:33:04.000Z</time>
      </trkpt>
      <trkpt lat="45.05101" lon="5.90851">
        <ele>1761</ele>
        <time>2019-08-03T11:33:10.000Z</time>
      </trkpt>
      <trkpt lat="45.05097" lon="5.90859">
        <ele>1762</ele>
        <time>2019-08-03T11:33:14.000Z</time>
      </trkpt>
      <trkpt lat="45.05096" lon="5.90866">
        <ele>1762</ele>
        <time>2019-08-03T11:33:18.000Z</time>
      </trkpt>
      <trkpt lat="45.05095" lon="5.90874">
        <ele>1763</ele>
        <time>2019-08-03T11:33:22.000Z</time>
      </trkpt>
      <trkpt lat="45.05094" lon="5.90882">
        <ele>1763</ele>
        <time>2019-08-03T11:33:26.000Z</time>
      </trkpt>
      <trkpt lat="45.05092" lon="5.90891">
        <ele>1764</ele>
        <time>2019-08-03T11:33:32.000Z</time>
      </trkpt>
      <trkpt lat="45.0509" lon="5.90901">
        <ele>1768</ele>
        <time>2019-08-03T11:33:39.000Z</time>
      </trkpt>
      <trkpt lat="45.05089" lon="5.90912">
        <ele>1770</ele>
        <time>2019-08-03T11:33:46.000Z</time>
      </trkpt>
      <trkpt lat="45.05083" lon="5.90919">
        <ele>1772</ele>
        <time>2019-08-03T11:34:04.000Z</time>
      </trkpt>
      <trkpt lat="45.05079" lon="5.90928">
        <ele>1773</ele>
        <time>2019-08-03T11:34:12.000Z</time>
      </trkpt>
      <trkpt lat="45.05077" lon="5.9094">
        <ele>1775</ele>
        <time>2019-08-03T11:34:20.000Z</time>
      </trkpt>
      <trkpt lat="45.05075" lon="5.9095">
        <ele>1777</ele>
        <time>2019-08-03T11:34:28.000Z</time>
      </trkpt>
      <trkpt lat="45.05074" lon="5.90956">
        <ele>1776</ele>
        <time>2019-08-03T11:34:31.000Z</time>
      </trkpt>
      <trkpt lat="45.05072" lon="5.90966">
        <ele>1779</ele>
        <time>2019-08-03T11:34:38.000Z</time>
      </trkpt>
      <trkpt lat="45.0507" lon="5.90971">
        <ele>1780</ele>
        <time>2019-08-03T11:34:42.000Z</time>
      </trkpt>
      <trkpt lat="45.05068" lon="5.90977">
        <ele>1780</ele>
        <time>2019-08-03T11:34:46.000Z</time>
      </trkpt>
      <trkpt lat="45.05066" lon="5.9099">
        <ele>1781</ele>
        <time>2019-08-03T11:34:53.000Z</time>
      </trkpt>
      <trkpt lat="45.05065" lon="5.91002">
        <ele>1782</ele>
        <time>2019-08-03T11:35:00.000Z</time>
      </trkpt>
      <trkpt lat="45.05065" lon="5.91014">
        <ele>1783</ele>
        <time>2019-08-03T11:35:07.000Z</time>
      </trkpt>
      <trkpt lat="45.05059" lon="5.91022">
        <ele>1783</ele>
        <time>2019-08-03T11:35:14.000Z</time>
      </trkpt>
      <trkpt lat="45.0506" lon="5.9103">
        <ele>1783</ele>
        <time>2019-08-03T11:35:24.000Z</time>
      </trkpt>
      <trkpt lat="45.05062" lon="5.91038">
        <ele>1783</ele>
        <time>2019-08-03T11:35:34.000Z</time>
      </trkpt>
      <trkpt lat="45.05063" lon="5.91049">
        <ele>1784</ele>
        <time>2019-08-03T11:35:42.000Z</time>
      </trkpt>
      <trkpt lat="45.05058" lon="5.91059">
        <ele>1786</ele>
        <time>2019-08-03T11:35:50.000Z</time>
      </trkpt>
      <trkpt lat="45.05059" lon="5.91065">
        <ele>1786</ele>
        <time>2019-08-03T11:35:54.000Z</time>
      </trkpt>
      <trkpt lat="45.05057" lon="5.91072">
        <ele>1787</ele>
        <time>2019-08-03T11:35:58.000Z</time>
      </trkpt>
      <trkpt lat="45.05052" lon="5.91083">
        <ele>1787</ele>
        <time>2019-08-03T11:36:05.000Z</time>
      </trkpt>
      <trkpt lat="45.05049" lon="5.9109">
        <ele>1788</ele>
        <time>2019-08-03T11:36:11.000Z</time>
      </trkpt>
      <trkpt lat="45.05044" lon="5.91096">
        <ele>1789</ele>
        <time>2019-08-03T11:36:18.000Z</time>
      </trkpt>
      <trkpt lat="45.05038" lon="5.91101">
        <ele>1789</ele>
        <time>2019-08-03T11:36:26.000Z</time>
      </trkpt>
      <trkpt lat="45.05038" lon="5.91112">
        <ele>1789</ele>
        <time>2019-08-03T11:36:33.000Z</time>
      </trkpt>
      <trkpt lat="45.05037" lon="5.91118">
        <ele>1791</ele>
        <time>2019-08-03T11:36:37.000Z</time>
      </trkpt>
      <trkpt lat="45.05032" lon="5.91125">
        <ele>1792</ele>
        <time>2019-08-03T11:36:43.000Z</time>
      </trkpt>
      <trkpt lat="45.05033" lon="5.91135">
        <ele>1792</ele>
        <time>2019-08-03T11:36:53.000Z</time>
      </trkpt>
      <trkpt lat="45.05038" lon="5.91143">
        <ele>1793</ele>
        <time>2019-08-03T11:37:00.000Z</time>
      </trkpt>
      <trkpt lat="45.05039" lon="5.9115">
        <ele>1794</ele>
        <time>2019-08-03T11:37:04.000Z</time>
      </trkpt>
      <trkpt lat="45.0504" lon="5.91157">
        <ele>1795</ele>
        <time>2019-08-03T11:37:08.000Z</time>
      </trkpt>
      <trkpt lat="45.0504" lon="5.91164">
        <ele>1794</ele>
        <time>2019-08-03T11:37:15.000Z</time>
      </trkpt>
      <trkpt lat="45.05042" lon="5.91171">
        <ele>1796</ele>
        <time>2019-08-03T11:37:24.000Z</time>
      </trkpt>
      <trkpt lat="45.05046" lon="5.91177">
        <ele>1797</ele>
        <time>2019-08-03T11:37:31.000Z</time>
      </trkpt>
      <trkpt lat="45.05049" lon="5.91184">
        <ele>1798</ele>
        <time>2019-08-03T11:37:39.000Z</time>
      </trkpt>
      <trkpt lat="45.05051" lon="5.9119">
        <ele>1799</ele>
        <time>2019-08-03T11:37:46.000Z</time>
      </trkpt>
      <trkpt lat="45.05054" lon="5.91198">
        <ele>1799</ele>
        <time>2019-08-03T11:37:54.000Z</time>
      </trkpt>
      <trkpt lat="45.05055" lon="5.91208">
        <ele>1800</ele>
        <time>2019-08-03T11:38:02.000Z</time>
      </trkpt>
      <trkpt lat="45.05054" lon="5.91216">
        <ele>1801</ele>
        <time>2019-08-03T11:38:10.000Z</time>
      </trkpt>
      <trkpt lat="45.05055" lon="5.91225">
        <ele>1805</ele>
        <time>2019-08-03T11:38:21.000Z</time>
      </trkpt>
      <trkpt lat="45.05054" lon="5.91232">
        <ele>1807</ele>
        <time>2019-08-03T11:38:29.000Z</time>
      </trkpt>
      <trkpt lat="45.05058" lon="5.91241">
        <ele>1810</ele>
        <time>2019-08-03T11:38:38.000Z</time>
      </trkpt>
      <trkpt lat="45.05059" lon="5.91248">
        <ele>1813</ele>
        <time>2019-08-03T11:38:45.000Z</time>
      </trkpt>
      <trkpt lat="45.05062" lon="5.91255">
        <ele>1818</ele>
        <time>2019-08-03T11:38:53.000Z</time>
      </trkpt>
      <trkpt lat="45.05061" lon="5.91262">
        <ele>1819</ele>
        <time>2019-08-03T11:39:00.000Z</time>
      </trkpt>
      <trkpt lat="45.0506" lon="5.9127">
        <ele>1820</ele>
        <time>2019-08-03T11:39:07.000Z</time>
      </trkpt>
      <trkpt lat="45.05062" lon="5.91275">
        <ele>1823</ele>
        <time>2019-08-03T11:39:17.000Z</time>
      </trkpt>
      <trkpt lat="45.05065" lon="5.91283">
        <ele>1821</ele>
        <time>2019-08-03T11:39:59.000Z</time>
      </trkpt>
      <trkpt lat="45.05067" lon="5.91293">
        <ele>1822</ele>
        <time>2019-08-03T11:40:10.000Z</time>
      </trkpt>
      <trkpt lat="45.05069" lon="5.913">
        <ele>1822</ele>
        <time>2019-08-03T11:40:18.000Z</time>
      </trkpt>
      <trkpt lat="45.05072" lon="5.91308">
        <ele>1823</ele>
        <time>2019-08-03T11:40:26.000Z</time>
      </trkpt>
      <trkpt lat="45.05072" lon="5.91315">
        <ele>1826</ele>
        <time>2019-08-03T11:40:33.000Z</time>
      </trkpt>
      <trkpt lat="45.05073" lon="5.91324">
        <ele>1828</ele>
        <time>2019-08-03T11:40:44.000Z</time>
      </trkpt>
      <trkpt lat="45.05075" lon="5.91332">
        <ele>1829</ele>
        <time>2019-08-03T11:40:54.000Z</time>
      </trkpt>
      <trkpt lat="45.0508" lon="5.9134">
        <ele>1830</ele>
        <time>2019-08-03T11:41:05.000Z</time>
      </trkpt>
      <trkpt lat="45.05085" lon="5.91345">
        <ele>1833</ele>
        <time>2019-08-03T11:41:15.000Z</time>
      </trkpt>
      <trkpt lat="45.05089" lon="5.91345">
        <ele>1832</ele>
        <time>2019-08-03T11:41:21.000Z</time>
      </trkpt>
      <trkpt lat="45.05095" lon="5.91349">
        <ele>1834</ele>
        <time>2019-08-03T11:41:28.000Z</time>
      </trkpt>
      <trkpt lat="45.051" lon="5.91351">
        <ele>1834</ele>
        <time>2019-08-03T11:41:32.000Z</time>
      </trkpt>
      <trkpt lat="45.05105" lon="5.91352">
        <ele>1834</ele>
        <time>2019-08-03T11:41:36.000Z</time>
      </trkpt>
      <trkpt lat="45.0511" lon="5.91357">
        <ele>1834</ele>
        <time>2019-08-03T11:41:43.000Z</time>
      </trkpt>
      <trkpt lat="45.05116" lon="5.91362">
        <ele>1835</ele>
        <time>2019-08-03T11:41:50.000Z</time>
      </trkpt>
      <trkpt lat="45.05119" lon="5.91367">
        <ele>1836</ele>
        <time>2019-08-03T11:41:56.000Z</time>
      </trkpt>
      <trkpt lat="45.05123" lon="5.91371">
        <ele>1838</ele>
        <time>2019-08-03T11:42:00.000Z</time>
      </trkpt>
      <trkpt lat="45.05127" lon="5.91374">
        <ele>1839</ele>
        <time>2019-08-03T11:42:04.000Z</time>
      </trkpt>
      <trkpt lat="45.05131" lon="5.91383">
        <ele>1839</ele>
        <time>2019-08-03T11:42:11.000Z</time>
      </trkpt>
      <trkpt lat="45.05134" lon="5.91388">
        <ele>1839</ele>
        <time>2019-08-03T11:42:15.000Z</time>
      </trkpt>
      <trkpt lat="45.05136" lon="5.91394">
        <ele>1842</ele>
        <time>2019-08-03T11:42:23.000Z</time>
      </trkpt>
      <trkpt lat="45.05144" lon="5.91401">
        <ele>1843</ele>
        <time>2019-08-03T11:42:34.000Z</time>
      </trkpt>
      <trkpt lat="45.05146" lon="5.91407">
        <ele>1843</ele>
        <time>2019-08-03T11:42:38.000Z</time>
      </trkpt>
      <trkpt lat="45.05148" lon="5.91416">
        <ele>1844</ele>
        <time>2019-08-03T11:42:45.000Z</time>
      </trkpt>
      <trkpt lat="45.05153" lon="5.91425">
        <ele>1844</ele>
        <time>2019-08-03T11:42:52.000Z</time>
      </trkpt>
      <trkpt lat="45.05156" lon="5.91431">
        <ele>1843</ele>
        <time>2019-08-03T11:42:56.000Z</time>
      </trkpt>
      <trkpt lat="45.05156" lon="5.9144">
        <ele>1845</ele>
        <time>2019-08-03T11:43:03.000Z</time>
      </trkpt>
      <trkpt lat="45.05157" lon="5.91449">
        <ele>1845</ele>
        <time>2019-08-03T11:43:09.000Z</time>
      </trkpt>
      <trkpt lat="45.05157" lon="5.91459">
        <ele>1846</ele>
        <time>2019-08-03T11:43:16.000Z</time>
      </trkpt>
      <trkpt lat="45.05157" lon="5.91469">
        <ele>1849</ele>
        <time>2019-08-03T11:43:23.000Z</time>
      </trkpt>
      <trkpt lat="45.05158" lon="5.91479">
        <ele>1852</ele>
        <time>2019-08-03T11:43:30.000Z</time>
      </trkpt>
      <trkpt lat="45.05158" lon="5.91488">
        <ele>1852</ele>
        <time>2019-08-03T11:43:37.000Z</time>
      </trkpt>
      <trkpt lat="45.05158" lon="5.91498">
        <ele>1852</ele>
        <time>2019-08-03T11:43:44.000Z</time>
      </trkpt>
      <trkpt lat="45.05162" lon="5.91506">
        <ele>1853</ele>
        <time>2019-08-03T11:43:50.000Z</time>
      </trkpt>
      <trkpt lat="45.05164" lon="5.91518">
        <ele>1853</ele>
        <time>2019-08-03T11:43:58.000Z</time>
      </trkpt>
      <trkpt lat="45.05166" lon="5.91526">
        <ele>1855</ele>
        <time>2019-08-03T11:44:05.000Z</time>
      </trkpt>
      <trkpt lat="45.05167" lon="5.91535">
        <ele>1857</ele>
        <time>2019-08-03T11:44:13.000Z</time>
      </trkpt>
      <trkpt lat="45.0517" lon="5.91543">
        <ele>1859</ele>
        <time>2019-08-03T11:44:20.000Z</time>
      </trkpt>
      <trkpt lat="45.0517" lon="5.9155">
        <ele>1861</ele>
        <time>2019-08-03T11:44:26.000Z</time>
      </trkpt>
      <trkpt lat="45.05171" lon="5.91557">
        <ele>1864</ele>
        <time>2019-08-03T11:44:33.000Z</time>
      </trkpt>
      <trkpt lat="45.05174" lon="5.91564">
        <ele>1867</ele>
        <time>2019-08-03T11:44:40.000Z</time>
      </trkpt>
      <trkpt lat="45.05175" lon="5.91572">
        <ele>1868</ele>
        <time>2019-08-03T11:44:47.000Z</time>
      </trkpt>
      <trkpt lat="45.05174" lon="5.91581">
        <ele>1871</ele>
        <time>2019-08-03T11:44:55.000Z</time>
      </trkpt>
      <trkpt lat="45.05177" lon="5.91588">
        <ele>1872</ele>
        <time>2019-08-03T11:45:02.000Z</time>
      </trkpt>
      <trkpt lat="45.05178" lon="5.91597">
        <ele>1874</ele>
        <time>2019-08-03T11:45:09.000Z</time>
      </trkpt>
      <trkpt lat="45.05179" lon="5.91604">
        <ele>1878</ele>
        <time>2019-08-03T11:45:16.000Z</time>
      </trkpt>
      <trkpt lat="45.05179" lon="5.91611">
        <ele>1879</ele>
        <time>2019-08-03T11:45:24.000Z</time>
      </trkpt>
      <trkpt lat="45.05181" lon="5.9162">
        <ele>1879</ele>
        <time>2019-08-03T11:45:31.000Z</time>
      </trkpt>
      <trkpt lat="45.05182" lon="5.91628">
        <ele>1881</ele>
        <time>2019-08-03T11:45:38.000Z</time>
      </trkpt>
      <trkpt lat="45.05185" lon="5.91637">
        <ele>1884</ele>
        <time>2019-08-03T11:45:48.000Z</time>
      </trkpt>
      <trkpt lat="45.05185" lon="5.91646">
        <ele>1885</ele>
        <time>2019-08-03T11:45:55.000Z</time>
      </trkpt>
      <trkpt lat="45.05186" lon="5.91653">
        <ele>1888</ele>
        <time>2019-08-03T11:46:02.000Z</time>
      </trkpt>
      <trkpt lat="45.05185" lon="5.9166">
        <ele>1889</ele>
        <time>2019-08-03T11:46:08.000Z</time>
      </trkpt>
      <trkpt lat="45.05185" lon="5.91667">
        <ele>1893</ele>
        <time>2019-08-03T11:46:14.000Z</time>
      </trkpt>
      <trkpt lat="45.05184" lon="5.91674">
        <ele>1895</ele>
        <time>2019-08-03T11:46:20.000Z</time>
      </trkpt>
      <trkpt lat="45.05182" lon="5.91683">
        <ele>1897</ele>
        <time>2019-08-03T11:46:28.000Z</time>
      </trkpt>
      <trkpt lat="45.05182" lon="5.9169">
        <ele>1898</ele>
        <time>2019-08-03T11:46:36.000Z</time>
      </trkpt>
      <trkpt lat="45.05181" lon="5.91699">
        <ele>1902</ele>
        <time>2019-08-03T11:46:43.000Z</time>
      </trkpt>
      <trkpt lat="45.0518" lon="5.91705">
        <ele>1904</ele>
        <time>2019-08-03T11:46:50.000Z</time>
      </trkpt>
      <trkpt lat="45.05183" lon="5.91715">
        <ele>1904</ele>
        <time>2019-08-03T11:46:57.000Z</time>
      </trkpt>
      <trkpt lat="45.05187" lon="5.9172">
        <ele>1905</ele>
        <time>2019-08-03T11:47:05.000Z</time>
      </trkpt>
      <trkpt lat="45.05192" lon="5.91726">
        <ele>1906</ele>
        <time>2019-08-03T11:47:20.000Z</time>
      </trkpt>
      <trkpt lat="45.05196" lon="5.91733">
        <ele>1908</ele>
        <time>2019-08-03T11:47:30.000Z</time>
      </trkpt>
      <trkpt lat="45.052" lon="5.91739">
        <ele>1910</ele>
        <time>2019-08-03T11:47:38.000Z</time>
      </trkpt>
      <trkpt lat="45.05198" lon="5.91745">
        <ele>1913</ele>
        <time>2019-08-03T11:47:48.000Z</time>
      </trkpt>
      <trkpt lat="45.05191" lon="5.91746">
        <ele>1913</ele>
        <time>2019-08-03T11:47:56.000Z</time>
      </trkpt>
      <trkpt lat="45.05191" lon="5.91752">
        <ele>1916</ele>
        <time>2019-08-03T11:48:04.000Z</time>
      </trkpt>
      <trkpt lat="45.05193" lon="5.9176">
        <ele>1917</ele>
        <time>2019-08-03T11:48:14.000Z</time>
      </trkpt>
      <trkpt lat="45.05198" lon="5.91766">
        <ele>1920</ele>
        <time>2019-08-03T11:48:25.000Z</time>
      </trkpt>
      <trkpt lat="45.05199" lon="5.91774">
        <ele>1927</ele>
        <time>2019-08-03T11:49:36.000Z</time>
      </trkpt>
      <trkpt lat="45.05197" lon="5.91782">
        <ele>1927</ele>
        <time>2019-08-03T11:49:46.000Z</time>
      </trkpt>
      <trkpt lat="45.05195" lon="5.91788">
        <ele>1926</ele>
        <time>2019-08-03T11:49:53.000Z</time>
      </trkpt>
      <trkpt lat="45.05195" lon="5.91796">
        <ele>1929</ele>
        <time>2019-08-03T11:50:03.000Z</time>
      </trkpt>
      <trkpt lat="45.05195" lon="5.91804">
        <ele>1934</ele>
        <time>2019-08-03T11:50:17.000Z</time>
      </trkpt>
      <trkpt lat="45.05195" lon="5.91811">
        <ele>1935</ele>
        <time>2019-08-03T11:50:24.000Z</time>
      </trkpt>
      <trkpt lat="45.05197" lon="5.91818">
        <ele>1937</ele>
        <time>2019-08-03T11:50:32.000Z</time>
      </trkpt>
      <trkpt lat="45.05198" lon="5.91826">
        <ele>1939</ele>
        <time>2019-08-03T11:50:40.000Z</time>
      </trkpt>
      <trkpt lat="45.05196" lon="5.91833">
        <ele>1941</ele>
        <time>2019-08-03T11:50:52.000Z</time>
      </trkpt>
      <trkpt lat="45.05194" lon="5.9184">
        <ele>1945</ele>
        <time>2019-08-03T11:51:00.000Z</time>
      </trkpt>
      <trkpt lat="45.05195" lon="5.91848">
        <ele>1946</ele>
        <time>2019-08-03T11:51:08.000Z</time>
      </trkpt>
      <trkpt lat="45.05195" lon="5.91857">
        <ele>1945</ele>
        <time>2019-08-03T11:51:15.000Z</time>
      </trkpt>
      <trkpt lat="45.05199" lon="5.91861">
        <ele>1947</ele>
        <time>2019-08-03T11:51:29.000Z</time>
      </trkpt>
      <trkpt lat="45.05202" lon="5.91867">
        <ele>1950</ele>
        <time>2019-08-03T11:51:36.000Z</time>
      </trkpt>
      <trkpt lat="45.05202" lon="5.91878">
        <ele>1952</ele>
        <time>2019-08-03T11:51:44.000Z</time>
      </trkpt>
      <trkpt lat="45.05202" lon="5.91885">
        <ele>1953</ele>
        <time>2019-08-03T11:51:51.000Z</time>
      </trkpt>
      <trkpt lat="45.05201" lon="5.91894">
        <ele>1955</ele>
        <time>2019-08-03T11:51:58.000Z</time>
      </trkpt>
      <trkpt lat="45.05202" lon="5.91902">
        <ele>1956</ele>
        <time>2019-08-03T11:52:04.000Z</time>
      </trkpt>
      <trkpt lat="45.05204" lon="5.91908">
        <ele>1957</ele>
        <time>2019-08-03T11:52:11.000Z</time>
      </trkpt>
      <trkpt lat="45.05207" lon="5.91914">
        <ele>1959</ele>
        <time>2019-08-03T11:52:21.000Z</time>
      </trkpt>
      <trkpt lat="45.05212" lon="5.91918">
        <ele>1960</ele>
        <time>2019-08-03T11:52:28.000Z</time>
      </trkpt>
      <trkpt lat="45.05209" lon="5.91925">
        <ele>1961</ele>
        <time>2019-08-03T11:52:38.000Z</time>
      </trkpt>
      <trkpt lat="45.05212" lon="5.91932">
        <ele>1963</ele>
        <time>2019-08-03T11:52:48.000Z</time>
      </trkpt>
      <trkpt lat="45.05216" lon="5.91939">
        <ele>1965</ele>
        <time>2019-08-03T11:53:03.000Z</time>
      </trkpt>
      <trkpt lat="45.05219" lon="5.91944">
        <ele>1968</ele>
        <time>2019-08-03T11:53:10.000Z</time>
      </trkpt>
      <trkpt lat="45.05222" lon="5.91949">
        <ele>1971</ele>
        <time>2019-08-03T11:53:17.000Z</time>
      </trkpt>
      <trkpt lat="45.05226" lon="5.91955">
        <ele>1973</ele>
        <time>2019-08-03T11:53:31.000Z</time>
      </trkpt>
      <trkpt lat="45.05229" lon="5.91961">
        <ele>1975</ele>
        <time>2019-08-03T11:53:42.000Z</time>
      </trkpt>
      <trkpt lat="45.05232" lon="5.91966">
        <ele>1977</ele>
        <time>2019-08-03T11:53:50.000Z</time>
      </trkpt>
      <trkpt lat="45.05236" lon="5.9197">
        <ele>1980</ele>
        <time>2019-08-03T11:54:01.000Z</time>
      </trkpt>
      <trkpt lat="45.05241" lon="5.91974">
        <ele>1982</ele>
        <time>2019-08-03T11:54:14.000Z</time>
      </trkpt>
      <trkpt lat="45.05242" lon="5.91983">
        <ele>1986</ele>
        <time>2019-08-03T11:54:24.000Z</time>
      </trkpt>
      <trkpt lat="45.05244" lon="5.91992">
        <ele>1991</ele>
        <time>2019-08-03T11:54:34.000Z</time>
      </trkpt>
      <trkpt lat="45.05245" lon="5.92001">
        <ele>1992</ele>
        <time>2019-08-03T11:54:44.000Z</time>
      </trkpt>
      <trkpt lat="45.05247" lon="5.92007">
        <ele>1994</ele>
        <time>2019-08-03T11:54:51.000Z</time>
      </trkpt>
      <trkpt lat="45.05246" lon="5.92015">
        <ele>1998</ele>
        <time>2019-08-03T11:55:05.000Z</time>
      </trkpt>
      <trkpt lat="45.05246" lon="5.92023">
        <ele>1999</ele>
        <time>2019-08-03T11:55:14.000Z</time>
      </trkpt>
      <trkpt lat="45.05249" lon="5.92028">
        <ele>2002</ele>
        <time>2019-08-03T11:55:25.000Z</time>
      </trkpt>
      <trkpt lat="45.05254" lon="5.92032">
        <ele>2003</ele>
        <time>2019-08-03T11:55:32.000Z</time>
      </trkpt>
      <trkpt lat="45.05257" lon="5.92037">
        <ele>2005</ele>
        <time>2019-08-03T11:55:39.000Z</time>
      </trkpt>
      <trkpt lat="45.0526" lon="5.92045">
        <ele>2005</ele>
        <time>2019-08-03T11:55:49.000Z</time>
      </trkpt>
      <trkpt lat="45.05265" lon="5.92047">
        <ele>2005</ele>
        <time>2019-08-03T11:55:56.000Z</time>
      </trkpt>
      <trkpt lat="45.05271" lon="5.92055">
        <ele>2006</ele>
        <time>2019-08-03T11:56:04.000Z</time>
      </trkpt>
      <trkpt lat="45.05275" lon="5.92059">
        <ele>2007</ele>
        <time>2019-08-03T11:56:10.000Z</time>
      </trkpt>
      <trkpt lat="45.05277" lon="5.92065">
        <ele>2011</ele>
        <time>2019-08-03T11:56:24.000Z</time>
      </trkpt>
      <trkpt lat="45.0528" lon="5.92071">
        <ele>2015</ele>
        <time>2019-08-03T11:56:38.000Z</time>
      </trkpt>
      <trkpt lat="45.05287" lon="5.9207">
        <ele>2015</ele>
        <time>2019-08-03T11:56:45.000Z</time>
      </trkpt>
      <trkpt lat="45.05292" lon="5.92076">
        <ele>2018</ele>
        <time>2019-08-03T11:56:52.000Z</time>
      </trkpt>
      <trkpt lat="45.05297" lon="5.92081">
        <ele>2019</ele>
        <time>2019-08-03T11:56:58.000Z</time>
      </trkpt>
      <trkpt lat="45.053" lon="5.92086">
        <ele>2019</ele>
        <time>2019-08-03T11:57:05.000Z</time>
      </trkpt>
      <trkpt lat="45.05305" lon="5.92093">
        <ele>2021</ele>
        <time>2019-08-03T11:57:11.000Z</time>
      </trkpt>
      <trkpt lat="45.05309" lon="5.92098">
        <ele>2023</ele>
        <time>2019-08-03T11:57:18.000Z</time>
      </trkpt>
      <trkpt lat="45.05313" lon="5.92105">
        <ele>2024</ele>
        <time>2019-08-03T11:57:25.000Z</time>
      </trkpt>
      <trkpt lat="45.05315" lon="5.92112">
        <ele>2025</ele>
        <time>2019-08-03T11:57:32.000Z</time>
      </trkpt>
      <trkpt lat="45.0532" lon="5.92118">
        <ele>2028</ele>
        <time>2019-08-03T11:57:42.000Z</time>
      </trkpt>
      <trkpt lat="45.05324" lon="5.92125">
        <ele>2029</ele>
        <time>2019-08-03T11:57:50.000Z</time>
      </trkpt>
      <trkpt lat="45.05328" lon="5.9213">
        <ele>2031</ele>
        <time>2019-08-03T11:57:57.000Z</time>
      </trkpt>
      <trkpt lat="45.05332" lon="5.92138">
        <ele>2033</ele>
        <time>2019-08-03T11:58:08.000Z</time>
      </trkpt>
      <trkpt lat="45.05338" lon="5.92142">
        <ele>2035</ele>
        <time>2019-08-03T11:58:18.000Z</time>
      </trkpt>
      <trkpt lat="45.05345" lon="5.92147">
        <ele>2038</ele>
        <time>2019-08-03T11:58:25.000Z</time>
      </trkpt>
      <trkpt lat="45.05349" lon="5.92152">
        <ele>2040</ele>
        <time>2019-08-03T11:58:32.000Z</time>
      </trkpt>
      <trkpt lat="45.0535" lon="5.92158">
        <ele>2043</ele>
        <time>2019-08-03T11:58:39.000Z</time>
      </trkpt>
      <trkpt lat="45.05354" lon="5.92165">
        <ele>2045</ele>
        <time>2019-08-03T11:58:50.000Z</time>
      </trkpt>
      <trkpt lat="45.05358" lon="5.92171">
        <ele>2045</ele>
        <time>2019-08-03T11:59:00.000Z</time>
      </trkpt>
      <trkpt lat="45.05356" lon="5.92177">
        <ele>2048</ele>
        <time>2019-08-03T11:59:17.000Z</time>
      </trkpt>
      <trkpt lat="45.05351" lon="5.92177">
        <ele>2049</ele>
        <time>2019-08-03T11:59:25.000Z</time>
      </trkpt>
      <trkpt lat="45.05346" lon="5.9218">
        <ele>2052</ele>
        <time>2019-08-03T11:59:32.000Z</time>
      </trkpt>
      <trkpt lat="45.05339" lon="5.92182">
        <ele>2055</ele>
        <time>2019-08-03T11:59:39.000Z</time>
      </trkpt>
      <trkpt lat="45.05333" lon="5.92184">
        <ele>2056</ele>
        <time>2019-08-03T11:59:47.000Z</time>
      </trkpt>
      <trkpt lat="45.05328" lon="5.92185">
        <ele>2058</ele>
        <time>2019-08-03T11:59:55.000Z</time>
      </trkpt>
      <trkpt lat="45.05323" lon="5.92187">
        <ele>2060</ele>
        <time>2019-08-03T12:00:26.000Z</time>
      </trkpt>
      <trkpt lat="45.05317" lon="5.92186">
        <ele>2061</ele>
        <time>2019-08-03T12:00:36.000Z</time>
      </trkpt>
      <trkpt lat="45.05311" lon="5.92187">
        <ele>2062</ele>
        <time>2019-08-03T12:00:46.000Z</time>
      </trkpt>
      <trkpt lat="45.05306" lon="5.92189">
        <ele>2064</ele>
        <time>2019-08-03T12:00:53.000Z</time>
      </trkpt>
      <trkpt lat="45.05301" lon="5.92189">
        <ele>2068</ele>
        <time>2019-08-03T12:01:01.000Z</time>
      </trkpt>
      <trkpt lat="45.05295" lon="5.92191">
        <ele>2070</ele>
        <time>2019-08-03T12:01:08.000Z</time>
      </trkpt>
      <trkpt lat="45.0529" lon="5.92191">
        <ele>2071</ele>
        <time>2019-08-03T12:01:16.000Z</time>
      </trkpt>
      <trkpt lat="45.05283" lon="5.92193">
        <ele>2073</ele>
        <time>2019-08-03T12:01:24.000Z</time>
      </trkpt>
      <trkpt lat="45.05277" lon="5.92193">
        <ele>2074</ele>
        <time>2019-08-03T12:01:31.000Z</time>
      </trkpt>
      <trkpt lat="45.05272" lon="5.92195">
        <ele>2074</ele>
        <time>2019-08-03T12:01:38.000Z</time>
      </trkpt>
      <trkpt lat="45.05268" lon="5.92197">
        <ele>2076</ele>
        <time>2019-08-03T12:01:45.000Z</time>
      </trkpt>
      <trkpt lat="45.05262" lon="5.92199">
        <ele>2077</ele>
        <time>2019-08-03T12:01:52.000Z</time>
      </trkpt>
      <trkpt lat="45.05258" lon="5.92202">
        <ele>2080</ele>
        <time>2019-08-03T12:02:00.000Z</time>
      </trkpt>
      <trkpt lat="45.05252" lon="5.92199">
        <ele>2081</ele>
        <time>2019-08-03T12:02:10.000Z</time>
      </trkpt>
      <trkpt lat="45.05247" lon="5.92196">
        <ele>2081</ele>
        <time>2019-08-03T12:02:18.000Z</time>
      </trkpt>
      <trkpt lat="45.05241" lon="5.922">
        <ele>2084</ele>
        <time>2019-08-03T12:02:27.000Z</time>
      </trkpt>
      <trkpt lat="45.05235" lon="5.92202">
        <ele>2087</ele>
        <time>2019-08-03T12:02:35.000Z</time>
      </trkpt>
      <trkpt lat="45.0523" lon="5.92206">
        <ele>2090</ele>
        <time>2019-08-03T12:02:42.000Z</time>
      </trkpt>
      <trkpt lat="45.05234" lon="5.9221">
        <ele>2093</ele>
        <time>2019-08-03T12:03:00.000Z</time>
      </trkpt>
      <trkpt lat="45.05237" lon="5.92215">
        <ele>2094</ele>
        <time>2019-08-03T12:03:07.000Z</time>
      </trkpt>
      <trkpt lat="45.05238" lon="5.92223">
        <ele>2098</ele>
        <time>2019-08-03T12:03:18.000Z</time>
      </trkpt>
      <trkpt lat="45.0524" lon="5.92231">
        <ele>2099</ele>
        <time>2019-08-03T12:03:29.000Z</time>
      </trkpt>
      <trkpt lat="45.05244" lon="5.92237">
        <ele>2100</ele>
        <time>2019-08-03T12:03:39.000Z</time>
      </trkpt>
      <trkpt lat="45.05249" lon="5.92238">
        <ele>2103</ele>
        <time>2019-08-03T12:03:46.000Z</time>
      </trkpt>
      <trkpt lat="45.05254" lon="5.92244">
        <ele>2104</ele>
        <time>2019-08-03T12:03:56.000Z</time>
      </trkpt>
      <trkpt lat="45.05254" lon="5.9225">
        <ele>2104</ele>
        <time>2019-08-03T12:04:03.000Z</time>
      </trkpt>
      <trkpt lat="45.05253" lon="5.92258">
        <ele>2106</ele>
        <time>2019-08-03T12:04:09.000Z</time>
      </trkpt>
      <trkpt lat="45.05251" lon="5.92266">
        <ele>2106</ele>
        <time>2019-08-03T12:04:15.000Z</time>
      </trkpt>
      <trkpt lat="45.0525" lon="5.92273">
        <ele>2107</ele>
        <time>2019-08-03T12:04:19.000Z</time>
      </trkpt>
      <trkpt lat="45.05252" lon="5.92284">
        <ele>2107</ele>
        <time>2019-08-03T12:04:26.000Z</time>
      </trkpt>
      <trkpt lat="45.05257" lon="5.92291">
        <ele>2107</ele>
        <time>2019-08-03T12:04:33.000Z</time>
      </trkpt>
      <trkpt lat="45.05257" lon="5.92299">
        <ele>2110</ele>
        <time>2019-08-03T12:04:40.000Z</time>
      </trkpt>
      <trkpt lat="45.05256" lon="5.9231">
        <ele>2111</ele>
        <time>2019-08-03T12:04:48.000Z</time>
      </trkpt>
      <trkpt lat="45.05253" lon="5.92319">
        <ele>2111</ele>
        <time>2019-08-03T12:04:54.000Z</time>
      </trkpt>
      <trkpt lat="45.05251" lon="5.92327">
        <ele>2113</ele>
        <time>2019-08-03T12:05:01.000Z</time>
      </trkpt>
      <trkpt lat="45.05252" lon="5.92338">
        <ele>2112</ele>
        <time>2019-08-03T12:05:39.000Z</time>
      </trkpt>
      <trkpt lat="45.05253" lon="5.92346">
        <ele>2112</ele>
        <time>2019-08-03T12:05:43.000Z</time>
      </trkpt>
      <trkpt lat="45.05255" lon="5.92352">
        <ele>2111</ele>
        <time>2019-08-03T12:05:46.000Z</time>
      </trkpt>
      <trkpt lat="45.05257" lon="5.9236">
        <ele>2112</ele>
        <time>2019-08-03T12:05:50.000Z</time>
      </trkpt>
      <trkpt lat="45.0526" lon="5.92371">
        <ele>2111</ele>
        <time>2019-08-03T12:05:56.000Z</time>
      </trkpt>
      <trkpt lat="45.05263" lon="5.92378">
        <ele>2113</ele>
        <time>2019-08-03T12:06:00.000Z</time>
      </trkpt>
      <trkpt lat="45.05266" lon="5.92383">
        <ele>2113</ele>
        <time>2019-08-03T12:06:04.000Z</time>
      </trkpt>
      <trkpt lat="45.05269" lon="5.92388">
        <ele>2114</ele>
        <time>2019-08-03T12:06:08.000Z</time>
      </trkpt>
      <trkpt lat="45.05276" lon="5.92392">
        <ele>2114</ele>
        <time>2019-08-03T12:06:14.000Z</time>
      </trkpt>
      <trkpt lat="45.05283" lon="5.92395">
        <ele>2115</ele>
        <time>2019-08-03T12:06:20.000Z</time>
      </trkpt>
      <trkpt lat="45.05287" lon="5.924">
        <ele>2114</ele>
        <time>2019-08-03T12:06:24.000Z</time>
      </trkpt>
      <trkpt lat="45.05295" lon="5.92408">
        <ele>2115</ele>
        <time>2019-08-03T12:06:31.000Z</time>
      </trkpt>
      <trkpt lat="45.05301" lon="5.92415">
        <ele>2115</ele>
        <time>2019-08-03T12:06:35.000Z</time>
      </trkpt>
      <trkpt lat="45.05303" lon="5.9242">
        <ele>2116</ele>
        <time>2019-08-03T12:06:38.000Z</time>
      </trkpt>
      <trkpt lat="45.05305" lon="5.92427">
        <ele>2116</ele>
        <time>2019-08-03T12:06:42.000Z</time>
      </trkpt>
      <trkpt lat="45.05308" lon="5.92433">
        <ele>2116</ele>
        <time>2019-08-03T12:06:45.000Z</time>
      </trkpt>
      <trkpt lat="45.05311" lon="5.92438">
        <ele>2116</ele>
        <time>2019-08-03T12:06:48.000Z</time>
      </trkpt>
      <trkpt lat="45.05315" lon="5.92444">
        <ele>2117</ele>
        <time>2019-08-03T12:06:52.000Z</time>
      </trkpt>
      <trkpt lat="45.05319" lon="5.92449">
        <ele>2116</ele>
        <time>2019-08-03T12:06:56.000Z</time>
      </trkpt>
      <trkpt lat="45.05321" lon="5.92455">
        <ele>2116</ele>
        <time>2019-08-03T12:06:59.000Z</time>
      </trkpt>
      <trkpt lat="45.05323" lon="5.92462">
        <ele>2117</ele>
        <time>2019-08-03T12:07:03.000Z</time>
      </trkpt>
      <trkpt lat="45.05326" lon="5.92467">
        <ele>2117</ele>
        <time>2019-08-03T12:07:06.000Z</time>
      </trkpt>
      <trkpt lat="45.05331" lon="5.92475">
        <ele>2117</ele>
        <time>2019-08-03T12:07:10.000Z</time>
      </trkpt>
      <trkpt lat="45.05335" lon="5.9248">
        <ele>2116</ele>
        <time>2019-08-03T12:07:14.000Z</time>
      </trkpt>
      <trkpt lat="45.05338" lon="5.92485">
        <ele>2114</ele>
        <time>2019-08-03T12:07:18.000Z</time>
      </trkpt>
      <trkpt lat="45.05343" lon="5.92493">
        <ele>2116</ele>
        <time>2019-08-03T12:07:33.000Z</time>
      </trkpt>
      <trkpt lat="45.05346" lon="5.92498">
        <ele>2116</ele>
        <time>2019-08-03T12:07:36.000Z</time>
      </trkpt>
      <trkpt lat="45.05348" lon="5.92504">
        <ele>2115</ele>
        <time>2019-08-03T12:07:40.000Z</time>
      </trkpt>
      <trkpt lat="45.05351" lon="5.92511">
        <ele>2116</ele>
        <time>2019-08-03T12:07:44.000Z</time>
      </trkpt>
      <trkpt lat="45.05356" lon="5.92523">
        <ele>2115</ele>
        <time>2019-08-03T12:07:51.000Z</time>
      </trkpt>
      <trkpt lat="45.05357" lon="5.9253">
        <ele>2116</ele>
        <time>2019-08-03T12:07:54.000Z</time>
      </trkpt>
      <trkpt lat="45.05359" lon="5.92538">
        <ele>2115</ele>
        <time>2019-08-03T12:07:58.000Z</time>
      </trkpt>
      <trkpt lat="45.05365" lon="5.9255">
        <ele>2112</ele>
        <time>2019-08-03T12:08:05.000Z</time>
      </trkpt>
      <trkpt lat="45.05368" lon="5.92556">
        <ele>2112</ele>
        <time>2019-08-03T12:08:09.000Z</time>
      </trkpt>
      <trkpt lat="45.0537" lon="5.92562">
        <ele>2113</ele>
        <time>2019-08-03T12:08:13.000Z</time>
      </trkpt>
      <trkpt lat="45.05375" lon="5.92573">
        <ele>2112</ele>
        <time>2019-08-03T12:08:20.000Z</time>
      </trkpt>
      <trkpt lat="45.05378" lon="5.92579">
        <ele>2112</ele>
        <time>2019-08-03T12:08:24.000Z</time>
      </trkpt>
      <trkpt lat="45.0538" lon="5.92588">
        <ele>2112</ele>
        <time>2019-08-03T12:08:31.000Z</time>
      </trkpt>
      <trkpt lat="45.05385" lon="5.92587">
        <ele>2111</ele>
        <time>2019-08-03T12:08:38.000Z</time>
      </trkpt>
      <trkpt lat="45.05387" lon="5.9258">
        <ele>2111</ele>
        <time>2019-08-03T12:08:42.000Z</time>
      </trkpt>
      <trkpt lat="45.05389" lon="5.92572">
        <ele>2110</ele>
        <time>2019-08-03T12:08:46.000Z</time>
      </trkpt>
      <trkpt lat="45.0539" lon="5.92564">
        <ele>2110</ele>
        <time>2019-08-03T12:08:53.000Z</time>
      </trkpt>
      <trkpt lat="45.05394" lon="5.92554">
        <ele>2108</ele>
        <time>2019-08-03T12:09:00.000Z</time>
      </trkpt>
      <trkpt lat="45.05401" lon="5.92542">
        <ele>2109</ele>
        <time>2019-08-03T12:09:07.000Z</time>
      </trkpt>
      <trkpt lat="45.05404" lon="5.92536">
        <ele>2108</ele>
        <time>2019-08-03T12:09:11.000Z</time>
      </trkpt>
      <trkpt lat="45.05407" lon="5.92521">
        <ele>2107</ele>
        <time>2019-08-03T12:09:18.000Z</time>
      </trkpt>
      <trkpt lat="45.05409" lon="5.92515">
        <ele>2106</ele>
        <time>2019-08-03T12:09:21.000Z</time>
      </trkpt>
      <trkpt lat="45.05411" lon="5.92507">
        <ele>2106</ele>
        <time>2019-08-03T12:09:25.000Z</time>
      </trkpt>
      <trkpt lat="45.05415" lon="5.92495">
        <ele>2105</ele>
        <time>2019-08-03T12:09:31.000Z</time>
      </trkpt>
      <trkpt lat="45.0542" lon="5.92486">
        <ele>2105</ele>
        <time>2019-08-03T12:09:37.000Z</time>
      </trkpt>
      <trkpt lat="45.05423" lon="5.92479">
        <ele>2105</ele>
        <time>2019-08-03T12:09:41.000Z</time>
      </trkpt>
      <trkpt lat="45.05427" lon="5.92472">
        <ele>2104</ele>
        <time>2019-08-03T12:09:45.000Z</time>
      </trkpt>
      <trkpt lat="45.05429" lon="5.92467">
        <ele>2104</ele>
        <time>2019-08-03T12:09:48.000Z</time>
      </trkpt>
      <trkpt lat="45.05431" lon="5.92461">
        <ele>2105</ele>
        <time>2019-08-03T12:09:51.000Z</time>
      </trkpt>
      <trkpt lat="45.05431" lon="5.92454">
        <ele>2104</ele>
        <time>2019-08-03T12:09:54.000Z</time>
      </trkpt>
      <trkpt lat="45.05433" lon="5.92447">
        <ele>2103</ele>
        <time>2019-08-03T12:09:58.000Z</time>
      </trkpt>
      <trkpt lat="45.05436" lon="5.9244">
        <ele>2102</ele>
        <time>2019-08-03T12:10:02.000Z</time>
      </trkpt>
      <trkpt lat="45.05442" lon="5.92437">
        <ele>2100</ele>
        <time>2019-08-03T12:10:06.000Z</time>
      </trkpt>
      <trkpt lat="45.05441" lon="5.92444">
        <ele>2100</ele>
        <time>2019-08-03T12:10:24.000Z</time>
      </trkpt>
      <trkpt lat="45.05443" lon="5.92452">
        <ele>2100</ele>
        <time>2019-08-03T12:10:28.000Z</time>
      </trkpt>
      <trkpt lat="45.05444" lon="5.92462">
        <ele>2100</ele>
        <time>2019-08-03T12:10:34.000Z</time>
      </trkpt>
      <trkpt lat="45.05446" lon="5.92469">
        <ele>2101</ele>
        <time>2019-08-03T12:10:38.000Z</time>
      </trkpt>
      <trkpt lat="45.05449" lon="5.92474">
        <ele>2100</ele>
        <time>2019-08-03T12:10:42.000Z</time>
      </trkpt>
      <trkpt lat="45.05456" lon="5.92482">
        <ele>2101</ele>
        <time>2019-08-03T12:10:49.000Z</time>
      </trkpt>
      <trkpt lat="45.05463" lon="5.9249">
        <ele>2099</ele>
        <time>2019-08-03T12:10:55.000Z</time>
      </trkpt>
      <trkpt lat="45.05467" lon="5.92497">
        <ele>2099</ele>
        <time>2019-08-03T12:10:59.000Z</time>
      </trkpt>
      <trkpt lat="45.05472" lon="5.92506">
        <ele>2099</ele>
        <time>2019-08-03T12:11:05.000Z</time>
      </trkpt>
      <trkpt lat="45.05476" lon="5.92512">
        <ele>2100</ele>
        <time>2019-08-03T12:11:09.000Z</time>
      </trkpt>
      <trkpt lat="45.05479" lon="5.9252">
        <ele>2100</ele>
        <time>2019-08-03T12:11:13.000Z</time>
      </trkpt>
      <trkpt lat="45.0548" lon="5.92527">
        <ele>2101</ele>
        <time>2019-08-03T12:11:16.000Z</time>
      </trkpt>
      <trkpt lat="45.05485" lon="5.92535">
        <ele>2101</ele>
        <time>2019-08-03T12:11:22.000Z</time>
      </trkpt>
      <trkpt lat="45.05489" lon="5.92541">
        <ele>2101</ele>
        <time>2019-08-03T12:11:26.000Z</time>
      </trkpt>
      <trkpt lat="45.05496" lon="5.92551">
        <ele>2102</ele>
        <time>2019-08-03T12:11:33.000Z</time>
      </trkpt>
      <trkpt lat="45.05502" lon="5.92561">
        <ele>2103</ele>
        <time>2019-08-03T12:11:40.000Z</time>
      </trkpt>
      <trkpt lat="45.05506" lon="5.92566">
        <ele>2104</ele>
        <time>2019-08-03T12:11:44.000Z</time>
      </trkpt>
      <trkpt lat="45.0551" lon="5.92572">
        <ele>2104</ele>
        <time>2019-08-03T12:11:48.000Z</time>
      </trkpt>
      <trkpt lat="45.05516" lon="5.92581">
        <ele>2103</ele>
        <time>2019-08-03T12:11:55.000Z</time>
      </trkpt>
      <trkpt lat="45.05516" lon="5.92589">
        <ele>2102</ele>
        <time>2019-08-03T12:11:58.000Z</time>
      </trkpt>
      <trkpt lat="45.05517" lon="5.92596">
        <ele>2103</ele>
        <time>2019-08-03T12:12:02.000Z</time>
      </trkpt>
      <trkpt lat="45.05518" lon="5.92603">
        <ele>2103</ele>
        <time>2019-08-03T12:12:05.000Z</time>
      </trkpt>
      <trkpt lat="45.05518" lon="5.92614">
        <ele>2104</ele>
        <time>2019-08-03T12:12:11.000Z</time>
      </trkpt>
      <trkpt lat="45.05521" lon="5.9262">
        <ele>2105</ele>
        <time>2019-08-03T12:12:15.000Z</time>
      </trkpt>
      <trkpt lat="45.05522" lon="5.92627">
        <ele>2104</ele>
        <time>2019-08-03T12:12:18.000Z</time>
      </trkpt>
      <trkpt lat="45.05521" lon="5.92635">
        <ele>2104</ele>
        <time>2019-08-03T12:12:22.000Z</time>
      </trkpt>
      <trkpt lat="45.05522" lon="5.92641">
        <ele>2106</ele>
        <time>2019-08-03T12:12:26.000Z</time>
      </trkpt>
      <trkpt lat="45.05524" lon="5.92653">
        <ele>2105</ele>
        <time>2019-08-03T12:12:33.000Z</time>
      </trkpt>
      <trkpt lat="45.0553" lon="5.92658">
        <ele>2103</ele>
        <time>2019-08-03T12:13:47.000Z</time>
      </trkpt>
      <trkpt lat="45.05533" lon="5.92667">
        <ele>2103</ele>
        <time>2019-08-03T12:13:56.000Z</time>
      </trkpt>
      <trkpt lat="45.05535" lon="5.92673">
        <ele>2104</ele>
        <time>2019-08-03T12:14:00.000Z</time>
      </trkpt>
      <trkpt lat="45.0554" lon="5.92682">
        <ele>2105</ele>
        <time>2019-08-03T12:14:07.000Z</time>
      </trkpt>
      <trkpt lat="45.05543" lon="5.92689">
        <ele>2102</ele>
        <time>2019-08-03T12:14:14.000Z</time>
      </trkpt>
      <trkpt lat="45.05548" lon="5.92698">
        <ele>2103</ele>
        <time>2019-08-03T12:14:57.000Z</time>
      </trkpt>
      <trkpt lat="45.05552" lon="5.9271">
        <ele>2104</ele>
        <time>2019-08-03T12:15:04.000Z</time>
      </trkpt>
      <trkpt lat="45.05554" lon="5.92722">
        <ele>2105</ele>
        <time>2019-08-03T12:15:10.000Z</time>
      </trkpt>
      <trkpt lat="45.05555" lon="5.92733">
        <ele>2105</ele>
        <time>2019-08-03T12:15:16.000Z</time>
      </trkpt>
      <trkpt lat="45.05558" lon="5.92743">
        <ele>2105</ele>
        <time>2019-08-03T12:15:23.000Z</time>
      </trkpt>
      <trkpt lat="45.05558" lon="5.92757">
        <ele>2105</ele>
        <time>2019-08-03T12:15:30.000Z</time>
      </trkpt>
      <trkpt lat="45.05557" lon="5.92763">
        <ele>2105</ele>
        <time>2019-08-03T12:15:33.000Z</time>
      </trkpt>
      <trkpt lat="45.05556" lon="5.92771">
        <ele>2106</ele>
        <time>2019-08-03T12:15:37.000Z</time>
      </trkpt>
      <trkpt lat="45.05557" lon="5.92778">
        <ele>2108</ele>
        <time>2019-08-03T12:15:43.000Z</time>
      </trkpt>
      <trkpt lat="45.05561" lon="5.92786">
        <ele>2106</ele>
        <time>2019-08-03T12:15:49.000Z</time>
      </trkpt>
      <trkpt lat="45.05566" lon="5.92792">
        <ele>2107</ele>
        <time>2019-08-03T12:15:53.000Z</time>
      </trkpt>
      <trkpt lat="45.05572" lon="5.92802">
        <ele>2107</ele>
        <time>2019-08-03T12:16:00.000Z</time>
      </trkpt>
      <trkpt lat="45.05576" lon="5.92808">
        <ele>2107</ele>
        <time>2019-08-03T12:16:04.000Z</time>
      </trkpt>
      <trkpt lat="45.0558" lon="5.92813">
        <ele>2108</ele>
        <time>2019-08-03T12:16:08.000Z</time>
      </trkpt>
      <trkpt lat="45.05585" lon="5.92817">
        <ele>2109</ele>
        <time>2019-08-03T12:16:12.000Z</time>
      </trkpt>
      <trkpt lat="45.0559" lon="5.9282">
        <ele>2109</ele>
        <time>2019-08-03T12:16:16.000Z</time>
      </trkpt>
      <trkpt lat="45.05595" lon="5.92821">
        <ele>2109</ele>
        <time>2019-08-03T12:16:20.000Z</time>
      </trkpt>
      <trkpt lat="45.05602" lon="5.92823">
        <ele>2110</ele>
        <time>2019-08-03T12:16:27.000Z</time>
      </trkpt>
      <trkpt lat="45.05607" lon="5.92825">
        <ele>2109</ele>
        <time>2019-08-03T12:16:31.000Z</time>
      </trkpt>
      <trkpt lat="45.05611" lon="5.92835">
        <ele>2109</ele>
        <time>2019-08-03T12:16:37.000Z</time>
      </trkpt>
      <trkpt lat="45.05613" lon="5.92841">
        <ele>2109</ele>
        <time>2019-08-03T12:16:41.000Z</time>
      </trkpt>
      <trkpt lat="45.05619" lon="5.92848">
        <ele>2107</ele>
        <time>2019-08-03T12:16:49.000Z</time>
      </trkpt>
      <trkpt lat="45.05625" lon="5.92852">
        <ele>2106</ele>
        <time>2019-08-03T12:16:55.000Z</time>
      </trkpt>
      <trkpt lat="45.05635" lon="5.92856">
        <ele>2106</ele>
        <time>2019-08-03T12:17:03.000Z</time>
      </trkpt>
      <trkpt lat="45.05643" lon="5.9286">
        <ele>2106</ele>
        <time>2019-08-03T12:17:10.000Z</time>
      </trkpt>
      <trkpt lat="45.05651" lon="5.92865">
        <ele>2106</ele>
        <time>2019-08-03T12:17:17.000Z</time>
      </trkpt>
      <trkpt lat="45.05656" lon="5.92868">
        <ele>2105</ele>
        <time>2019-08-03T12:17:21.000Z</time>
      </trkpt>
      <trkpt lat="45.05665" lon="5.92877">
        <ele>2106</ele>
        <time>2019-08-03T12:17:28.000Z</time>
      </trkpt>
      <trkpt lat="45.05674" lon="5.92881">
        <ele>2106</ele>
        <time>2019-08-03T12:17:36.000Z</time>
      </trkpt>
      <trkpt lat="45.05682" lon="5.92885">
        <ele>2106</ele>
        <time>2019-08-03T12:17:42.000Z</time>
      </trkpt>
      <trkpt lat="45.05689" lon="5.92888">
        <ele>2106</ele>
        <time>2019-08-03T12:17:49.000Z</time>
      </trkpt>
      <trkpt lat="45.05695" lon="5.92889">
        <ele>2106</ele>
        <time>2019-08-03T12:18:00.000Z</time>
      </trkpt>
      <trkpt lat="45.05704" lon="5.9289">
        <ele>2105</ele>
        <time>2019-08-03T12:18:07.000Z</time>
      </trkpt>
      <trkpt lat="45.05712" lon="5.92891">
        <ele>2106</ele>
        <time>2019-08-03T12:18:14.000Z</time>
      </trkpt>
      <trkpt lat="45.05717" lon="5.92891">
        <ele>2106</ele>
        <time>2019-08-03T12:18:17.000Z</time>
      </trkpt>
      <trkpt lat="45.05724" lon="5.92896">
        <ele>2107</ele>
        <time>2019-08-03T12:18:24.000Z</time>
      </trkpt>
      <trkpt lat="45.05733" lon="5.92903">
        <ele>2106</ele>
        <time>2019-08-03T12:18:31.000Z</time>
      </trkpt>
      <trkpt lat="45.05738" lon="5.92905">
        <ele>2107</ele>
        <time>2019-08-03T12:18:35.000Z</time>
      </trkpt>
      <trkpt lat="45.05747" lon="5.92907">
        <ele>2106</ele>
        <time>2019-08-03T12:18:42.000Z</time>
      </trkpt>
      <trkpt lat="45.05751" lon="5.92907">
        <ele>2106</ele>
        <time>2019-08-03T12:18:45.000Z</time>
      </trkpt>
      <trkpt lat="45.0576" lon="5.92907">
        <ele>2105</ele>
        <time>2019-08-03T12:18:52.000Z</time>
      </trkpt>
      <trkpt lat="45.05769" lon="5.92909">
        <ele>2104</ele>
        <time>2019-08-03T12:18:59.000Z</time>
      </trkpt>
      <trkpt lat="45.05778" lon="5.92911">
        <ele>2104</ele>
        <time>2019-08-03T12:19:06.000Z</time>
      </trkpt>
      <trkpt lat="45.05783" lon="5.92911">
        <ele>2103</ele>
        <time>2019-08-03T12:19:10.000Z</time>
      </trkpt>
      <trkpt lat="45.05792" lon="5.92909">
        <ele>2103</ele>
        <time>2019-08-03T12:19:24.000Z</time>
      </trkpt>
      <trkpt lat="45.05797" lon="5.92908">
        <ele>2103</ele>
        <time>2019-08-03T12:19:28.000Z</time>
      </trkpt>
      <trkpt lat="45.05804" lon="5.92902">
        <ele>2106</ele>
        <time>2019-08-03T12:19:36.000Z</time>
      </trkpt>
      <trkpt lat="45.05812" lon="5.92895">
        <ele>2105</ele>
        <time>2019-08-03T12:19:43.000Z</time>
      </trkpt>
      <trkpt lat="45.05818" lon="5.92893">
        <ele>2107</ele>
        <time>2019-08-03T12:19:50.000Z</time>
      </trkpt>
      <trkpt lat="45.05824" lon="5.92894">
        <ele>2107</ele>
        <time>2019-08-03T12:19:54.000Z</time>
      </trkpt>
      <trkpt lat="45.05829" lon="5.92893">
        <ele>2106</ele>
        <time>2019-08-03T12:19:58.000Z</time>
      </trkpt>
      <trkpt lat="45.05834" lon="5.92892">
        <ele>2105</ele>
        <time>2019-08-03T12:20:02.000Z</time>
      </trkpt>
      <trkpt lat="45.0584" lon="5.92889">
        <ele>2106</ele>
        <time>2019-08-03T12:20:06.000Z</time>
      </trkpt>
      <trkpt lat="45.05844" lon="5.92885">
        <ele>2106</ele>
        <time>2019-08-03T12:20:10.000Z</time>
      </trkpt>
      <trkpt lat="45.05853" lon="5.92882">
        <ele>2104</ele>
        <time>2019-08-03T12:20:18.000Z</time>
      </trkpt>
      <trkpt lat="45.05858" lon="5.92883">
        <ele>2104</ele>
        <time>2019-08-03T12:20:21.000Z</time>
      </trkpt>
      <trkpt lat="45.05863" lon="5.92883">
        <ele>2105</ele>
        <time>2019-08-03T12:20:25.000Z</time>
      </trkpt>
      <trkpt lat="45.05869" lon="5.92883">
        <ele>2104</ele>
        <time>2019-08-03T12:20:29.000Z</time>
      </trkpt>
      <trkpt lat="45.05874" lon="5.92887">
        <ele>2103</ele>
        <time>2019-08-03T12:20:33.000Z</time>
      </trkpt>
      <trkpt lat="45.05878" lon="5.92891">
        <ele>2102</ele>
        <time>2019-08-03T12:20:36.000Z</time>
      </trkpt>
      <trkpt lat="45.05878" lon="5.92897">
        <ele>2103</ele>
        <time>2019-08-03T12:20:50.000Z</time>
      </trkpt>
      <trkpt lat="45.05886" lon="5.92896">
        <ele>2104</ele>
        <time>2019-08-03T12:22:10.000Z</time>
      </trkpt>
      <trkpt lat="45.05891" lon="5.92903">
        <ele>2102</ele>
        <time>2019-08-03T12:22:16.000Z</time>
      </trkpt>
      <trkpt lat="45.05894" lon="5.92909">
        <ele>2102</ele>
        <time>2019-08-03T12:22:20.000Z</time>
      </trkpt>
      <trkpt lat="45.05899" lon="5.92916">
        <ele>2102</ele>
        <time>2019-08-03T12:22:24.000Z</time>
      </trkpt>
      <trkpt lat="45.05907" lon="5.9292">
        <ele>2101</ele>
        <time>2019-08-03T12:22:31.000Z</time>
      </trkpt>
      <trkpt lat="45.05912" lon="5.92922">
        <ele>2104</ele>
        <time>2019-08-03T12:22:34.000Z</time>
      </trkpt>
      <trkpt lat="45.05917" lon="5.92924">
        <ele>2104</ele>
        <time>2019-08-03T12:22:38.000Z</time>
      </trkpt>
      <trkpt lat="45.05922" lon="5.92927">
        <ele>2104</ele>
        <time>2019-08-03T12:22:42.000Z</time>
      </trkpt>
      <trkpt lat="45.05926" lon="5.9293">
        <ele>2105</ele>
        <time>2019-08-03T12:22:46.000Z</time>
      </trkpt>
      <trkpt lat="45.05931" lon="5.92933">
        <ele>2105</ele>
        <time>2019-08-03T12:22:50.000Z</time>
      </trkpt>
      <trkpt lat="45.05926" lon="5.92938">
        <ele>2106</ele>
        <time>2019-08-03T12:23:00.000Z</time>
      </trkpt>
      <trkpt lat="45.05921" lon="5.92941">
        <ele>2108</ele>
        <time>2019-08-03T12:24:07.000Z</time>
      </trkpt>
      <trkpt lat="45.05917" lon="5.92952">
        <ele>2108</ele>
        <time>2019-08-03T12:24:14.000Z</time>
      </trkpt>
      <trkpt lat="45.05913" lon="5.92966">
        <ele>2106</ele>
        <time>2019-08-03T12:24:21.000Z</time>
      </trkpt>
      <trkpt lat="45.05911" lon="5.92978">
        <ele>2106</ele>
        <time>2019-08-03T12:24:28.000Z</time>
      </trkpt>
      <trkpt lat="45.05905" lon="5.9299">
        <ele>2106</ele>
        <time>2019-08-03T12:24:36.000Z</time>
      </trkpt>
      <trkpt lat="45.05908" lon="5.92999">
        <ele>2106</ele>
        <time>2019-08-03T12:24:42.000Z</time>
      </trkpt>
      <trkpt lat="45.05914" lon="5.93002">
        <ele>2106</ele>
        <time>2019-08-03T12:24:46.000Z</time>
      </trkpt>
      <trkpt lat="45.05919" lon="5.93006">
        <ele>2106</ele>
        <time>2019-08-03T12:24:50.000Z</time>
      </trkpt>
      <trkpt lat="45.05923" lon="5.93008">
        <ele>2105</ele>
        <time>2019-08-03T12:24:53.000Z</time>
      </trkpt>
      <trkpt lat="45.05928" lon="5.93012">
        <ele>2106</ele>
        <time>2019-08-03T12:24:57.000Z</time>
      </trkpt>
      <trkpt lat="45.05933" lon="5.93012">
        <ele>2106</ele>
        <time>2019-08-03T12:25:01.000Z</time>
      </trkpt>
      <trkpt lat="45.05943" lon="5.93011">
        <ele>2105</ele>
        <time>2019-08-03T12:25:08.000Z</time>
      </trkpt>
      <trkpt lat="45.05948" lon="5.93015">
        <ele>2104</ele>
        <time>2019-08-03T12:25:12.000Z</time>
      </trkpt>
      <trkpt lat="45.05953" lon="5.93013">
        <ele>2104</ele>
        <time>2019-08-03T12:25:16.000Z</time>
      </trkpt>
      <trkpt lat="45.05963" lon="5.93007">
        <ele>2104</ele>
        <time>2019-08-03T12:25:23.000Z</time>
      </trkpt>
      <trkpt lat="45.05969" lon="5.93006">
        <ele>2103</ele>
        <time>2019-08-03T12:25:27.000Z</time>
      </trkpt>
      <trkpt lat="45.05975" lon="5.93004">
        <ele>2104</ele>
        <time>2019-08-03T12:25:31.000Z</time>
      </trkpt>
      <trkpt lat="45.05981" lon="5.93003">
        <ele>2104</ele>
        <time>2019-08-03T12:25:35.000Z</time>
      </trkpt>
      <trkpt lat="45.05986" lon="5.93003">
        <ele>2103</ele>
        <time>2019-08-03T12:25:39.000Z</time>
      </trkpt>
      <trkpt lat="45.05995" lon="5.93001">
        <ele>2102</ele>
        <time>2019-08-03T12:25:46.000Z</time>
      </trkpt>
      <trkpt lat="45.06004" lon="5.92997">
        <ele>2101</ele>
        <time>2019-08-03T12:25:53.000Z</time>
      </trkpt>
      <trkpt lat="45.06015" lon="5.92989">
        <ele>2101</ele>
        <time>2019-08-03T12:26:00.000Z</time>
      </trkpt>
      <trkpt lat="45.06021" lon="5.92986">
        <ele>2101</ele>
        <time>2019-08-03T12:26:04.000Z</time>
      </trkpt>
      <trkpt lat="45.06024" lon="5.92982">
        <ele>2101</ele>
        <time>2019-08-03T12:26:08.000Z</time>
      </trkpt>
      <trkpt lat="45.06029" lon="5.92975">
        <ele>2101</ele>
        <time>2019-08-03T12:26:12.000Z</time>
      </trkpt>
      <trkpt lat="45.06038" lon="5.92967">
        <ele>2101</ele>
        <time>2019-08-03T12:26:19.000Z</time>
      </trkpt>
      <trkpt lat="45.06043" lon="5.92963">
        <ele>2100</ele>
        <time>2019-08-03T12:26:23.000Z</time>
      </trkpt>
      <trkpt lat="45.06049" lon="5.92957">
        <ele>2100</ele>
        <time>2019-08-03T12:26:29.000Z</time>
      </trkpt>
      <trkpt lat="45.06054" lon="5.92953">
        <ele>2100</ele>
        <time>2019-08-03T12:26:33.000Z</time>
      </trkpt>
      <trkpt lat="45.06059" lon="5.92951">
        <ele>2099</ele>
        <time>2019-08-03T12:26:37.000Z</time>
      </trkpt>
      <trkpt lat="45.06065" lon="5.9295">
        <ele>2099</ele>
        <time>2019-08-03T12:26:40.000Z</time>
      </trkpt>
      <trkpt lat="45.0607" lon="5.92949">
        <ele>2098</ele>
        <time>2019-08-03T12:26:44.000Z</time>
      </trkpt>
      <trkpt lat="45.0608" lon="5.92951">
        <ele>2098</ele>
        <time>2019-08-03T12:26:51.000Z</time>
      </trkpt>
      <trkpt lat="45.06085" lon="5.92951">
        <ele>2099</ele>
        <time>2019-08-03T12:26:54.000Z</time>
      </trkpt>
      <trkpt lat="45.0609" lon="5.92951">
        <ele>2098</ele>
        <time>2019-08-03T12:26:58.000Z</time>
      </trkpt>
      <trkpt lat="45.06098" lon="5.92951">
        <ele>2098</ele>
        <time>2019-08-03T12:27:04.000Z</time>
      </trkpt>
      <trkpt lat="45.06102" lon="5.92953">
        <ele>2097</ele>
        <time>2019-08-03T12:27:07.000Z</time>
      </trkpt>
      <trkpt lat="45.06112" lon="5.92956">
        <ele>2097</ele>
        <time>2019-08-03T12:27:14.000Z</time>
      </trkpt>
      <trkpt lat="45.06118" lon="5.92957">
        <ele>2096</ele>
        <time>2019-08-03T12:27:18.000Z</time>
      </trkpt>
      <trkpt lat="45.06124" lon="5.92959">
        <ele>2096</ele>
        <time>2019-08-03T12:27:22.000Z</time>
      </trkpt>
      <trkpt lat="45.06129" lon="5.92961">
        <ele>2095</ele>
        <time>2019-08-03T12:27:26.000Z</time>
      </trkpt>
      <trkpt lat="45.06134" lon="5.92963">
        <ele>2095</ele>
        <time>2019-08-03T12:27:29.000Z</time>
      </trkpt>
      <trkpt lat="45.06139" lon="5.92966">
        <ele>2094</ele>
        <time>2019-08-03T12:27:33.000Z</time>
      </trkpt>
      <trkpt lat="45.06144" lon="5.92967">
        <ele>2093</ele>
        <time>2019-08-03T12:27:37.000Z</time>
      </trkpt>
      <trkpt lat="45.06153" lon="5.92969">
        <ele>2093</ele>
        <time>2019-08-03T12:27:44.000Z</time>
      </trkpt>
      <trkpt lat="45.06158" lon="5.92968">
        <ele>2092</ele>
        <time>2019-08-03T12:27:48.000Z</time>
      </trkpt>
      <trkpt lat="45.06164" lon="5.92971">
        <ele>2091</ele>
        <time>2019-08-03T12:27:52.000Z</time>
      </trkpt>
      <trkpt lat="45.06169" lon="5.92974">
        <ele>2091</ele>
        <time>2019-08-03T12:27:56.000Z</time>
      </trkpt>
      <trkpt lat="45.06177" lon="5.92982">
        <ele>2091</ele>
        <time>2019-08-03T12:28:03.000Z</time>
      </trkpt>
      <trkpt lat="45.06181" lon="5.92986">
        <ele>2090</ele>
        <time>2019-08-03T12:28:07.000Z</time>
      </trkpt>
      <trkpt lat="45.06188" lon="5.92992">
        <ele>2089</ele>
        <time>2019-08-03T12:28:13.000Z</time>
      </trkpt>
      <trkpt lat="45.0619" lon="5.92998">
        <ele>2089</ele>
        <time>2019-08-03T12:28:17.000Z</time>
      </trkpt>
      <trkpt lat="45.06197" lon="5.93006">
        <ele>2090</ele>
        <time>2019-08-03T12:28:24.000Z</time>
      </trkpt>
      <trkpt lat="45.06204" lon="5.93009">
        <ele>2090</ele>
        <time>2019-08-03T12:28:28.000Z</time>
      </trkpt>
      <trkpt lat="45.06211" lon="5.93018">
        <ele>2090</ele>
        <time>2019-08-03T12:28:35.000Z</time>
      </trkpt>
      <trkpt lat="45.06214" lon="5.93025">
        <ele>2090</ele>
        <time>2019-08-03T12:28:49.000Z</time>
      </trkpt>
      <trkpt lat="45.06216" lon="5.93033">
        <ele>2091</ele>
        <time>2019-08-03T12:28:55.000Z</time>
      </trkpt>
      <trkpt lat="45.06224" lon="5.93037">
        <ele>2090</ele>
        <time>2019-08-03T12:29:01.000Z</time>
      </trkpt>
      <trkpt lat="45.06232" lon="5.93042">
        <ele>2090</ele>
        <time>2019-08-03T12:29:07.000Z</time>
      </trkpt>
      <trkpt lat="45.06242" lon="5.93046">
        <ele>2090</ele>
        <time>2019-08-03T12:29:14.000Z</time>
      </trkpt>
      <trkpt lat="45.0625" lon="5.93054">
        <ele>2091</ele>
        <time>2019-08-03T12:29:21.000Z</time>
      </trkpt>
      <trkpt lat="45.06255" lon="5.93057">
        <ele>2091</ele>
        <time>2019-08-03T12:29:25.000Z</time>
      </trkpt>
      <trkpt lat="45.06263" lon="5.93064">
        <ele>2092</ele>
        <time>2019-08-03T12:29:31.000Z</time>
      </trkpt>
      <trkpt lat="45.06267" lon="5.9307">
        <ele>2091</ele>
        <time>2019-08-03T12:29:35.000Z</time>
      </trkpt>
      <trkpt lat="45.06271" lon="5.93072">
        <ele>2092</ele>
        <time>2019-08-03T12:29:38.000Z</time>
      </trkpt>
      <trkpt lat="45.06276" lon="5.93072">
        <ele>2092</ele>
        <time>2019-08-03T12:29:42.000Z</time>
      </trkpt>
      <trkpt lat="45.06285" lon="5.93073">
        <ele>2093</ele>
        <time>2019-08-03T12:29:49.000Z</time>
      </trkpt>
      <trkpt lat="45.06291" lon="5.93074">
        <ele>2092</ele>
        <time>2019-08-03T12:29:53.000Z</time>
      </trkpt>
      <trkpt lat="45.06298" lon="5.93074">
        <ele>2091</ele>
        <time>2019-08-03T12:29:57.000Z</time>
      </trkpt>
      <trkpt lat="45.06303" lon="5.9307">
        <ele>2091</ele>
        <time>2019-08-03T12:30:01.000Z</time>
      </trkpt>
      <trkpt lat="45.06307" lon="5.93064">
        <ele>2092</ele>
        <time>2019-08-03T12:30:05.000Z</time>
      </trkpt>
      <trkpt lat="45.06313" lon="5.93066">
        <ele>2092</ele>
        <time>2019-08-03T12:30:12.000Z</time>
      </trkpt>
      <trkpt lat="45.06316" lon="5.93071">
        <ele>2093</ele>
        <time>2019-08-03T12:30:16.000Z</time>
      </trkpt>
      <trkpt lat="45.06323" lon="5.93073">
        <ele>2094</ele>
        <time>2019-08-03T12:30:24.000Z</time>
      </trkpt>
      <trkpt lat="45.06331" lon="5.93073">
        <ele>2095</ele>
        <time>2019-08-03T12:30:30.000Z</time>
      </trkpt>
      <trkpt lat="45.06336" lon="5.93073">
        <ele>2096</ele>
        <time>2019-08-03T12:30:34.000Z</time>
      </trkpt>
      <trkpt lat="45.06345" lon="5.93075">
        <ele>2096</ele>
        <time>2019-08-03T12:30:42.000Z</time>
      </trkpt>
      <trkpt lat="45.0635" lon="5.93074">
        <ele>2097</ele>
        <time>2019-08-03T12:30:46.000Z</time>
      </trkpt>
      <trkpt lat="45.06355" lon="5.93073">
        <ele>2098</ele>
        <time>2019-08-03T12:30:50.000Z</time>
      </trkpt>
      <trkpt lat="45.06359" lon="5.93068">
        <ele>2098</ele>
        <time>2019-08-03T12:30:53.000Z</time>
      </trkpt>
      <trkpt lat="45.06366" lon="5.93063">
        <ele>2098</ele>
        <time>2019-08-03T12:30:59.000Z</time>
      </trkpt>
      <trkpt lat="45.0637" lon="5.93058">
        <ele>2096</ele>
        <time>2019-08-03T12:31:02.000Z</time>
      </trkpt>
      <trkpt lat="45.06376" lon="5.93052">
        <ele>2094</ele>
        <time>2019-08-03T12:31:10.000Z</time>
      </trkpt>
      <trkpt lat="45.06374" lon="5.93043">
        <ele>2094</ele>
        <time>2019-08-03T12:31:17.000Z</time>
      </trkpt>
      <trkpt lat="45.0637" lon="5.93035">
        <ele>2095</ele>
        <time>2019-08-03T12:31:24.000Z</time>
      </trkpt>
      <trkpt lat="45.06367" lon="5.93029">
        <ele>2093</ele>
        <time>2019-08-03T12:31:28.000Z</time>
      </trkpt>
      <trkpt lat="45.06366" lon="5.93017">
        <ele>2090</ele>
        <time>2019-08-03T12:31:35.000Z</time>
      </trkpt>
      <trkpt lat="45.06368" lon="5.93011">
        <ele>2088</ele>
        <time>2019-08-03T12:31:42.000Z</time>
      </trkpt>
      <trkpt lat="45.06371" lon="5.93001">
        <ele>2088</ele>
        <time>2019-08-03T12:31:49.000Z</time>
      </trkpt>
      <trkpt lat="45.06368" lon="5.92996">
        <ele>2089</ele>
        <time>2019-08-03T12:31:53.000Z</time>
      </trkpt>
      <trkpt lat="45.06372" lon="5.92992">
        <ele>2088</ele>
        <time>2019-08-03T12:32:00.000Z</time>
      </trkpt>
      <trkpt lat="45.06378" lon="5.92992">
        <ele>2086</ele>
        <time>2019-08-03T12:32:07.000Z</time>
      </trkpt>
      <trkpt lat="45.0638" lon="5.92984">
        <ele>2084</ele>
        <time>2019-08-03T12:32:14.000Z</time>
      </trkpt>
      <trkpt lat="45.0638" lon="5.92975">
        <ele>2082</ele>
        <time>2019-08-03T12:32:22.000Z</time>
      </trkpt>
      <trkpt lat="45.06381" lon="5.92968">
        <ele>2078</ele>
        <time>2019-08-03T12:32:30.000Z</time>
      </trkpt>
      <trkpt lat="45.06382" lon="5.92962">
        <ele>2076</ele>
        <time>2019-08-03T12:32:36.000Z</time>
      </trkpt>
      <trkpt lat="45.06387" lon="5.92963">
        <ele>2075</ele>
        <time>2019-08-03T12:32:46.000Z</time>
      </trkpt>
      <trkpt lat="45.06385" lon="5.92955">
        <ele>2071</ele>
        <time>2019-08-03T12:32:53.000Z</time>
      </trkpt>
      <trkpt lat="45.06379" lon="5.92948">
        <ele>2068</ele>
        <time>2019-08-03T12:33:00.000Z</time>
      </trkpt>
      <trkpt lat="45.06379" lon="5.92939">
        <ele>2066</ele>
        <time>2019-08-03T12:33:06.000Z</time>
      </trkpt>
      <trkpt lat="45.06374" lon="5.9293">
        <ele>2066</ele>
        <time>2019-08-03T12:33:14.000Z</time>
      </trkpt>
      <trkpt lat="45.0638" lon="5.92924">
        <ele>2064</ele>
        <time>2019-08-03T12:33:21.000Z</time>
      </trkpt>
      <trkpt lat="45.06386" lon="5.92916">
        <ele>2063</ele>
        <time>2019-08-03T12:33:28.000Z</time>
      </trkpt>
      <trkpt lat="45.06389" lon="5.92908">
        <ele>2060</ele>
        <time>2019-08-03T12:33:35.000Z</time>
      </trkpt>
      <trkpt lat="45.06391" lon="5.92902">
        <ele>2059</ele>
        <time>2019-08-03T12:33:46.000Z</time>
      </trkpt>
      <trkpt lat="45.06388" lon="5.92893">
        <ele>2059</ele>
        <time>2019-08-03T12:33:57.000Z</time>
      </trkpt>
      <trkpt lat="45.06391" lon="5.92888">
        <ele>2057</ele>
        <time>2019-08-03T12:34:07.000Z</time>
      </trkpt>
      <trkpt lat="45.06398" lon="5.92888">
        <ele>2056</ele>
        <time>2019-08-03T12:34:14.000Z</time>
      </trkpt>
      <trkpt lat="45.06405" lon="5.9289">
        <ele>2055</ele>
        <time>2019-08-03T12:34:21.000Z</time>
      </trkpt>
      <trkpt lat="45.06409" lon="5.92898">
        <ele>2055</ele>
        <time>2019-08-03T12:34:28.000Z</time>
      </trkpt>
      <trkpt lat="45.06414" lon="5.92903">
        <ele>2053</ele>
        <time>2019-08-03T12:34:34.000Z</time>
      </trkpt>
      <trkpt lat="45.06422" lon="5.92903">
        <ele>2052</ele>
        <time>2019-08-03T12:34:41.000Z</time>
      </trkpt>
      <trkpt lat="45.0643" lon="5.92904">
        <ele>2050</ele>
        <time>2019-08-03T12:34:48.000Z</time>
      </trkpt>
      <trkpt lat="45.06435" lon="5.92907">
        <ele>2047</ele>
        <time>2019-08-03T12:34:54.000Z</time>
      </trkpt>
      <trkpt lat="45.06442" lon="5.92908">
        <ele>2045</ele>
        <time>2019-08-03T12:35:01.000Z</time>
      </trkpt>
      <trkpt lat="45.06448" lon="5.92908">
        <ele>2044</ele>
        <time>2019-08-03T12:35:08.000Z</time>
      </trkpt>
      <trkpt lat="45.06452" lon="5.92913">
        <ele>2043</ele>
        <time>2019-08-03T12:35:14.000Z</time>
      </trkpt>
      <trkpt lat="45.06459" lon="5.92917">
        <ele>2041</ele>
        <time>2019-08-03T12:35:22.000Z</time>
      </trkpt>
      <trkpt lat="45.06465" lon="5.92922">
        <ele>2038</ele>
        <time>2019-08-03T12:35:29.000Z</time>
      </trkpt>
      <trkpt lat="45.0647" lon="5.92924">
        <ele>2036</ele>
        <time>2019-08-03T12:35:35.000Z</time>
      </trkpt>
      <trkpt lat="45.06475" lon="5.92929">
        <ele>2035</ele>
        <time>2019-08-03T12:35:43.000Z</time>
      </trkpt>
      <trkpt lat="45.0648" lon="5.92931">
        <ele>2033</ele>
        <time>2019-08-03T12:35:47.000Z</time>
      </trkpt>
      <trkpt lat="45.06485" lon="5.92937">
        <ele>2033</ele>
        <time>2019-08-03T12:35:54.000Z</time>
      </trkpt>
      <trkpt lat="45.06492" lon="5.92936">
        <ele>2032</ele>
        <time>2019-08-03T12:36:00.000Z</time>
      </trkpt>
      <trkpt lat="45.06502" lon="5.92936">
        <ele>2032</ele>
        <time>2019-08-03T12:36:07.000Z</time>
      </trkpt>
      <trkpt lat="45.0651" lon="5.92939">
        <ele>2029</ele>
        <time>2019-08-03T12:36:14.000Z</time>
      </trkpt>
      <trkpt lat="45.06515" lon="5.92941">
        <ele>2027</ele>
        <time>2019-08-03T12:36:18.000Z</time>
      </trkpt>
      <trkpt lat="45.06524" lon="5.9295">
        <ele>2025</ele>
        <time>2019-08-03T12:36:25.000Z</time>
      </trkpt>
      <trkpt lat="45.0653" lon="5.92955">
        <ele>2023</ele>
        <time>2019-08-03T12:36:31.000Z</time>
      </trkpt>
      <trkpt lat="45.06537" lon="5.92957">
        <ele>2022</ele>
        <time>2019-08-03T12:36:38.000Z</time>
      </trkpt>
      <trkpt lat="45.06541" lon="5.9296">
        <ele>2020</ele>
        <time>2019-08-03T12:36:44.000Z</time>
      </trkpt>
      <trkpt lat="45.06546" lon="5.92959">
        <ele>2019</ele>
        <time>2019-08-03T12:36:50.000Z</time>
      </trkpt>
      <trkpt lat="45.06554" lon="5.92959">
        <ele>2018</ele>
        <time>2019-08-03T12:36:57.000Z</time>
      </trkpt>
      <trkpt lat="45.06564" lon="5.92964">
        <ele>2016</ele>
        <time>2019-08-03T12:37:04.000Z</time>
      </trkpt>
      <trkpt lat="45.06569" lon="5.9297">
        <ele>2015</ele>
        <time>2019-08-03T12:37:10.000Z</time>
      </trkpt>
      <trkpt lat="45.06571" lon="5.92977">
        <ele>2015</ele>
        <time>2019-08-03T12:37:14.000Z</time>
      </trkpt>
      <trkpt lat="45.06575" lon="5.92983">
        <ele>2015</ele>
        <time>2019-08-03T12:37:18.000Z</time>
      </trkpt>
      <trkpt lat="45.06579" lon="5.92986">
        <ele>2015</ele>
        <time>2019-08-03T12:37:21.000Z</time>
      </trkpt>
      <trkpt lat="45.06585" lon="5.9299">
        <ele>2014</ele>
        <time>2019-08-03T12:37:28.000Z</time>
      </trkpt>
      <trkpt lat="45.0659" lon="5.92993">
        <ele>2014</ele>
        <time>2019-08-03T12:37:35.000Z</time>
      </trkpt>
      <trkpt lat="45.06597" lon="5.92996">
        <ele>2013</ele>
        <time>2019-08-03T12:37:42.000Z</time>
      </trkpt>
      <trkpt lat="45.06602" lon="5.92988">
        <ele>2013</ele>
        <time>2019-08-03T12:37:49.000Z</time>
      </trkpt>
      <trkpt lat="45.06604" lon="5.9298">
        <ele>2012</ele>
        <time>2019-08-03T12:37:53.000Z</time>
      </trkpt>
      <trkpt lat="45.06606" lon="5.92974">
        <ele>2013</ele>
        <time>2019-08-03T12:37:56.000Z</time>
      </trkpt>
      <trkpt lat="45.06602" lon="5.92964">
        <ele>2011</ele>
        <time>2019-08-03T12:38:03.000Z</time>
      </trkpt>
      <trkpt lat="45.06599" lon="5.92958">
        <ele>2011</ele>
        <time>2019-08-03T12:38:07.000Z</time>
      </trkpt>
      <trkpt lat="45.06595" lon="5.92951">
        <ele>2011</ele>
        <time>2019-08-03T12:38:11.000Z</time>
      </trkpt>
      <trkpt lat="45.06593" lon="5.92944">
        <ele>2011</ele>
        <time>2019-08-03T12:38:18.000Z</time>
      </trkpt>
      <trkpt lat="45.0659" lon="5.92933">
        <ele>2010</ele>
        <time>2019-08-03T12:38:25.000Z</time>
      </trkpt>
      <trkpt lat="45.06588" lon="5.92925">
        <ele>2008</ele>
        <time>2019-08-03T12:38:29.000Z</time>
      </trkpt>
      <trkpt lat="45.0659" lon="5.92916">
        <ele>2007</ele>
        <time>2019-08-03T12:38:33.000Z</time>
      </trkpt>
      <trkpt lat="45.06591" lon="5.92909">
        <ele>2007</ele>
        <time>2019-08-03T12:38:36.000Z</time>
      </trkpt>
      <trkpt lat="45.06593" lon="5.92901">
        <ele>2008</ele>
        <time>2019-08-03T12:38:40.000Z</time>
      </trkpt>
      <trkpt lat="45.06593" lon="5.92894">
        <ele>2008</ele>
        <time>2019-08-03T12:38:44.000Z</time>
      </trkpt>
      <trkpt lat="45.06589" lon="5.92882">
        <ele>2007</ele>
        <time>2019-08-03T12:38:51.000Z</time>
      </trkpt>
      <trkpt lat="45.06587" lon="5.92875">
        <ele>2007</ele>
        <time>2019-08-03T12:38:54.000Z</time>
      </trkpt>
      <trkpt lat="45.06585" lon="5.92868">
        <ele>2007</ele>
        <time>2019-08-03T12:38:57.000Z</time>
      </trkpt>
      <trkpt lat="45.06584" lon="5.92856">
        <ele>2007</ele>
        <time>2019-08-03T12:39:04.000Z</time>
      </trkpt>
      <trkpt lat="45.06583" lon="5.92849">
        <ele>2006</ele>
        <time>2019-08-03T12:39:07.000Z</time>
      </trkpt>
      <trkpt lat="45.06581" lon="5.92839">
        <ele>2004</ele>
        <time>2019-08-03T12:39:13.000Z</time>
      </trkpt>
      <trkpt lat="45.06579" lon="5.92832">
        <ele>2003</ele>
        <time>2019-08-03T12:39:16.000Z</time>
      </trkpt>
      <trkpt lat="45.06579" lon="5.92824">
        <ele>2004</ele>
        <time>2019-08-03T12:39:19.000Z</time>
      </trkpt>
      <trkpt lat="45.06581" lon="5.92818">
        <ele>2002</ele>
        <time>2019-08-03T12:39:22.000Z</time>
      </trkpt>
      <trkpt lat="45.06583" lon="5.92809">
        <ele>2003</ele>
        <time>2019-08-03T12:39:26.000Z</time>
      </trkpt>
      <trkpt lat="45.06584" lon="5.92801">
        <ele>2003</ele>
        <time>2019-08-03T12:39:30.000Z</time>
      </trkpt>
      <trkpt lat="45.06584" lon="5.92794">
        <ele>2002</ele>
        <time>2019-08-03T12:39:33.000Z</time>
      </trkpt>
      <trkpt lat="45.06583" lon="5.92779">
        <ele>2001</ele>
        <time>2019-08-03T12:39:40.000Z</time>
      </trkpt>
      <trkpt lat="45.06582" lon="5.92772">
        <ele>2000</ele>
        <time>2019-08-03T12:39:43.000Z</time>
      </trkpt>
      <trkpt lat="45.06585" lon="5.92766">
        <ele>1999</ele>
        <time>2019-08-03T12:39:47.000Z</time>
      </trkpt>
      <trkpt lat="45.06589" lon="5.92761">
        <ele>1999</ele>
        <time>2019-08-03T12:39:50.000Z</time>
      </trkpt>
      <trkpt lat="45.06587" lon="5.92746">
        <ele>1996</ele>
        <time>2019-08-03T12:39:57.000Z</time>
      </trkpt>
      <trkpt lat="45.06586" lon="5.92738">
        <ele>1997</ele>
        <time>2019-08-03T12:40:01.000Z</time>
      </trkpt>
      <trkpt lat="45.06585" lon="5.9273">
        <ele>1996</ele>
        <time>2019-08-03T12:40:05.000Z</time>
      </trkpt>
      <trkpt lat="45.06584" lon="5.92723">
        <ele>1996</ele>
        <time>2019-08-03T12:40:09.000Z</time>
      </trkpt>
      <trkpt lat="45.06585" lon="5.92717">
        <ele>1995</ele>
        <time>2019-08-03T12:40:12.000Z</time>
      </trkpt>
      <trkpt lat="45.06587" lon="5.92711">
        <ele>1995</ele>
        <time>2019-08-03T12:40:15.000Z</time>
      </trkpt>
      <trkpt lat="45.06589" lon="5.92704">
        <ele>1995</ele>
        <time>2019-08-03T12:40:19.000Z</time>
      </trkpt>
      <trkpt lat="45.06593" lon="5.92699">
        <ele>1995</ele>
        <time>2019-08-03T12:40:23.000Z</time>
      </trkpt>
      <trkpt lat="45.06594" lon="5.92691">
        <ele>1993</ele>
        <time>2019-08-03T12:40:31.000Z</time>
      </trkpt>
      <trkpt lat="45.06596" lon="5.92679">
        <ele>1991</ele>
        <time>2019-08-03T12:40:39.000Z</time>
      </trkpt>
      <trkpt lat="45.06597" lon="5.92668">
        <ele>1990</ele>
        <time>2019-08-03T12:40:45.000Z</time>
      </trkpt>
      <trkpt lat="45.06601" lon="5.92662">
        <ele>1989</ele>
        <time>2019-08-03T12:40:49.000Z</time>
      </trkpt>
      <trkpt lat="45.06604" lon="5.92655">
        <ele>1988</ele>
        <time>2019-08-03T12:40:53.000Z</time>
      </trkpt>
      <trkpt lat="45.06607" lon="5.9265">
        <ele>1988</ele>
        <time>2019-08-03T12:40:56.000Z</time>
      </trkpt>
      <trkpt lat="45.06612" lon="5.92645">
        <ele>1988</ele>
        <time>2019-08-03T12:41:00.000Z</time>
      </trkpt>
      <trkpt lat="45.06617" lon="5.92639">
        <ele>1988</ele>
        <time>2019-08-03T12:41:04.000Z</time>
      </trkpt>
      <trkpt lat="45.06624" lon="5.92631">
        <ele>1986</ele>
        <time>2019-08-03T12:41:08.000Z</time>
      </trkpt>
      <trkpt lat="45.0663" lon="5.92625">
        <ele>1985</ele>
        <time>2019-08-03T12:41:15.000Z</time>
      </trkpt>
      <trkpt lat="45.06633" lon="5.92619">
        <ele>1985</ele>
        <time>2019-08-03T12:41:19.000Z</time>
      </trkpt>
      <trkpt lat="45.06639" lon="5.92615">
        <ele>1986</ele>
        <time>2019-08-03T12:41:23.000Z</time>
      </trkpt>
      <trkpt lat="45.06644" lon="5.9261">
        <ele>1986</ele>
        <time>2019-08-03T12:41:27.000Z</time>
      </trkpt>
      <trkpt lat="45.06648" lon="5.92604">
        <ele>1986</ele>
        <time>2019-08-03T12:41:31.000Z</time>
      </trkpt>
      <trkpt lat="45.06652" lon="5.92597">
        <ele>1985</ele>
        <time>2019-08-03T12:41:35.000Z</time>
      </trkpt>
      <trkpt lat="45.06657" lon="5.92591">
        <ele>1984</ele>
        <time>2019-08-03T12:41:39.000Z</time>
      </trkpt>
      <trkpt lat="45.06662" lon="5.92582">
        <ele>1984</ele>
        <time>2019-08-03T12:41:45.000Z</time>
      </trkpt>
      <trkpt lat="45.06665" lon="5.92578">
        <ele>1983</ele>
        <time>2019-08-03T12:41:48.000Z</time>
      </trkpt>
      <trkpt lat="45.0667" lon="5.92568">
        <ele>1982</ele>
        <time>2019-08-03T12:41:55.000Z</time>
      </trkpt>
      <trkpt lat="45.06674" lon="5.92564">
        <ele>1984</ele>
        <time>2019-08-03T12:41:58.000Z</time>
      </trkpt>
      <trkpt lat="45.06679" lon="5.9256">
        <ele>1984</ele>
        <time>2019-08-03T12:42:02.000Z</time>
      </trkpt>
      <trkpt lat="45.06687" lon="5.92551">
        <ele>1983</ele>
        <time>2019-08-03T12:42:09.000Z</time>
      </trkpt>
      <trkpt lat="45.0669" lon="5.92545">
        <ele>1984</ele>
        <time>2019-08-03T12:42:13.000Z</time>
      </trkpt>
      <trkpt lat="45.06692" lon="5.92534">
        <ele>1983</ele>
        <time>2019-08-03T12:42:20.000Z</time>
      </trkpt>
      <trkpt lat="45.06695" lon="5.92527">
        <ele>1982</ele>
        <time>2019-08-03T12:42:24.000Z</time>
      </trkpt>
      <trkpt lat="45.067" lon="5.92514">
        <ele>1981</ele>
        <time>2019-08-03T12:42:31.000Z</time>
      </trkpt>
      <trkpt lat="45.06704" lon="5.925">
        <ele>1981</ele>
        <time>2019-08-03T12:42:38.000Z</time>
      </trkpt>
      <trkpt lat="45.06706" lon="5.92491">
        <ele>1980</ele>
        <time>2019-08-03T12:42:42.000Z</time>
      </trkpt>
      <trkpt lat="45.06707" lon="5.92485">
        <ele>1980</ele>
        <time>2019-08-03T12:42:45.000Z</time>
      </trkpt>
      <trkpt lat="45.06712" lon="5.92473">
        <ele>1979</ele>
        <time>2019-08-03T12:42:52.000Z</time>
      </trkpt>
      <trkpt lat="45.06713" lon="5.92465">
        <ele>1979</ele>
        <time>2019-08-03T12:42:56.000Z</time>
      </trkpt>
      <trkpt lat="45.06716" lon="5.92459">
        <ele>1978</ele>
        <time>2019-08-03T12:43:00.000Z</time>
      </trkpt>
      <trkpt lat="45.06718" lon="5.92444">
        <ele>1976</ele>
        <time>2019-08-03T12:43:07.000Z</time>
      </trkpt>
      <trkpt lat="45.06719" lon="5.92433">
        <ele>1975</ele>
        <time>2019-08-03T12:43:14.000Z</time>
      </trkpt>
      <trkpt lat="45.06721" lon="5.92427">
        <ele>1974</ele>
        <time>2019-08-03T12:43:22.000Z</time>
      </trkpt>
      <trkpt lat="45.06724" lon="5.92416">
        <ele>1972</ele>
        <time>2019-08-03T12:43:29.000Z</time>
      </trkpt>
      <trkpt lat="45.06727" lon="5.92405">
        <ele>1970</ele>
        <time>2019-08-03T12:43:36.000Z</time>
      </trkpt>
      <trkpt lat="45.06728" lon="5.92397">
        <ele>1970</ele>
        <time>2019-08-03T12:43:40.000Z</time>
      </trkpt>
      <trkpt lat="45.06729" lon="5.92388">
        <ele>1968</ele>
        <time>2019-08-03T12:43:44.000Z</time>
      </trkpt>
      <trkpt lat="45.06731" lon="5.92382">
        <ele>1968</ele>
        <time>2019-08-03T12:43:47.000Z</time>
      </trkpt>
      <trkpt lat="45.06735" lon="5.92378">
        <ele>1967</ele>
        <time>2019-08-03T12:43:51.000Z</time>
      </trkpt>
      <trkpt lat="45.0674" lon="5.92369">
        <ele>1966</ele>
        <time>2019-08-03T12:43:58.000Z</time>
      </trkpt>
      <trkpt lat="45.06746" lon="5.92362">
        <ele>1965</ele>
        <time>2019-08-03T12:44:05.000Z</time>
      </trkpt>
      <trkpt lat="45.06754" lon="5.92359">
        <ele>1963</ele>
        <time>2019-08-03T12:44:12.000Z</time>
      </trkpt>
      <trkpt lat="45.06762" lon="5.92355">
        <ele>1962</ele>
        <time>2019-08-03T12:44:19.000Z</time>
      </trkpt>
      <trkpt lat="45.06767" lon="5.92349">
        <ele>1960</ele>
        <time>2019-08-03T12:44:23.000Z</time>
      </trkpt>
      <trkpt lat="45.06772" lon="5.92344">
        <ele>1960</ele>
        <time>2019-08-03T12:44:27.000Z</time>
      </trkpt>
      <trkpt lat="45.06776" lon="5.92337">
        <ele>1959</ele>
        <time>2019-08-03T12:44:31.000Z</time>
      </trkpt>
      <trkpt lat="45.06778" lon="5.92331">
        <ele>1959</ele>
        <time>2019-08-03T12:44:34.000Z</time>
      </trkpt>
      <trkpt lat="45.06779" lon="5.92324">
        <ele>1959</ele>
        <time>2019-08-03T12:44:37.000Z</time>
      </trkpt>
      <trkpt lat="45.06779" lon="5.92315">
        <ele>1958</ele>
        <time>2019-08-03T12:44:41.000Z</time>
      </trkpt>
      <trkpt lat="45.06778" lon="5.92307">
        <ele>1957</ele>
        <time>2019-08-03T12:44:45.000Z</time>
      </trkpt>
      <trkpt lat="45.06777" lon="5.92299">
        <ele>1957</ele>
        <time>2019-08-03T12:44:49.000Z</time>
      </trkpt>
      <trkpt lat="45.06776" lon="5.92286">
        <ele>1956</ele>
        <time>2019-08-03T12:44:56.000Z</time>
      </trkpt>
      <trkpt lat="45.06777" lon="5.92272">
        <ele>1954</ele>
        <time>2019-08-03T12:45:03.000Z</time>
      </trkpt>
      <trkpt lat="45.06777" lon="5.92265">
        <ele>1954</ele>
        <time>2019-08-03T12:45:06.000Z</time>
      </trkpt>
      <trkpt lat="45.06777" lon="5.92255">
        <ele>1954</ele>
        <time>2019-08-03T12:45:10.000Z</time>
      </trkpt>
      <trkpt lat="45.06776" lon="5.92247">
        <ele>1954</ele>
        <time>2019-08-03T12:45:14.000Z</time>
      </trkpt>
      <trkpt lat="45.06775" lon="5.92241">
        <ele>1953</ele>
        <time>2019-08-03T12:45:17.000Z</time>
      </trkpt>
      <trkpt lat="45.06773" lon="5.92233">
        <ele>1954</ele>
        <time>2019-08-03T12:45:21.000Z</time>
      </trkpt>
      <trkpt lat="45.06769" lon="5.92225">
        <ele>1953</ele>
        <time>2019-08-03T12:45:27.000Z</time>
      </trkpt>
      <trkpt lat="45.06767" lon="5.92214">
        <ele>1953</ele>
        <time>2019-08-03T12:45:34.000Z</time>
      </trkpt>
      <trkpt lat="45.06766" lon="5.92202">
        <ele>1953</ele>
        <time>2019-08-03T12:45:40.000Z</time>
      </trkpt>
      <trkpt lat="45.06765" lon="5.92195">
        <ele>1953</ele>
        <time>2019-08-03T12:45:44.000Z</time>
      </trkpt>
      <trkpt lat="45.06764" lon="5.92207">
        <ele>1951</ele>
        <time>2019-08-03T12:46:00.000Z</time>
      </trkpt>
      <trkpt lat="45.06767" lon="5.92217">
        <ele>1951</ele>
        <time>2019-08-03T12:46:07.000Z</time>
      </trkpt>
      <trkpt lat="45.06769" lon="5.92225">
        <ele>1953</ele>
        <time>2019-08-03T12:46:14.000Z</time>
      </trkpt>
      <trkpt lat="45.06771" lon="5.92231">
        <ele>1954</ele>
        <time>2019-08-03T12:46:18.000Z</time>
      </trkpt>
      <trkpt lat="45.06774" lon="5.92238">
        <ele>1954</ele>
        <time>2019-08-03T12:46:22.000Z</time>
      </trkpt>
      <trkpt lat="45.06776" lon="5.9225">
        <ele>1953</ele>
        <time>2019-08-03T12:46:28.000Z</time>
      </trkpt>
      <trkpt lat="45.06779" lon="5.9226">
        <ele>1953</ele>
        <time>2019-08-03T12:46:35.000Z</time>
      </trkpt>
      <trkpt lat="45.06782" lon="5.9227">
        <ele>1953</ele>
        <time>2019-08-03T12:46:42.000Z</time>
      </trkpt>
      <trkpt lat="45.06785" lon="5.92279">
        <ele>1953</ele>
        <time>2019-08-03T12:46:48.000Z</time>
      </trkpt>
      <trkpt lat="45.06788" lon="5.92286">
        <ele>1952</ele>
        <time>2019-08-03T12:46:52.000Z</time>
      </trkpt>
      <trkpt lat="45.06788" lon="5.92298">
        <ele>1953</ele>
        <time>2019-08-03T12:46:59.000Z</time>
      </trkpt>
      <trkpt lat="45.0679" lon="5.92308">
        <ele>1955</ele>
        <time>2019-08-03T12:47:06.000Z</time>
      </trkpt>
      <trkpt lat="45.06791" lon="5.92314">
        <ele>1955</ele>
        <time>2019-08-03T12:47:10.000Z</time>
      </trkpt>
      <trkpt lat="45.06793" lon="5.92322">
        <ele>1957</ele>
        <time>2019-08-03T12:47:17.000Z</time>
      </trkpt>
      <trkpt lat="45.06797" lon="5.92329">
        <ele>1959</ele>
        <time>2019-08-03T12:47:28.000Z</time>
      </trkpt>
      <trkpt lat="45.06802" lon="5.92333">
        <ele>1962</ele>
        <time>2019-08-03T12:47:35.000Z</time>
      </trkpt>
      <trkpt lat="45.06807" lon="5.92338">
        <ele>1963</ele>
        <time>2019-08-03T12:47:42.000Z</time>
      </trkpt>
      <trkpt lat="45.06807" lon="5.92348">
        <ele>1967</ele>
        <time>2019-08-03T12:47:55.000Z</time>
      </trkpt>
      <trkpt lat="45.06811" lon="5.92354">
        <ele>1971</ele>
        <time>2019-08-03T12:48:03.000Z</time>
      </trkpt>
      <trkpt lat="45.06812" lon="5.92361">
        <ele>1975</ele>
        <time>2019-08-03T12:49:28.000Z</time>
      </trkpt>
      <trkpt lat="45.06815" lon="5.92367">
        <ele>1977</ele>
        <time>2019-08-03T12:49:35.000Z</time>
      </trkpt>
      <trkpt lat="45.06821" lon="5.92368">
        <ele>1979</ele>
        <time>2019-08-03T12:49:45.000Z</time>
      </trkpt>
      <trkpt lat="45.06827" lon="5.92371">
        <ele>1982</ele>
        <time>2019-08-03T12:49:57.000Z</time>
      </trkpt>
      <trkpt lat="45.06832" lon="5.92379">
        <ele>1983</ele>
        <time>2019-08-03T12:50:08.000Z</time>
      </trkpt>
      <trkpt lat="45.06838" lon="5.92382">
        <ele>1984</ele>
        <time>2019-08-03T12:50:19.000Z</time>
      </trkpt>
      <trkpt lat="45.06842" lon="5.92384">
        <ele>1985</ele>
        <time>2019-08-03T12:50:29.000Z</time>
      </trkpt>
      <trkpt lat="45.06847" lon="5.92388">
        <ele>1989</ele>
        <time>2019-08-03T12:50:40.000Z</time>
      </trkpt>
      <trkpt lat="45.06848" lon="5.92395">
        <ele>1990</ele>
        <time>2019-08-03T12:50:47.000Z</time>
      </trkpt>
      <trkpt lat="45.0685" lon="5.92403">
        <ele>1993</ele>
        <time>2019-08-03T12:50:57.000Z</time>
      </trkpt>
      <trkpt lat="45.06854" lon="5.92404">
        <ele>1997</ele>
        <time>2019-08-03T12:51:05.000Z</time>
      </trkpt>
      <trkpt lat="45.06859" lon="5.92405">
        <ele>1999</ele>
        <time>2019-08-03T12:51:15.000Z</time>
      </trkpt>
      <trkpt lat="45.06862" lon="5.924">
        <ele>2001</ele>
        <time>2019-08-03T12:51:24.000Z</time>
      </trkpt>
      <trkpt lat="45.06868" lon="5.92402">
        <ele>2002</ele>
        <time>2019-08-03T12:51:31.000Z</time>
      </trkpt>
      <trkpt lat="45.06876" lon="5.92402">
        <ele>2003</ele>
        <time>2019-08-03T12:51:39.000Z</time>
      </trkpt>
      <trkpt lat="45.0688" lon="5.92401">
        <ele>2005</ele>
        <time>2019-08-03T12:51:45.000Z</time>
      </trkpt>
      <trkpt lat="45.06887" lon="5.924">
        <ele>2004</ele>
        <time>2019-08-03T12:51:54.000Z</time>
      </trkpt>
      <trkpt lat="45.06893" lon="5.92405">
        <ele>2003</ele>
        <time>2019-08-03T12:52:01.000Z</time>
      </trkpt>
      <trkpt lat="45.06897" lon="5.92408">
        <ele>2004</ele>
        <time>2019-08-03T12:52:05.000Z</time>
      </trkpt>
      <trkpt lat="45.06905" lon="5.92412">
        <ele>2004</ele>
        <time>2019-08-03T12:52:12.000Z</time>
      </trkpt>
      <trkpt lat="45.06911" lon="5.92415">
        <ele>2004</ele>
        <time>2019-08-03T12:52:19.000Z</time>
      </trkpt>
      <trkpt lat="45.06917" lon="5.92422">
        <ele>2005</ele>
        <time>2019-08-03T12:52:25.000Z</time>
      </trkpt>
      <trkpt lat="45.06921" lon="5.92428">
        <ele>2004</ele>
        <time>2019-08-03T12:52:32.000Z</time>
      </trkpt>
      <trkpt lat="45.06926" lon="5.92435">
        <ele>2004</ele>
        <time>2019-08-03T12:52:39.000Z</time>
      </trkpt>
      <trkpt lat="45.0693" lon="5.92439">
        <ele>2005</ele>
        <time>2019-08-03T12:52:45.000Z</time>
      </trkpt>
      <trkpt lat="45.06931" lon="5.92451">
        <ele>2006</ele>
        <time>2019-08-03T12:52:53.000Z</time>
      </trkpt>
      <trkpt lat="45.06931" lon="5.92462">
        <ele>2008</ele>
        <time>2019-08-03T12:52:59.000Z</time>
      </trkpt>
      <trkpt lat="45.06929" lon="5.92468">
        <ele>2008</ele>
        <time>2019-08-03T12:53:03.000Z</time>
      </trkpt>
      <trkpt lat="45.06928" lon="5.92476">
        <ele>2008</ele>
        <time>2019-08-03T12:53:10.000Z</time>
      </trkpt>
      <trkpt lat="45.06934" lon="5.9248">
        <ele>2008</ele>
        <time>2019-08-03T12:53:37.000Z</time>
      </trkpt>
      <trkpt lat="45.0694" lon="5.92483">
        <ele>2009</ele>
        <time>2019-08-03T12:53:41.000Z</time>
      </trkpt>
      <trkpt lat="45.06945" lon="5.92485">
        <ele>2008</ele>
        <time>2019-08-03T12:53:45.000Z</time>
      </trkpt>
      <trkpt lat="45.0695" lon="5.92487">
        <ele>2009</ele>
        <time>2019-08-03T12:53:49.000Z</time>
      </trkpt>
      <trkpt lat="45.06958" lon="5.92489">
        <ele>2007</ele>
        <time>2019-08-03T12:53:57.000Z</time>
      </trkpt>
      <trkpt lat="45.06962" lon="5.92485">
        <ele>2005</ele>
        <time>2019-08-03T12:54:04.000Z</time>
      </trkpt>
      <trkpt lat="45.06967" lon="5.92485">
        <ele>2004</ele>
        <time>2019-08-03T12:54:08.000Z</time>
      </trkpt>
      <trkpt lat="45.06974" lon="5.92484">
        <ele>2004</ele>
        <time>2019-08-03T12:54:14.000Z</time>
      </trkpt>
      <trkpt lat="45.06979" lon="5.92483">
        <ele>2004</ele>
        <time>2019-08-03T12:54:20.000Z</time>
      </trkpt>
      <trkpt lat="45.06988" lon="5.92481">
        <ele>2003</ele>
        <time>2019-08-03T12:54:28.000Z</time>
      </trkpt>
      <trkpt lat="45.06993" lon="5.92481">
        <ele>2003</ele>
        <time>2019-08-03T12:54:32.000Z</time>
      </trkpt>
      <trkpt lat="45.06999" lon="5.92482">
        <ele>2004</ele>
        <time>2019-08-03T12:54:36.000Z</time>
      </trkpt>
      <trkpt lat="45.07006" lon="5.92481">
        <ele>2004</ele>
        <time>2019-08-03T12:54:43.000Z</time>
      </trkpt>
      <trkpt lat="45.0701" lon="5.92479">
        <ele>2003</ele>
        <time>2019-08-03T12:54:47.000Z</time>
      </trkpt>
      <trkpt lat="45.07015" lon="5.92475">
        <ele>2004</ele>
        <time>2019-08-03T12:54:51.000Z</time>
      </trkpt>
      <trkpt lat="45.07022" lon="5.92471">
        <ele>2003</ele>
        <time>2019-08-03T12:54:58.000Z</time>
      </trkpt>
      <trkpt lat="45.07027" lon="5.92465">
        <ele>2002</ele>
        <time>2019-08-03T12:55:04.000Z</time>
      </trkpt>
      <trkpt lat="45.07031" lon="5.92462">
        <ele>2002</ele>
        <time>2019-08-03T12:55:08.000Z</time>
      </trkpt>
      <trkpt lat="45.07039" lon="5.9246">
        <ele>2001</ele>
        <time>2019-08-03T12:55:15.000Z</time>
      </trkpt>
      <trkpt lat="45.07044" lon="5.9246">
        <ele>2000</ele>
        <time>2019-08-03T12:55:19.000Z</time>
      </trkpt>
      <trkpt lat="45.07039" lon="5.92464">
        <ele>2000</ele>
        <time>2019-08-03T12:55:39.000Z</time>
      </trkpt>
      <trkpt lat="45.07034" lon="5.92465">
        <ele>2001</ele>
        <time>2019-08-03T12:55:42.000Z</time>
      </trkpt>
      <trkpt lat="45.07028" lon="5.92467">
        <ele>2000</ele>
        <time>2019-08-03T12:55:46.000Z</time>
      </trkpt>
      <trkpt lat="45.07023" lon="5.92468">
        <ele>2002</ele>
        <time>2019-08-03T12:55:50.000Z</time>
      </trkpt>
      <trkpt lat="45.07019" lon="5.92477">
        <ele>2001</ele>
        <time>2019-08-03T12:55:57.000Z</time>
      </trkpt>
      <trkpt lat="45.07013" lon="5.92481">
        <ele>2001</ele>
        <time>2019-08-03T12:56:04.000Z</time>
      </trkpt>
      <trkpt lat="45.07009" lon="5.92484">
        <ele>2000</ele>
        <time>2019-08-03T12:56:08.000Z</time>
      </trkpt>
      <trkpt lat="45.07004" lon="5.92491">
        <ele>2001</ele>
        <time>2019-08-03T12:56:15.000Z</time>
      </trkpt>
      <trkpt lat="45.06998" lon="5.92492">
        <ele>2006</ele>
        <time>2019-08-03T12:56:40.000Z</time>
      </trkpt>
      <trkpt lat="45.06992" lon="5.92497">
        <ele>2008</ele>
        <time>2019-08-03T12:56:50.000Z</time>
      </trkpt>
      <trkpt lat="45.06987" lon="5.92501">
        <ele>2009</ele>
        <time>2019-08-03T12:57:09.000Z</time>
      </trkpt>
      <trkpt lat="45.06981" lon="5.92502">
        <ele>2008</ele>
        <time>2019-08-03T12:57:16.000Z</time>
      </trkpt>
      <trkpt lat="45.06978" lon="5.92507">
        <ele>2010</ele>
        <time>2019-08-03T12:57:23.000Z</time>
      </trkpt>
      <trkpt lat="45.0698" lon="5.92513">
        <ele>2011</ele>
        <time>2019-08-03T12:57:31.000Z</time>
      </trkpt>
      <trkpt lat="45.06984" lon="5.92517">
        <ele>2013</ele>
        <time>2019-08-03T12:57:35.000Z</time>
      </trkpt>
      <trkpt lat="45.0699" lon="5.92523">
        <ele>2013</ele>
        <time>2019-08-03T12:57:42.000Z</time>
      </trkpt>
      <trkpt lat="45.06995" lon="5.9253">
        <ele>2014</ele>
        <time>2019-08-03T12:57:48.000Z</time>
      </trkpt>
      <trkpt lat="45.06997" lon="5.92538">
        <ele>2015</ele>
        <time>2019-08-03T12:57:56.000Z</time>
      </trkpt>
      <trkpt lat="45.07002" lon="5.92545">
        <ele>2015</ele>
        <time>2019-08-03T12:58:04.000Z</time>
      </trkpt>
      <trkpt lat="45.0701" lon="5.92549">
        <ele>2017</ele>
        <time>2019-08-03T12:58:12.000Z</time>
      </trkpt>
      <trkpt lat="45.07015" lon="5.92552">
        <ele>2019</ele>
        <time>2019-08-03T12:58:20.000Z</time>
      </trkpt>
      <trkpt lat="45.07019" lon="5.92552">
        <ele>2018</ele>
        <time>2019-08-03T12:58:26.000Z</time>
      </trkpt>
      <trkpt lat="45.07025" lon="5.92553">
        <ele>2019</ele>
        <time>2019-08-03T12:58:33.000Z</time>
      </trkpt>
      <trkpt lat="45.07033" lon="5.92554">
        <ele>2023</ele>
        <time>2019-08-03T12:58:44.000Z</time>
      </trkpt>
      <trkpt lat="45.07039" lon="5.92555">
        <ele>2024</ele>
        <time>2019-08-03T12:58:52.000Z</time>
      </trkpt>
      <trkpt lat="45.07042" lon="5.92562">
        <ele>2027</ele>
        <time>2019-08-03T12:59:02.000Z</time>
      </trkpt>
      <trkpt lat="45.07046" lon="5.92566">
        <ele>2031</ele>
        <time>2019-08-03T12:59:51.000Z</time>
      </trkpt>
      <trkpt lat="45.07051" lon="5.9257">
        <ele>2035</ele>
        <time>2019-08-03T13:00:36.000Z</time>
      </trkpt>
      <trkpt lat="45.07052" lon="5.92576">
        <ele>2039</ele>
        <time>2019-08-03T13:00:47.000Z</time>
      </trkpt>
      <trkpt lat="45.07056" lon="5.92582">
        <ele>2039</ele>
        <time>2019-08-03T13:00:57.000Z</time>
      </trkpt>
      <trkpt lat="45.07061" lon="5.92583">
        <ele>2039</ele>
        <time>2019-08-03T13:01:07.000Z</time>
      </trkpt>
      <trkpt lat="45.07066" lon="5.92587">
        <ele>2040</ele>
        <time>2019-08-03T13:01:18.000Z</time>
      </trkpt>
      <trkpt lat="45.07071" lon="5.9259">
        <ele>2042</ele>
        <time>2019-08-03T13:01:29.000Z</time>
      </trkpt>
      <trkpt lat="45.07076" lon="5.92591">
        <ele>2045</ele>
        <time>2019-08-03T13:01:57.000Z</time>
      </trkpt>
      <trkpt lat="45.07081" lon="5.92592">
        <ele>2045</ele>
        <time>2019-08-03T13:02:03.000Z</time>
      </trkpt>
      <trkpt lat="45.07087" lon="5.92591">
        <ele>2049</ele>
        <time>2019-08-03T13:02:13.000Z</time>
      </trkpt>
      <trkpt lat="45.07094" lon="5.92591">
        <ele>2051</ele>
        <time>2019-08-03T13:02:20.000Z</time>
      </trkpt>
      <trkpt lat="45.07099" lon="5.92591">
        <ele>2053</ele>
        <time>2019-08-03T13:02:27.000Z</time>
      </trkpt>
      <trkpt lat="45.07105" lon="5.92595">
        <ele>2056</ele>
        <time>2019-08-03T13:02:38.000Z</time>
      </trkpt>
      <trkpt lat="45.07109" lon="5.92597">
        <ele>2057</ele>
        <time>2019-08-03T13:02:44.000Z</time>
      </trkpt>
      <trkpt lat="45.07115" lon="5.92599">
        <ele>2059</ele>
        <time>2019-08-03T13:02:50.000Z</time>
      </trkpt>
      <trkpt lat="45.07122" lon="5.926">
        <ele>2061</ele>
        <time>2019-08-03T13:02:58.000Z</time>
      </trkpt>
      <trkpt lat="45.07126" lon="5.92603">
        <ele>2062</ele>
        <time>2019-08-03T13:03:05.000Z</time>
      </trkpt>
      <trkpt lat="45.07132" lon="5.92607">
        <ele>2065</ele>
        <time>2019-08-03T13:03:12.000Z</time>
      </trkpt>
      <trkpt lat="45.07138" lon="5.92609">
        <ele>2066</ele>
        <time>2019-08-03T13:03:18.000Z</time>
      </trkpt>
      <trkpt lat="45.07145" lon="5.92611">
        <ele>2067</ele>
        <time>2019-08-03T13:03:24.000Z</time>
      </trkpt>
      <trkpt lat="45.0715" lon="5.92613">
        <ele>2068</ele>
        <time>2019-08-03T13:03:28.000Z</time>
      </trkpt>
      <trkpt lat="45.07154" lon="5.92618">
        <ele>2069</ele>
        <time>2019-08-03T13:03:35.000Z</time>
      </trkpt>
      <trkpt lat="45.0716" lon="5.9262">
        <ele>2069</ele>
        <time>2019-08-03T13:03:42.000Z</time>
      </trkpt>
      <trkpt lat="45.07167" lon="5.92619">
        <ele>2069</ele>
        <time>2019-08-03T13:03:50.000Z</time>
      </trkpt>
      <trkpt lat="45.07173" lon="5.92619">
        <ele>2071</ele>
        <time>2019-08-03T13:03:57.000Z</time>
      </trkpt>
      <trkpt lat="45.07178" lon="5.9262">
        <ele>2073</ele>
        <time>2019-08-03T13:04:03.000Z</time>
      </trkpt>
      <trkpt lat="45.07184" lon="5.92622">
        <ele>2076</ele>
        <time>2019-08-03T13:04:14.000Z</time>
      </trkpt>
      <trkpt lat="45.07191" lon="5.92623">
        <ele>2077</ele>
        <time>2019-08-03T13:04:21.000Z</time>
      </trkpt>
      <trkpt lat="45.07199" lon="5.92626">
        <ele>2078</ele>
        <time>2019-08-03T13:04:29.000Z</time>
      </trkpt>
      <trkpt lat="45.07205" lon="5.92628">
        <ele>2080</ele>
        <time>2019-08-03T13:04:35.000Z</time>
      </trkpt>
      <trkpt lat="45.07211" lon="5.92632">
        <ele>2082</ele>
        <time>2019-08-03T13:04:43.000Z</time>
      </trkpt>
      <trkpt lat="45.07215" lon="5.92635">
        <ele>2082</ele>
        <time>2019-08-03T13:04:49.000Z</time>
      </trkpt>
      <trkpt lat="45.07221" lon="5.92637">
        <ele>2082</ele>
        <time>2019-08-03T13:04:56.000Z</time>
      </trkpt>
      <trkpt lat="45.07227" lon="5.92639">
        <ele>2082</ele>
        <time>2019-08-03T13:05:03.000Z</time>
      </trkpt>
      <trkpt lat="45.07232" lon="5.9264">
        <ele>2083</ele>
        <time>2019-08-03T13:05:09.000Z</time>
      </trkpt>
      <trkpt lat="45.07238" lon="5.92643">
        <ele>2087</ele>
        <time>2019-08-03T13:05:17.000Z</time>
      </trkpt>
      <trkpt lat="45.07245" lon="5.92645">
        <ele>2089</ele>
        <time>2019-08-03T13:05:28.000Z</time>
      </trkpt>
      <trkpt lat="45.0725" lon="5.92647">
        <ele>2092</ele>
        <time>2019-08-03T13:05:35.000Z</time>
      </trkpt>
      <trkpt lat="45.07256" lon="5.92649">
        <ele>2093</ele>
        <time>2019-08-03T13:05:42.000Z</time>
      </trkpt>
      <trkpt lat="45.07262" lon="5.9265">
        <ele>2095</ele>
        <time>2019-08-03T13:05:50.000Z</time>
      </trkpt>
      <trkpt lat="45.07268" lon="5.92652">
        <ele>2097</ele>
        <time>2019-08-03T13:05:59.000Z</time>
      </trkpt>
      <trkpt lat="45.07274" lon="5.92653">
        <ele>2098</ele>
        <time>2019-08-03T13:06:06.000Z</time>
      </trkpt>
      <trkpt lat="45.07279" lon="5.92656">
        <ele>2100</ele>
        <time>2019-08-03T13:06:14.000Z</time>
      </trkpt>
      <trkpt lat="45.07286" lon="5.92658">
        <ele>2101</ele>
        <time>2019-08-03T13:06:22.000Z</time>
      </trkpt>
      <trkpt lat="45.07291" lon="5.9266">
        <ele>2104</ele>
        <time>2019-08-03T13:06:28.000Z</time>
      </trkpt>
      <trkpt lat="45.07296" lon="5.92663">
        <ele>2105</ele>
        <time>2019-08-03T13:06:35.000Z</time>
      </trkpt>
      <trkpt lat="45.07304" lon="5.92664">
        <ele>2108</ele>
        <time>2019-08-03T13:06:45.000Z</time>
      </trkpt>
      <trkpt lat="45.07311" lon="5.92665">
        <ele>2109</ele>
        <time>2019-08-03T13:06:52.000Z</time>
      </trkpt>
      <trkpt lat="45.07318" lon="5.92667">
        <ele>2111</ele>
        <time>2019-08-03T13:06:59.000Z</time>
      </trkpt>
      <trkpt lat="45.07323" lon="5.92669">
        <ele>2112</ele>
        <time>2019-08-03T13:07:06.000Z</time>
      </trkpt>
      <trkpt lat="45.07328" lon="5.92671">
        <ele>2112</ele>
        <time>2019-08-03T13:07:12.000Z</time>
      </trkpt>
      <trkpt lat="45.07334" lon="5.92674">
        <ele>2115</ele>
        <time>2019-08-03T13:07:24.000Z</time>
      </trkpt>
      <trkpt lat="45.07339" lon="5.92671">
        <ele>2117</ele>
        <time>2019-08-03T13:07:49.000Z</time>
      </trkpt>
      <trkpt lat="45.07346" lon="5.92673">
        <ele>2118</ele>
        <time>2019-08-03T13:07:57.000Z</time>
      </trkpt>
      <trkpt lat="45.07353" lon="5.92676">
        <ele>2119</ele>
        <time>2019-08-03T13:08:04.000Z</time>
      </trkpt>
      <trkpt lat="45.07359" lon="5.92676">
        <ele>2119</ele>
        <time>2019-08-03T13:08:11.000Z</time>
      </trkpt>
      <trkpt lat="45.07366" lon="5.92676">
        <ele>2120</ele>
        <time>2019-08-03T13:08:18.000Z</time>
      </trkpt>
      <trkpt lat="45.07373" lon="5.92677">
        <ele>2120</ele>
        <time>2019-08-03T13:08:26.000Z</time>
      </trkpt>
      <trkpt lat="45.07381" lon="5.92677">
        <ele>2122</ele>
        <time>2019-08-03T13:08:34.000Z</time>
      </trkpt>
      <trkpt lat="45.07388" lon="5.92678">
        <ele>2124</ele>
        <time>2019-08-03T13:08:42.000Z</time>
      </trkpt>
      <trkpt lat="45.07395" lon="5.92676">
        <ele>2126</ele>
        <time>2019-08-03T13:08:50.000Z</time>
      </trkpt>
      <trkpt lat="45.07401" lon="5.92677">
        <ele>2126</ele>
        <time>2019-08-03T13:08:56.000Z</time>
      </trkpt>
      <trkpt lat="45.07408" lon="5.92677">
        <ele>2126</ele>
        <time>2019-08-03T13:09:03.000Z</time>
      </trkpt>
      <trkpt lat="45.07413" lon="5.92678">
        <ele>2128</ele>
        <time>2019-08-03T13:09:10.000Z</time>
      </trkpt>
      <trkpt lat="45.07419" lon="5.92674">
        <ele>2128</ele>
        <time>2019-08-03T13:09:16.000Z</time>
      </trkpt>
      <trkpt lat="45.07427" lon="5.9267">
        <ele>2130</ele>
        <time>2019-08-03T13:09:24.000Z</time>
      </trkpt>
      <trkpt lat="45.07432" lon="5.92671">
        <ele>2133</ele>
        <time>2019-08-03T13:09:31.000Z</time>
      </trkpt>
      <trkpt lat="45.07438" lon="5.9267">
        <ele>2137</ele>
        <time>2019-08-03T13:09:44.000Z</time>
      </trkpt>
      <trkpt lat="45.07442" lon="5.92672">
        <ele>2140</ele>
        <time>2019-08-03T13:09:51.000Z</time>
      </trkpt>
      <trkpt lat="45.07445" lon="5.92678">
        <ele>2143</ele>
        <time>2019-08-03T13:10:01.000Z</time>
      </trkpt>
      <trkpt lat="45.0745" lon="5.92682">
        <ele>2147</ele>
        <time>2019-08-03T13:10:12.000Z</time>
      </trkpt>
      <trkpt lat="45.07454" lon="5.92685">
        <ele>2148</ele>
        <time>2019-08-03T13:10:19.000Z</time>
      </trkpt>
      <trkpt lat="45.07459" lon="5.92688">
        <ele>2148</ele>
        <time>2019-08-03T13:10:26.000Z</time>
      </trkpt>
      <trkpt lat="45.07464" lon="5.92692">
        <ele>2150</ele>
        <time>2019-08-03T13:10:34.000Z</time>
      </trkpt>
      <trkpt lat="45.0747" lon="5.92696">
        <ele>2153</ele>
        <time>2019-08-03T13:10:41.000Z</time>
      </trkpt>
      <trkpt lat="45.07475" lon="5.92699">
        <ele>2153</ele>
        <time>2019-08-03T13:10:48.000Z</time>
      </trkpt>
      <trkpt lat="45.07479" lon="5.927">
        <ele>2154</ele>
        <time>2019-08-03T13:10:56.000Z</time>
      </trkpt>
      <trkpt lat="45.07485" lon="5.92704">
        <ele>2157</ele>
        <time>2019-08-03T13:11:06.000Z</time>
      </trkpt>
      <trkpt lat="45.0749" lon="5.92708">
        <ele>2160</ele>
        <time>2019-08-03T13:11:13.000Z</time>
      </trkpt>
      <trkpt lat="45.07494" lon="5.92711">
        <ele>2162</ele>
        <time>2019-08-03T13:11:23.000Z</time>
      </trkpt>
      <trkpt lat="45.07499" lon="5.92715">
        <ele>2163</ele>
        <time>2019-08-03T13:11:33.000Z</time>
      </trkpt>
      <trkpt lat="45.07502" lon="5.92719">
        <ele>2168</ele>
        <time>2019-08-03T13:11:44.000Z</time>
      </trkpt>
      <trkpt lat="45.07507" lon="5.92724">
        <ele>2171</ele>
        <time>2019-08-03T13:11:55.000Z</time>
      </trkpt>
      <trkpt lat="45.07514" lon="5.92731">
        <ele>2171</ele>
        <time>2019-08-03T13:12:03.000Z</time>
      </trkpt>
      <trkpt lat="45.07517" lon="5.92739">
        <ele>2172</ele>
        <time>2019-08-03T13:12:10.000Z</time>
      </trkpt>
      <trkpt lat="45.07519" lon="5.9275">
        <ele>2174</ele>
        <time>2019-08-03T13:12:18.000Z</time>
      </trkpt>
      <trkpt lat="45.07515" lon="5.92758">
        <ele>2175</ele>
        <time>2019-08-03T13:12:25.000Z</time>
      </trkpt>
      <trkpt lat="45.07513" lon="5.92766">
        <ele>2175</ele>
        <time>2019-08-03T13:12:32.000Z</time>
      </trkpt>
      <trkpt lat="45.07514" lon="5.92775">
        <ele>2177</ele>
        <time>2019-08-03T13:12:50.000Z</time>
      </trkpt>
      <trkpt lat="45.07518" lon="5.9278">
        <ele>2180</ele>
        <time>2019-08-03T13:12:57.000Z</time>
      </trkpt>
      <trkpt lat="45.07511" lon="5.92783">
        <ele>2181</ele>
        <time>2019-08-03T13:23:58.000Z</time>
      </trkpt>
      <trkpt lat="45.07507" lon="5.92779">
        <ele>2180</ele>
        <time>2019-08-03T13:24:04.000Z</time>
      </trkpt>
      <trkpt lat="45.07505" lon="5.92786">
        <ele>2178</ele>
        <time>2019-08-03T13:24:12.000Z</time>
      </trkpt>
      <trkpt lat="45.07508" lon="5.92793">
        <ele>2176</ele>
        <time>2019-08-03T13:24:18.000Z</time>
      </trkpt>
      <trkpt lat="45.07507" lon="5.92803">
        <ele>2175</ele>
        <time>2019-08-03T13:24:25.000Z</time>
      </trkpt>
      <trkpt lat="45.07505" lon="5.9281">
        <ele>2173</ele>
        <time>2019-08-03T13:24:33.000Z</time>
      </trkpt>
      <trkpt lat="45.07508" lon="5.92803">
        <ele>2173</ele>
        <time>2019-08-03T13:24:39.000Z</time>
      </trkpt>
      <trkpt lat="45.07509" lon="5.92794">
        <ele>2173</ele>
        <time>2019-08-03T13:24:45.000Z</time>
      </trkpt>
      <trkpt lat="45.07507" lon="5.92787">
        <ele>2174</ele>
        <time>2019-08-03T13:24:49.000Z</time>
      </trkpt>
      <trkpt lat="45.07506" lon="5.92779">
        <ele>2175</ele>
        <time>2019-08-03T13:24:55.000Z</time>
      </trkpt>
      <trkpt lat="45.07511" lon="5.9278">
        <ele>2175</ele>
        <time>2019-08-03T13:25:03.000Z</time>
      </trkpt>
      <trkpt lat="45.07516" lon="5.92781">
        <ele>2177</ele>
        <time>2019-08-03T13:25:09.000Z</time>
      </trkpt>
      <trkpt lat="45.07521" lon="5.92783">
        <ele>2178</ele>
        <time>2019-08-03T13:25:54.000Z</time>
      </trkpt>
      <trkpt lat="45.07527" lon="5.92781">
        <ele>2177</ele>
        <time>2019-08-03T13:26:02.000Z</time>
      </trkpt>
      <trkpt lat="45.07533" lon="5.92781">
        <ele>2176</ele>
        <time>2019-08-03T13:26:09.000Z</time>
      </trkpt>
      <trkpt lat="45.07537" lon="5.92783">
        <ele>2177</ele>
        <time>2019-08-03T13:26:16.000Z</time>
      </trkpt>
      <trkpt lat="45.07544" lon="5.92789">
        <ele>2179</ele>
        <time>2019-08-03T13:26:23.000Z</time>
      </trkpt>
      <trkpt lat="45.07548" lon="5.92795">
        <ele>2180</ele>
        <time>2019-08-03T13:26:27.000Z</time>
      </trkpt>
      <trkpt lat="45.07545" lon="5.92802">
        <ele>2179</ele>
        <time>2019-08-03T13:26:47.000Z</time>
      </trkpt>
      <trkpt lat="45.07545" lon="5.92811">
        <ele>2179</ele>
        <time>2019-08-03T13:26:54.000Z</time>
      </trkpt>
      <trkpt lat="45.07546" lon="5.92823">
        <ele>2179</ele>
        <time>2019-08-03T13:27:01.000Z</time>
      </trkpt>
      <trkpt lat="45.07546" lon="5.92831">
        <ele>2178</ele>
        <time>2019-08-03T13:27:07.000Z</time>
      </trkpt>
      <trkpt lat="45.07545" lon="5.92838">
        <ele>2178</ele>
        <time>2019-08-03T13:27:11.000Z</time>
      </trkpt>
      <trkpt lat="45.07543" lon="5.92848">
        <ele>2177</ele>
        <time>2019-08-03T13:27:19.000Z</time>
      </trkpt>
      <trkpt lat="45.07541" lon="5.92855">
        <ele>2175</ele>
        <time>2019-08-03T13:27:26.000Z</time>
      </trkpt>
      <trkpt lat="45.0754" lon="5.92862">
        <ele>2172</ele>
        <time>2019-08-03T13:27:33.000Z</time>
      </trkpt>
      <trkpt lat="45.0754" lon="5.92873">
        <ele>2170</ele>
        <time>2019-08-03T13:27:41.000Z</time>
      </trkpt>
      <trkpt lat="45.07541" lon="5.92882">
        <ele>2169</ele>
        <time>2019-08-03T13:27:47.000Z</time>
      </trkpt>
      <trkpt lat="45.0754" lon="5.9289">
        <ele>2170</ele>
        <time>2019-08-03T13:27:54.000Z</time>
      </trkpt>
      <trkpt lat="45.07545" lon="5.92896">
        <ele>2171</ele>
        <time>2019-08-03T13:28:01.000Z</time>
      </trkpt>
      <trkpt lat="45.07541" lon="5.92899">
        <ele>2171</ele>
        <time>2019-08-03T13:28:09.000Z</time>
      </trkpt>
      <trkpt lat="45.07536" lon="5.929">
        <ele>2170</ele>
        <time>2019-08-03T13:28:17.000Z</time>
      </trkpt>
      <trkpt lat="45.07541" lon="5.92899">
        <ele>2170</ele>
        <time>2019-08-03T13:29:39.000Z</time>
      </trkpt>
      <trkpt lat="45.07547" lon="5.92904">
        <ele>2168</ele>
        <time>2019-08-03T13:29:47.000Z</time>
      </trkpt>
      <trkpt lat="45.07554" lon="5.92907">
        <ele>2169</ele>
        <time>2019-08-03T13:29:55.000Z</time>
      </trkpt>
      <trkpt lat="45.07559" lon="5.92911">
        <ele>2169</ele>
        <time>2019-08-03T13:30:03.000Z</time>
      </trkpt>
      <trkpt lat="45.07564" lon="5.92915">
        <ele>2169</ele>
        <time>2019-08-03T13:30:10.000Z</time>
      </trkpt>
      <trkpt lat="45.07568" lon="5.92919">
        <ele>2172</ele>
        <time>2019-08-03T13:30:16.000Z</time>
      </trkpt>
      <trkpt lat="45.07572" lon="5.92922">
        <ele>2174</ele>
        <time>2019-08-03T13:30:26.000Z</time>
      </trkpt>
      <trkpt lat="45.07576" lon="5.92926">
        <ele>2175</ele>
        <time>2019-08-03T13:30:34.000Z</time>
      </trkpt>
      <trkpt lat="45.07581" lon="5.9293">
        <ele>2183</ele>
        <time>2019-08-03T13:31:32.000Z</time>
      </trkpt>
      <trkpt lat="45.07583" lon="5.92936">
        <ele>2183</ele>
        <time>2019-08-03T13:31:42.000Z</time>
      </trkpt>
      <trkpt lat="45.07588" lon="5.92939">
        <ele>2184</ele>
        <time>2019-08-03T13:32:02.000Z</time>
      </trkpt>
      <trkpt lat="45.07592" lon="5.9294">
        <ele>2185</ele>
        <time>2019-08-03T13:32:15.000Z</time>
      </trkpt>
      <trkpt lat="45.07598" lon="5.92945">
        <ele>2189</ele>
        <time>2019-08-03T13:32:25.000Z</time>
      </trkpt>
      <trkpt lat="45.07602" lon="5.9295">
        <ele>2191</ele>
        <time>2019-08-03T13:32:33.000Z</time>
      </trkpt>
      <trkpt lat="45.07606" lon="5.92954">
        <ele>2191</ele>
        <time>2019-08-03T13:32:40.000Z</time>
      </trkpt>
      <trkpt lat="45.07611" lon="5.92957">
        <ele>2193</ele>
        <time>2019-08-03T13:32:48.000Z</time>
      </trkpt>
      <trkpt lat="45.07617" lon="5.92964">
        <ele>2193</ele>
        <time>2019-08-03T13:32:56.000Z</time>
      </trkpt>
      <trkpt lat="45.07625" lon="5.92966">
        <ele>2194</ele>
        <time>2019-08-03T13:33:22.000Z</time>
      </trkpt>
      <trkpt lat="45.07629" lon="5.92966">
        <ele>2193</ele>
        <time>2019-08-03T13:33:26.000Z</time>
      </trkpt>
      <trkpt lat="45.07634" lon="5.92966">
        <ele>2192</ele>
        <time>2019-08-03T13:33:30.000Z</time>
      </trkpt>
      <trkpt lat="45.07642" lon="5.92967">
        <ele>2192</ele>
        <time>2019-08-03T13:33:36.000Z</time>
      </trkpt>
      <trkpt lat="45.07646" lon="5.9297">
        <ele>2192</ele>
        <time>2019-08-03T13:33:40.000Z</time>
      </trkpt>
      <trkpt lat="45.07652" lon="5.92974">
        <ele>2194</ele>
        <time>2019-08-03T13:33:47.000Z</time>
      </trkpt>
      <trkpt lat="45.07656" lon="5.92976">
        <ele>2195</ele>
        <time>2019-08-03T13:34:40.000Z</time>
      </trkpt>
      <trkpt lat="45.07662" lon="5.92978">
        <ele>2195</ele>
        <time>2019-08-03T13:34:46.000Z</time>
      </trkpt>
      <trkpt lat="45.07668" lon="5.92979">
        <ele>2194</ele>
        <time>2019-08-03T13:34:53.000Z</time>
      </trkpt>
      <trkpt lat="45.07673" lon="5.9298">
        <ele>2195</ele>
        <time>2019-08-03T13:34:57.000Z</time>
      </trkpt>
      <trkpt lat="45.0768" lon="5.92982">
        <ele>2196</ele>
        <time>2019-08-03T13:35:03.000Z</time>
      </trkpt>
      <trkpt lat="45.07686" lon="5.92992">
        <ele>2197</ele>
        <time>2019-08-03T13:35:10.000Z</time>
      </trkpt>
      <trkpt lat="45.07691" lon="5.92997">
        <ele>2197</ele>
        <time>2019-08-03T13:35:16.000Z</time>
      </trkpt>
      <trkpt lat="45.077" lon="5.93004">
        <ele>2198</ele>
        <time>2019-08-03T13:35:24.000Z</time>
      </trkpt>
      <trkpt lat="45.07708" lon="5.93005">
        <ele>2198</ele>
        <time>2019-08-03T13:35:32.000Z</time>
      </trkpt>
      <trkpt lat="45.07711" lon="5.93">
        <ele>2199</ele>
        <time>2019-08-03T13:35:38.000Z</time>
      </trkpt>
      <trkpt lat="45.0771" lon="5.92993">
        <ele>2201</ele>
        <time>2019-08-03T13:35:44.000Z</time>
      </trkpt>
      <trkpt lat="45.07714" lon="5.92994">
        <ele>2205</ele>
        <time>2019-08-03T13:35:54.000Z</time>
      </trkpt>
      <trkpt lat="45.0772" lon="5.93001">
        <ele>2204</ele>
        <time>2019-08-03T13:36:02.000Z</time>
      </trkpt>
      <trkpt lat="45.07725" lon="5.93008">
        <ele>2204</ele>
        <time>2019-08-03T13:36:10.000Z</time>
      </trkpt>
      <trkpt lat="45.0773" lon="5.93013">
        <ele>2208</ele>
        <time>2019-08-03T13:36:30.000Z</time>
      </trkpt>
      <trkpt lat="45.07734" lon="5.93017">
        <ele>2208</ele>
        <time>2019-08-03T13:36:34.000Z</time>
      </trkpt>
      <trkpt lat="45.07737" lon="5.93021">
        <ele>2208</ele>
        <time>2019-08-03T13:36:38.000Z</time>
      </trkpt>
      <trkpt lat="45.07741" lon="5.93026">
        <ele>2207</ele>
        <time>2019-08-03T13:36:42.000Z</time>
      </trkpt>
      <trkpt lat="45.07746" lon="5.93033">
        <ele>2209</ele>
        <time>2019-08-03T13:36:49.000Z</time>
      </trkpt>
      <trkpt lat="45.07748" lon="5.93038">
        <ele>2210</ele>
        <time>2019-08-03T13:36:53.000Z</time>
      </trkpt>
      <trkpt lat="45.07751" lon="5.9305">
        <ele>2209</ele>
        <time>2019-08-03T13:37:00.000Z</time>
      </trkpt>
      <trkpt lat="45.07752" lon="5.9306">
        <ele>2210</ele>
        <time>2019-08-03T13:37:07.000Z</time>
      </trkpt>
      <trkpt lat="45.07756" lon="5.93066">
        <ele>2211</ele>
        <time>2019-08-03T13:37:14.000Z</time>
      </trkpt>
      <trkpt lat="45.07761" lon="5.9307">
        <ele>2213</ele>
        <time>2019-08-03T13:37:21.000Z</time>
      </trkpt>
      <trkpt lat="45.07763" lon="5.93077">
        <ele>2214</ele>
        <time>2019-08-03T13:37:28.000Z</time>
      </trkpt>
      <trkpt lat="45.07769" lon="5.93087">
        <ele>2215</ele>
        <time>2019-08-03T13:37:38.000Z</time>
      </trkpt>
      <trkpt lat="45.07775" lon="5.93095">
        <ele>2215</ele>
        <time>2019-08-03T13:37:45.000Z</time>
      </trkpt>
      <trkpt lat="45.07779" lon="5.93101">
        <ele>2215</ele>
        <time>2019-08-03T13:37:51.000Z</time>
      </trkpt>
      <trkpt lat="45.07782" lon="5.93113">
        <ele>2215</ele>
        <time>2019-08-03T13:37:59.000Z</time>
      </trkpt>
      <trkpt lat="45.07787" lon="5.93121">
        <ele>2215</ele>
        <time>2019-08-03T13:38:05.000Z</time>
      </trkpt>
      <trkpt lat="45.07787" lon="5.93127">
        <ele>2215</ele>
        <time>2019-08-03T13:38:12.000Z</time>
      </trkpt>
      <trkpt lat="45.07789" lon="5.93134">
        <ele>2219</ele>
        <time>2019-08-03T13:38:52.000Z</time>
      </trkpt>
      <trkpt lat="45.07792" lon="5.93142">
        <ele>2218</ele>
        <time>2019-08-03T13:39:00.000Z</time>
      </trkpt>
      <trkpt lat="45.07794" lon="5.93149">
        <ele>2218</ele>
        <time>2019-08-03T13:39:04.000Z</time>
      </trkpt>
      <trkpt lat="45.07798" lon="5.93159">
        <ele>2218</ele>
        <time>2019-08-03T13:39:11.000Z</time>
      </trkpt>
      <trkpt lat="45.078" lon="5.93165">
        <ele>2219</ele>
        <time>2019-08-03T13:39:15.000Z</time>
      </trkpt>
      <trkpt lat="45.07805" lon="5.93169">
        <ele>2220</ele>
        <time>2019-08-03T13:39:22.000Z</time>
      </trkpt>
      <trkpt lat="45.07809" lon="5.93171">
        <ele>2220</ele>
        <time>2019-08-03T13:39:29.000Z</time>
      </trkpt>
      <trkpt lat="45.07816" lon="5.93176">
        <ele>2219</ele>
        <time>2019-08-03T13:40:20.000Z</time>
      </trkpt>
      <trkpt lat="45.07821" lon="5.93177">
        <ele>2218</ele>
        <time>2019-08-03T13:40:24.000Z</time>
      </trkpt>
      <trkpt lat="45.07828" lon="5.93178">
        <ele>2219</ele>
        <time>2019-08-03T13:40:30.000Z</time>
      </trkpt>
      <trkpt lat="45.07834" lon="5.93178">
        <ele>2220</ele>
        <time>2019-08-03T13:40:36.000Z</time>
      </trkpt>
      <trkpt lat="45.07839" lon="5.93182">
        <ele>2222</ele>
        <time>2019-08-03T13:40:43.000Z</time>
      </trkpt>
      <trkpt lat="45.07844" lon="5.93182">
        <ele>2221</ele>
        <time>2019-08-03T13:40:50.000Z</time>
      </trkpt>
      <trkpt lat="45.0785" lon="5.93188">
        <ele>2223</ele>
        <time>2019-08-03T13:40:57.000Z</time>
      </trkpt>
      <trkpt lat="45.07853" lon="5.93193">
        <ele>2224</ele>
        <time>2019-08-03T13:41:01.000Z</time>
      </trkpt>
      <trkpt lat="45.07856" lon="5.93198">
        <ele>2226</ele>
        <time>2019-08-03T13:41:05.000Z</time>
      </trkpt>
      <trkpt lat="45.07859" lon="5.93203">
        <ele>2227</ele>
        <time>2019-08-03T13:41:09.000Z</time>
      </trkpt>
      <trkpt lat="45.07865" lon="5.93211">
        <ele>2228</ele>
        <time>2019-08-03T13:41:17.000Z</time>
      </trkpt>
      <trkpt lat="45.07869" lon="5.93216">
        <ele>2229</ele>
        <time>2019-08-03T13:41:24.000Z</time>
      </trkpt>
      <trkpt lat="45.07873" lon="5.93223">
        <ele>2227</ele>
        <time>2019-08-03T13:41:31.000Z</time>
      </trkpt>
      <trkpt lat="45.07877" lon="5.93229">
        <ele>2232</ele>
        <time>2019-08-03T13:42:16.000Z</time>
      </trkpt>
      <trkpt lat="45.07882" lon="5.93231">
        <ele>2230</ele>
        <time>2019-08-03T13:42:20.000Z</time>
      </trkpt>
      <trkpt lat="45.07886" lon="5.93235">
        <ele>2230</ele>
        <time>2019-08-03T13:42:24.000Z</time>
      </trkpt>
      <trkpt lat="45.07894" lon="5.93242">
        <ele>2231</ele>
        <time>2019-08-03T13:42:32.000Z</time>
      </trkpt>
      <trkpt lat="45.07899" lon="5.9325">
        <ele>2230</ele>
        <time>2019-08-03T13:42:39.000Z</time>
      </trkpt>
      <trkpt lat="45.07904" lon="5.93257">
        <ele>2230</ele>
        <time>2019-08-03T13:42:45.000Z</time>
      </trkpt>
      <trkpt lat="45.07911" lon="5.93262">
        <ele>2231</ele>
        <time>2019-08-03T13:42:52.000Z</time>
      </trkpt>
      <trkpt lat="45.07917" lon="5.93272">
        <ele>2231</ele>
        <time>2019-08-03T13:43:00.000Z</time>
      </trkpt>
      <trkpt lat="45.07919" lon="5.93277">
        <ele>2231</ele>
        <time>2019-08-03T13:43:04.000Z</time>
      </trkpt>
      <trkpt lat="45.07924" lon="5.93282">
        <ele>2230</ele>
        <time>2019-08-03T13:43:10.000Z</time>
      </trkpt>
      <trkpt lat="45.0793" lon="5.93289">
        <ele>2231</ele>
        <time>2019-08-03T13:43:16.000Z</time>
      </trkpt>
      <trkpt lat="45.07934" lon="5.93298">
        <ele>2232</ele>
        <time>2019-08-03T13:43:23.000Z</time>
      </trkpt>
      <trkpt lat="45.07935" lon="5.93309">
        <ele>2234</ele>
        <time>2019-08-03T13:43:30.000Z</time>
      </trkpt>
      <trkpt lat="45.07934" lon="5.93317">
        <ele>2235</ele>
        <time>2019-08-03T13:43:34.000Z</time>
      </trkpt>
      <trkpt lat="45.07935" lon="5.93329">
        <ele>2233</ele>
        <time>2019-08-03T13:43:41.000Z</time>
      </trkpt>
      <trkpt lat="45.07937" lon="5.93336">
        <ele>2233</ele>
        <time>2019-08-03T13:43:45.000Z</time>
      </trkpt>
      <trkpt lat="45.07938" lon="5.93347">
        <ele>2231</ele>
        <time>2019-08-03T13:43:52.000Z</time>
      </trkpt>
      <trkpt lat="45.07939" lon="5.93354">
        <ele>2231</ele>
        <time>2019-08-03T13:43:56.000Z</time>
      </trkpt>
      <trkpt lat="45.07943" lon="5.93362">
        <ele>2230</ele>
        <time>2019-08-03T13:44:02.000Z</time>
      </trkpt>
      <trkpt lat="45.07945" lon="5.93369">
        <ele>2230</ele>
        <time>2019-08-03T13:44:06.000Z</time>
      </trkpt>
      <trkpt lat="45.07947" lon="5.93376">
        <ele>2230</ele>
        <time>2019-08-03T13:44:12.000Z</time>
      </trkpt>
      <trkpt lat="45.07951" lon="5.93382">
        <ele>2232</ele>
        <time>2019-08-03T13:44:20.000Z</time>
      </trkpt>
      <trkpt lat="45.07952" lon="5.93389">
        <ele>2232</ele>
        <time>2019-08-03T13:45:06.000Z</time>
      </trkpt>
      <trkpt lat="45.07952" lon="5.93397">
        <ele>2232</ele>
        <time>2019-08-03T13:45:14.000Z</time>
      </trkpt>
      <trkpt lat="45.07955" lon="5.93404">
        <ele>2230</ele>
        <time>2019-08-03T13:45:21.000Z</time>
      </trkpt>
      <trkpt lat="45.07957" lon="5.93412">
        <ele>2229</ele>
        <time>2019-08-03T13:45:25.000Z</time>
      </trkpt>
      <trkpt lat="45.07958" lon="5.93418">
        <ele>2229</ele>
        <time>2019-08-03T13:45:28.000Z</time>
      </trkpt>
      <trkpt lat="45.07962" lon="5.93427">
        <ele>2228</ele>
        <time>2019-08-03T13:45:35.000Z</time>
      </trkpt>
      <trkpt lat="45.07962" lon="5.93433">
        <ele>2228</ele>
        <time>2019-08-03T13:45:39.000Z</time>
      </trkpt>
      <trkpt lat="45.07963" lon="5.93442">
        <ele>2229</ele>
        <time>2019-08-03T13:45:45.000Z</time>
      </trkpt>
      <trkpt lat="45.07965" lon="5.9345">
        <ele>2229</ele>
        <time>2019-08-03T13:45:51.000Z</time>
      </trkpt>
      <trkpt lat="45.07966" lon="5.93457">
        <ele>2228</ele>
        <time>2019-08-03T13:45:55.000Z</time>
      </trkpt>
      <trkpt lat="45.07967" lon="5.93467">
        <ele>2228</ele>
        <time>2019-08-03T13:46:02.000Z</time>
      </trkpt>
      <trkpt lat="45.07972" lon="5.93474">
        <ele>2229</ele>
        <time>2019-08-03T13:46:10.000Z</time>
      </trkpt>
      <trkpt lat="45.07976" lon="5.93476">
        <ele>2230</ele>
        <time>2019-08-03T13:46:17.000Z</time>
      </trkpt>
      <trkpt lat="45.07978" lon="5.93484">
        <ele>2231</ele>
        <time>2019-08-03T13:46:27.000Z</time>
      </trkpt>
      <trkpt lat="45.0798" lon="5.9349">
        <ele>2230</ele>
        <time>2019-08-03T13:46:34.000Z</time>
      </trkpt>
      <trkpt lat="45.07984" lon="5.93498">
        <ele>2231</ele>
        <time>2019-08-03T13:46:44.000Z</time>
      </trkpt>
      <trkpt lat="45.07988" lon="5.93502">
        <ele>2233</ele>
        <time>2019-08-03T13:46:58.000Z</time>
      </trkpt>
      <trkpt lat="45.07992" lon="5.93504">
        <ele>2234</ele>
        <time>2019-08-03T13:47:07.000Z</time>
      </trkpt>
      <trkpt lat="45.07997" lon="5.93507">
        <ele>2235</ele>
        <time>2019-08-03T13:47:26.000Z</time>
      </trkpt>
      <trkpt lat="45.08002" lon="5.93509">
        <ele>2237</ele>
        <time>2019-08-03T13:47:33.000Z</time>
      </trkpt>
      <trkpt lat="45.08006" lon="5.93512">
        <ele>2237</ele>
        <time>2019-08-03T13:47:39.000Z</time>
      </trkpt>
      <trkpt lat="45.08011" lon="5.93518">
        <ele>2239</ele>
        <time>2019-08-03T13:47:46.000Z</time>
      </trkpt>
      <trkpt lat="45.08015" lon="5.93525">
        <ele>2241</ele>
        <time>2019-08-03T13:47:57.000Z</time>
      </trkpt>
      <trkpt lat="45.08017" lon="5.9353">
        <ele>2243</ele>
        <time>2019-08-03T13:48:08.000Z</time>
      </trkpt>
      <trkpt lat="45.08019" lon="5.93537">
        <ele>2247</ele>
        <time>2019-08-03T13:48:32.000Z</time>
      </trkpt>
      <trkpt lat="45.08022" lon="5.93542">
        <ele>2249</ele>
        <time>2019-08-03T13:48:40.000Z</time>
      </trkpt>
      <trkpt lat="45.08024" lon="5.93551">
        <ele>2251</ele>
        <time>2019-08-03T13:48:49.000Z</time>
      </trkpt>
      <trkpt lat="45.08025" lon="5.93558">
        <ele>2251</ele>
        <time>2019-08-03T13:48:56.000Z</time>
      </trkpt>
      <trkpt lat="45.0803" lon="5.93558">
        <ele>2253</ele>
        <time>2019-08-03T13:49:16.000Z</time>
      </trkpt>
      <trkpt lat="45.08034" lon="5.93559">
        <ele>2254</ele>
        <time>2019-08-03T13:49:23.000Z</time>
      </trkpt>
      <trkpt lat="45.0804" lon="5.9356">
        <ele>2254</ele>
        <time>2019-08-03T13:49:31.000Z</time>
      </trkpt>
      <trkpt lat="45.08048" lon="5.93562">
        <ele>2253</ele>
        <time>2019-08-03T13:49:39.000Z</time>
      </trkpt>
      <trkpt lat="45.08052" lon="5.93563">
        <ele>2253</ele>
        <time>2019-08-03T13:49:43.000Z</time>
      </trkpt>
      <trkpt lat="45.08056" lon="5.93568">
        <ele>2254</ele>
        <time>2019-08-03T13:49:49.000Z</time>
      </trkpt>
      <trkpt lat="45.08061" lon="5.93572">
        <ele>2255</ele>
        <time>2019-08-03T13:49:56.000Z</time>
      </trkpt>
      <trkpt lat="45.08066" lon="5.93575">
        <ele>2257</ele>
        <time>2019-08-03T13:50:03.000Z</time>
      </trkpt>
      <trkpt lat="45.08071" lon="5.93576">
        <ele>2260</ele>
        <time>2019-08-03T13:50:09.000Z</time>
      </trkpt>
      <trkpt lat="45.08076" lon="5.93579">
        <ele>2262</ele>
        <time>2019-08-03T13:50:16.000Z</time>
      </trkpt>
      <trkpt lat="45.08081" lon="5.93582">
        <ele>2265</ele>
        <time>2019-08-03T13:50:23.000Z</time>
      </trkpt>
      <trkpt lat="45.08086" lon="5.93584">
        <ele>2265</ele>
        <time>2019-08-03T13:50:30.000Z</time>
      </trkpt>
      <trkpt lat="45.08092" lon="5.93586">
        <ele>2265</ele>
        <time>2019-08-03T13:50:37.000Z</time>
      </trkpt>
      <trkpt lat="45.08098" lon="5.93588">
        <ele>2267</ele>
        <time>2019-08-03T13:50:47.000Z</time>
      </trkpt>
      <trkpt lat="45.08103" lon="5.93588">
        <ele>2269</ele>
        <time>2019-08-03T13:50:54.000Z</time>
      </trkpt>
      <trkpt lat="45.08108" lon="5.93587">
        <ele>2269</ele>
        <time>2019-08-03T13:51:02.000Z</time>
      </trkpt>
      <trkpt lat="45.08114" lon="5.93591">
        <ele>2271</ele>
        <time>2019-08-03T13:51:10.000Z</time>
      </trkpt>
      <trkpt lat="45.08119" lon="5.93593">
        <ele>2270</ele>
        <time>2019-08-03T13:51:27.000Z</time>
      </trkpt>
      <trkpt lat="45.08125" lon="5.93597">
        <ele>2271</ele>
        <time>2019-08-03T13:51:34.000Z</time>
      </trkpt>
      <trkpt lat="45.08131" lon="5.93604">
        <ele>2272</ele>
        <time>2019-08-03T13:51:42.000Z</time>
      </trkpt>
      <trkpt lat="45.08135" lon="5.93611">
        <ele>2273</ele>
        <time>2019-08-03T13:51:50.000Z</time>
      </trkpt>
      <trkpt lat="45.08133" lon="5.9362">
        <ele>2275</ele>
        <time>2019-08-03T13:53:22.000Z</time>
      </trkpt>
      <trkpt lat="45.0814" lon="5.93624">
        <ele>2274</ele>
        <time>2019-08-03T13:53:30.000Z</time>
      </trkpt>
      <trkpt lat="45.08147" lon="5.93629">
        <ele>2274</ele>
        <time>2019-08-03T13:53:38.000Z</time>
      </trkpt>
      <trkpt lat="45.08151" lon="5.93636">
        <ele>2274</ele>
        <time>2019-08-03T13:53:46.000Z</time>
      </trkpt>
      <trkpt lat="45.08155" lon="5.93644">
        <ele>2273</ele>
        <time>2019-08-03T13:54:00.000Z</time>
      </trkpt>
      <trkpt lat="45.08159" lon="5.9365">
        <ele>2273</ele>
        <time>2019-08-03T13:54:04.000Z</time>
      </trkpt>
      <trkpt lat="45.08162" lon="5.93655">
        <ele>2273</ele>
        <time>2019-08-03T13:54:08.000Z</time>
      </trkpt>
      <trkpt lat="45.08165" lon="5.93664">
        <ele>2273</ele>
        <time>2019-08-03T13:54:15.000Z</time>
      </trkpt>
      <trkpt lat="45.08169" lon="5.93673">
        <ele>2274</ele>
        <time>2019-08-03T13:54:40.000Z</time>
      </trkpt>
      <trkpt lat="45.08175" lon="5.93681">
        <ele>2273</ele>
        <time>2019-08-03T13:54:48.000Z</time>
      </trkpt>
      <trkpt lat="45.08179" lon="5.93686">
        <ele>2274</ele>
        <time>2019-08-03T13:54:52.000Z</time>
      </trkpt>
      <trkpt lat="45.08183" lon="5.9369">
        <ele>2274</ele>
        <time>2019-08-03T13:54:56.000Z</time>
      </trkpt>
      <trkpt lat="45.08187" lon="5.93698">
        <ele>2275</ele>
        <time>2019-08-03T13:55:03.000Z</time>
      </trkpt>
      <trkpt lat="45.0819" lon="5.93703">
        <ele>2274</ele>
        <time>2019-08-03T13:55:07.000Z</time>
      </trkpt>
      <trkpt lat="45.08195" lon="5.93712">
        <ele>2275</ele>
        <time>2019-08-03T13:55:14.000Z</time>
      </trkpt>
      <trkpt lat="45.082" lon="5.93721">
        <ele>2276</ele>
        <time>2019-08-03T13:55:21.000Z</time>
      </trkpt>
      <trkpt lat="45.08205" lon="5.93726">
        <ele>2276</ele>
        <time>2019-08-03T13:55:25.000Z</time>
      </trkpt>
      <trkpt lat="45.08209" lon="5.93737">
        <ele>2276</ele>
        <time>2019-08-03T13:55:32.000Z</time>
      </trkpt>
      <trkpt lat="45.08214" lon="5.93746">
        <ele>2275</ele>
        <time>2019-08-03T13:55:39.000Z</time>
      </trkpt>
      <trkpt lat="45.08217" lon="5.93751">
        <ele>2277</ele>
        <time>2019-08-03T13:55:43.000Z</time>
      </trkpt>
      <trkpt lat="45.08221" lon="5.93757">
        <ele>2277</ele>
        <time>2019-08-03T13:55:49.000Z</time>
      </trkpt>
      <trkpt lat="45.08224" lon="5.93762">
        <ele>2277</ele>
        <time>2019-08-03T13:55:53.000Z</time>
      </trkpt>
      <trkpt lat="45.0823" lon="5.93769">
        <ele>2278</ele>
        <time>2019-08-03T13:56:00.000Z</time>
      </trkpt>
      <trkpt lat="45.08232" lon="5.93775">
        <ele>2278</ele>
        <time>2019-08-03T13:56:04.000Z</time>
      </trkpt>
      <trkpt lat="45.08237" lon="5.93783">
        <ele>2278</ele>
        <time>2019-08-03T13:56:11.000Z</time>
      </trkpt>
      <trkpt lat="45.08242" lon="5.93787">
        <ele>2280</ele>
        <time>2019-08-03T13:56:18.000Z</time>
      </trkpt>
      <trkpt lat="45.08249" lon="5.93791">
        <ele>2281</ele>
        <time>2019-08-03T13:56:25.000Z</time>
      </trkpt>
      <trkpt lat="45.08255" lon="5.93793">
        <ele>2282</ele>
        <time>2019-08-03T13:56:32.000Z</time>
      </trkpt>
      <trkpt lat="45.08261" lon="5.93796">
        <ele>2283</ele>
        <time>2019-08-03T13:56:39.000Z</time>
      </trkpt>
      <trkpt lat="45.08265" lon="5.938">
        <ele>2283</ele>
        <time>2019-08-03T13:56:43.000Z</time>
      </trkpt>
      <trkpt lat="45.08271" lon="5.93808">
        <ele>2286</ele>
        <time>2019-08-03T13:56:50.000Z</time>
      </trkpt>
      <trkpt lat="45.08275" lon="5.93814">
        <ele>2286</ele>
        <time>2019-08-03T13:56:56.000Z</time>
      </trkpt>
      <trkpt lat="45.08279" lon="5.93818">
        <ele>2288</ele>
        <time>2019-08-03T13:57:03.000Z</time>
      </trkpt>
      <trkpt lat="45.08281" lon="5.93825">
        <ele>2290</ele>
        <time>2019-08-03T13:57:55.000Z</time>
      </trkpt>
      <trkpt lat="45.08279" lon="5.93831">
        <ele>2292</ele>
        <time>2019-08-03T13:58:08.000Z</time>
      </trkpt>
      <trkpt lat="45.08284" lon="5.93841">
        <ele>2292</ele>
        <time>2019-08-03T13:58:18.000Z</time>
      </trkpt>
      <trkpt lat="45.08287" lon="5.93846">
        <ele>2293</ele>
        <time>2019-08-03T13:58:22.000Z</time>
      </trkpt>
      <trkpt lat="45.08292" lon="5.93852">
        <ele>2295</ele>
        <time>2019-08-03T13:58:28.000Z</time>
      </trkpt>
      <trkpt lat="45.08297" lon="5.93858">
        <ele>2294</ele>
        <time>2019-08-03T13:58:35.000Z</time>
      </trkpt>
      <trkpt lat="45.08302" lon="5.93865">
        <ele>2296</ele>
        <time>2019-08-03T13:58:41.000Z</time>
      </trkpt>
      <trkpt lat="45.08302" lon="5.93872">
        <ele>2296</ele>
        <time>2019-08-03T13:58:47.000Z</time>
      </trkpt>
      <trkpt lat="45.08304" lon="5.93881">
        <ele>2298</ele>
        <time>2019-08-03T13:58:54.000Z</time>
      </trkpt>
      <trkpt lat="45.08308" lon="5.9389">
        <ele>2299</ele>
        <time>2019-08-03T13:59:00.000Z</time>
      </trkpt>
      <trkpt lat="45.0831" lon="5.93899">
        <ele>2300</ele>
        <time>2019-08-03T13:59:13.000Z</time>
      </trkpt>
      <trkpt lat="45.08313" lon="5.93905">
        <ele>2300</ele>
        <time>2019-08-03T13:59:17.000Z</time>
      </trkpt>
      <trkpt lat="45.08314" lon="5.93914">
        <ele>2300</ele>
        <time>2019-08-03T13:59:23.000Z</time>
      </trkpt>
      <trkpt lat="45.08313" lon="5.93923">
        <ele>2301</ele>
        <time>2019-08-03T13:59:30.000Z</time>
      </trkpt>
      <trkpt lat="45.08316" lon="5.93931">
        <ele>2302</ele>
        <time>2019-08-03T13:59:38.000Z</time>
      </trkpt>
      <trkpt lat="45.08319" lon="5.93938">
        <ele>2302</ele>
        <time>2019-08-03T13:59:45.000Z</time>
      </trkpt>
      <trkpt lat="45.08321" lon="5.93948">
        <ele>2303</ele>
        <time>2019-08-03T13:59:53.000Z</time>
      </trkpt>
      <trkpt lat="45.08319" lon="5.93954">
        <ele>2302</ele>
        <time>2019-08-03T14:00:57.000Z</time>
      </trkpt>
      <trkpt lat="45.08319" lon="5.93962">
        <ele>2304</ele>
        <time>2019-08-03T14:01:26.000Z</time>
      </trkpt>
      <trkpt lat="45.08321" lon="5.93973">
        <ele>2303</ele>
        <time>2019-08-03T14:01:33.000Z</time>
      </trkpt>
      <trkpt lat="45.08324" lon="5.9398">
        <ele>2303</ele>
        <time>2019-08-03T14:01:40.000Z</time>
      </trkpt>
      <trkpt lat="45.08326" lon="5.93988">
        <ele>2302</ele>
        <time>2019-08-03T14:01:46.000Z</time>
      </trkpt>
      <trkpt lat="45.08328" lon="5.93994">
        <ele>2301</ele>
        <time>2019-08-03T14:01:50.000Z</time>
      </trkpt>
      <trkpt lat="45.08334" lon="5.93998">
        <ele>2301</ele>
        <time>2019-08-03T14:01:58.000Z</time>
      </trkpt>
      <trkpt lat="45.08338" lon="5.94001">
        <ele>2302</ele>
        <time>2019-08-03T14:02:05.000Z</time>
      </trkpt>
      <trkpt lat="45.08344" lon="5.94006">
        <ele>2302</ele>
        <time>2019-08-03T14:02:12.000Z</time>
      </trkpt>
      <trkpt lat="45.08347" lon="5.94011">
        <ele>2302</ele>
        <time>2019-08-03T14:02:19.000Z</time>
      </trkpt>
      <trkpt lat="45.08352" lon="5.94017">
        <ele>2302</ele>
        <time>2019-08-03T14:02:25.000Z</time>
      </trkpt>
      <trkpt lat="45.08356" lon="5.94021">
        <ele>2302</ele>
        <time>2019-08-03T14:02:52.000Z</time>
      </trkpt>
      <trkpt lat="45.08357" lon="5.94028">
        <ele>2301</ele>
        <time>2019-08-03T14:03:02.000Z</time>
      </trkpt>
      <trkpt lat="45.08353" lon="5.94038">
        <ele>2299</ele>
        <time>2019-08-03T14:03:10.000Z</time>
      </trkpt>
      <trkpt lat="45.08353" lon="5.94046">
        <ele>2298</ele>
        <time>2019-08-03T14:03:20.000Z</time>
      </trkpt>
      <trkpt lat="45.08354" lon="5.94053">
        <ele>2295</ele>
        <time>2019-08-03T14:03:28.000Z</time>
      </trkpt>
      <trkpt lat="45.08355" lon="5.94061">
        <ele>2292</ele>
        <time>2019-08-03T14:03:35.000Z</time>
      </trkpt>
      <trkpt lat="45.08352" lon="5.94068">
        <ele>2292</ele>
        <time>2019-08-03T14:03:42.000Z</time>
      </trkpt>
      <trkpt lat="45.08351" lon="5.94079">
        <ele>2290</ele>
        <time>2019-08-03T14:03:49.000Z</time>
      </trkpt>
      <trkpt lat="45.08354" lon="5.94086">
        <ele>2289</ele>
        <time>2019-08-03T14:03:53.000Z</time>
      </trkpt>
      <trkpt lat="45.08356" lon="5.94098">
        <ele>2288</ele>
        <time>2019-08-03T14:04:00.000Z</time>
      </trkpt>
      <trkpt lat="45.08356" lon="5.94104">
        <ele>2287</ele>
        <time>2019-08-03T14:04:04.000Z</time>
      </trkpt>
      <trkpt lat="45.08357" lon="5.94111">
        <ele>2286</ele>
        <time>2019-08-03T14:04:07.000Z</time>
      </trkpt>
      <trkpt lat="45.08359" lon="5.94118">
        <ele>2286</ele>
        <time>2019-08-03T14:04:11.000Z</time>
      </trkpt>
      <trkpt lat="45.08363" lon="5.94129">
        <ele>2286</ele>
        <time>2019-08-03T14:04:18.000Z</time>
      </trkpt>
      <trkpt lat="45.08367" lon="5.9414">
        <ele>2285</ele>
        <time>2019-08-03T14:04:25.000Z</time>
      </trkpt>
      <trkpt lat="45.08369" lon="5.94153">
        <ele>2284</ele>
        <time>2019-08-03T14:04:32.000Z</time>
      </trkpt>
      <trkpt lat="45.0837" lon="5.94166">
        <ele>2284</ele>
        <time>2019-08-03T14:04:39.000Z</time>
      </trkpt>
      <trkpt lat="45.08373" lon="5.94178">
        <ele>2284</ele>
        <time>2019-08-03T14:04:46.000Z</time>
      </trkpt>
      <trkpt lat="45.08373" lon="5.94189">
        <ele>2283</ele>
        <time>2019-08-03T14:04:52.000Z</time>
      </trkpt>
      <trkpt lat="45.08374" lon="5.94197">
        <ele>2283</ele>
        <time>2019-08-03T14:04:56.000Z</time>
      </trkpt>
      <trkpt lat="45.08374" lon="5.94203">
        <ele>2283</ele>
        <time>2019-08-03T14:05:00.000Z</time>
      </trkpt>
      <trkpt lat="45.08378" lon="5.94213">
        <ele>2281</ele>
        <time>2019-08-03T14:05:06.000Z</time>
      </trkpt>
      <trkpt lat="45.08384" lon="5.94224">
        <ele>2282</ele>
        <time>2019-08-03T14:05:13.000Z</time>
      </trkpt>
      <trkpt lat="45.08388" lon="5.94233">
        <ele>2282</ele>
        <time>2019-08-03T14:05:19.000Z</time>
      </trkpt>
      <trkpt lat="45.08391" lon="5.94239">
        <ele>2282</ele>
        <time>2019-08-03T14:05:23.000Z</time>
      </trkpt>
      <trkpt lat="45.08395" lon="5.94248">
        <ele>2283</ele>
        <time>2019-08-03T14:05:29.000Z</time>
      </trkpt>
      <trkpt lat="45.08397" lon="5.9426">
        <ele>2283</ele>
        <time>2019-08-03T14:05:36.000Z</time>
      </trkpt>
      <trkpt lat="45.08398" lon="5.94267">
        <ele>2283</ele>
        <time>2019-08-03T14:05:40.000Z</time>
      </trkpt>
      <trkpt lat="45.08398" lon="5.94275">
        <ele>2283</ele>
        <time>2019-08-03T14:05:44.000Z</time>
      </trkpt>
      <trkpt lat="45.08397" lon="5.94282">
        <ele>2283</ele>
        <time>2019-08-03T14:05:48.000Z</time>
      </trkpt>
      <trkpt lat="45.08396" lon="5.9429">
        <ele>2284</ele>
        <time>2019-08-03T14:05:52.000Z</time>
      </trkpt>
      <trkpt lat="45.08393" lon="5.94301">
        <ele>2282</ele>
        <time>2019-08-03T14:05:59.000Z</time>
      </trkpt>
      <trkpt lat="45.08393" lon="5.94314">
        <ele>2282</ele>
        <time>2019-08-03T14:06:06.000Z</time>
      </trkpt>
      <trkpt lat="45.08393" lon="5.94321">
        <ele>2281</ele>
        <time>2019-08-03T14:06:10.000Z</time>
      </trkpt>
      <trkpt lat="45.08394" lon="5.94332">
        <ele>2279</ele>
        <time>2019-08-03T14:06:17.000Z</time>
      </trkpt>
      <trkpt lat="45.08394" lon="5.94339">
        <ele>2278</ele>
        <time>2019-08-03T14:06:21.000Z</time>
      </trkpt>
      <trkpt lat="45.08394" lon="5.94347">
        <ele>2277</ele>
        <time>2019-08-03T14:06:25.000Z</time>
      </trkpt>
      <trkpt lat="45.08393" lon="5.9436">
        <ele>2276</ele>
        <time>2019-08-03T14:06:32.000Z</time>
      </trkpt>
      <trkpt lat="45.08392" lon="5.94371">
        <ele>2276</ele>
        <time>2019-08-03T14:06:38.000Z</time>
      </trkpt>
      <trkpt lat="45.0839" lon="5.94384">
        <ele>2276</ele>
        <time>2019-08-03T14:06:45.000Z</time>
      </trkpt>
      <trkpt lat="45.0839" lon="5.94391">
        <ele>2275</ele>
        <time>2019-08-03T14:06:49.000Z</time>
      </trkpt>
      <trkpt lat="45.08389" lon="5.94402">
        <ele>2276</ele>
        <time>2019-08-03T14:06:56.000Z</time>
      </trkpt>
      <trkpt lat="45.0839" lon="5.94413">
        <ele>2278</ele>
        <time>2019-08-03T14:07:03.000Z</time>
      </trkpt>
      <trkpt lat="45.08388" lon="5.94425">
        <ele>2278</ele>
        <time>2019-08-03T14:07:10.000Z</time>
      </trkpt>
      <trkpt lat="45.08387" lon="5.94441">
        <ele>2278</ele>
        <time>2019-08-03T14:07:18.000Z</time>
      </trkpt>
      <trkpt lat="45.08387" lon="5.94449">
        <ele>2278</ele>
        <time>2019-08-03T14:07:22.000Z</time>
      </trkpt>
      <trkpt lat="45.08388" lon="5.94456">
        <ele>2279</ele>
        <time>2019-08-03T14:07:26.000Z</time>
      </trkpt>
      <trkpt lat="45.0839" lon="5.94464">
        <ele>2279</ele>
        <time>2019-08-03T14:07:30.000Z</time>
      </trkpt>
      <trkpt lat="45.0839" lon="5.94474">
        <ele>2280</ele>
        <time>2019-08-03T14:07:36.000Z</time>
      </trkpt>
      <trkpt lat="45.08392" lon="5.94481">
        <ele>2281</ele>
        <time>2019-08-03T14:07:40.000Z</time>
      </trkpt>
      <trkpt lat="45.08395" lon="5.94492">
        <ele>2282</ele>
        <time>2019-08-03T14:07:46.000Z</time>
      </trkpt>
      <trkpt lat="45.08399" lon="5.945">
        <ele>2282</ele>
        <time>2019-08-03T14:07:52.000Z</time>
      </trkpt>
      <trkpt lat="45.084" lon="5.94508">
        <ele>2282</ele>
        <time>2019-08-03T14:07:58.000Z</time>
      </trkpt>
      <trkpt lat="45.08401" lon="5.94515">
        <ele>2281</ele>
        <time>2019-08-03T14:08:02.000Z</time>
      </trkpt>
      <trkpt lat="45.084" lon="5.94523">
        <ele>2283</ele>
        <time>2019-08-03T14:08:10.000Z</time>
      </trkpt>
      <trkpt lat="45.08404" lon="5.94532">
        <ele>2287</ele>
        <time>2019-08-03T14:08:18.000Z</time>
      </trkpt>
      <trkpt lat="45.08404" lon="5.94538">
        <ele>2288</ele>
        <time>2019-08-03T14:08:25.000Z</time>
      </trkpt>
      <trkpt lat="45.08405" lon="5.94546">
        <ele>2290</ele>
        <time>2019-08-03T14:08:32.000Z</time>
      </trkpt>
      <trkpt lat="45.08408" lon="5.94555">
        <ele>2291</ele>
        <time>2019-08-03T14:08:44.000Z</time>
      </trkpt>
      <trkpt lat="45.08409" lon="5.94562">
        <ele>2293</ele>
        <time>2019-08-03T14:08:51.000Z</time>
      </trkpt>
      <trkpt lat="45.08412" lon="5.94568">
        <ele>2295</ele>
        <time>2019-08-03T14:09:01.000Z</time>
      </trkpt>
      <trkpt lat="45.08416" lon="5.94573">
        <ele>2296</ele>
        <time>2019-08-03T14:09:14.000Z</time>
      </trkpt>
      <trkpt lat="45.08418" lon="5.94579">
        <ele>2297</ele>
        <time>2019-08-03T14:09:22.000Z</time>
      </trkpt>
      <trkpt lat="45.08419" lon="5.94587">
        <ele>2299</ele>
        <time>2019-08-03T14:09:30.000Z</time>
      </trkpt>
      <trkpt lat="45.0842" lon="5.94595">
        <ele>2303</ele>
        <time>2019-08-03T14:09:40.000Z</time>
      </trkpt>
      <trkpt lat="45.08421" lon="5.94602">
        <ele>2303</ele>
        <time>2019-08-03T14:09:46.000Z</time>
      </trkpt>
      <trkpt lat="45.08425" lon="5.94607">
        <ele>2304</ele>
        <time>2019-08-03T14:09:54.000Z</time>
      </trkpt>
      <trkpt lat="45.08428" lon="5.94613">
        <ele>2307</ele>
        <time>2019-08-03T14:10:06.000Z</time>
      </trkpt>
      <trkpt lat="45.08431" lon="5.94618">
        <ele>2308</ele>
        <time>2019-08-03T14:10:13.000Z</time>
      </trkpt>
      <trkpt lat="45.08436" lon="5.94624">
        <ele>2311</ele>
        <time>2019-08-03T14:10:24.000Z</time>
      </trkpt>
      <trkpt lat="45.08438" lon="5.9463">
        <ele>2313</ele>
        <time>2019-08-03T14:10:32.000Z</time>
      </trkpt>
      <trkpt lat="45.08441" lon="5.94638">
        <ele>2316</ele>
        <time>2019-08-03T14:10:43.000Z</time>
      </trkpt>
      <trkpt lat="45.08443" lon="5.94645">
        <ele>2317</ele>
        <time>2019-08-03T14:10:53.000Z</time>
      </trkpt>
      <trkpt lat="45.08444" lon="5.94653">
        <ele>2318</ele>
        <time>2019-08-03T14:11:04.000Z</time>
      </trkpt>
      <trkpt lat="45.08443" lon="5.94664">
        <ele>2320</ele>
        <time>2019-08-03T14:11:14.000Z</time>
      </trkpt>
      <trkpt lat="45.08443" lon="5.94676">
        <ele>2322</ele>
        <time>2019-08-03T14:11:22.000Z</time>
      </trkpt>
      <trkpt lat="45.08443" lon="5.94684">
        <ele>2322</ele>
        <time>2019-08-03T14:11:29.000Z</time>
      </trkpt>
      <trkpt lat="45.08444" lon="5.94692">
        <ele>2323</ele>
        <time>2019-08-03T14:11:35.000Z</time>
      </trkpt>
      <trkpt lat="45.08444" lon="5.947">
        <ele>2324</ele>
        <time>2019-08-03T14:11:42.000Z</time>
      </trkpt>
      <trkpt lat="45.08446" lon="5.94709">
        <ele>2323</ele>
        <time>2019-08-03T14:11:50.000Z</time>
      </trkpt>
      <trkpt lat="45.08448" lon="5.94715">
        <ele>2324</ele>
        <time>2019-08-03T14:11:57.000Z</time>
      </trkpt>
      <trkpt lat="45.08451" lon="5.94721">
        <ele>2325</ele>
        <time>2019-08-03T14:12:01.000Z</time>
      </trkpt>
      <trkpt lat="45.08453" lon="5.94731">
        <ele>2326</ele>
        <time>2019-08-03T14:12:08.000Z</time>
      </trkpt>
      <trkpt lat="45.08456" lon="5.94741">
        <ele>2327</ele>
        <time>2019-08-03T14:12:15.000Z</time>
      </trkpt>
      <trkpt lat="45.08459" lon="5.9475">
        <ele>2329</ele>
        <time>2019-08-03T14:12:22.000Z</time>
      </trkpt>
      <trkpt lat="45.08462" lon="5.94759">
        <ele>2331</ele>
        <time>2019-08-03T14:12:29.000Z</time>
      </trkpt>
      <trkpt lat="45.08465" lon="5.94768">
        <ele>2331</ele>
        <time>2019-08-03T14:12:37.000Z</time>
      </trkpt>
      <trkpt lat="45.08468" lon="5.94776">
        <ele>2331</ele>
        <time>2019-08-03T14:12:44.000Z</time>
      </trkpt>
      <trkpt lat="45.0847" lon="5.94784">
        <ele>2330</ele>
        <time>2019-08-03T14:12:51.000Z</time>
      </trkpt>
      <trkpt lat="45.08474" lon="5.94793">
        <ele>2331</ele>
        <time>2019-08-03T14:12:58.000Z</time>
      </trkpt>
      <trkpt lat="45.08475" lon="5.948">
        <ele>2332</ele>
        <time>2019-08-03T14:13:02.000Z</time>
      </trkpt>
      <trkpt lat="45.08476" lon="5.94808">
        <ele>2333</ele>
        <time>2019-08-03T14:13:09.000Z</time>
      </trkpt>
      <trkpt lat="45.08478" lon="5.94817">
        <ele>2334</ele>
        <time>2019-08-03T14:13:16.000Z</time>
      </trkpt>
      <trkpt lat="45.08481" lon="5.94827">
        <ele>2335</ele>
        <time>2019-08-03T14:13:23.000Z</time>
      </trkpt>
      <trkpt lat="45.08484" lon="5.94835">
        <ele>2336</ele>
        <time>2019-08-03T14:13:29.000Z</time>
      </trkpt>
      <trkpt lat="45.08487" lon="5.9484">
        <ele>2337</ele>
        <time>2019-08-03T14:13:35.000Z</time>
      </trkpt>
      <trkpt lat="45.08489" lon="5.94849">
        <ele>2340</ele>
        <time>2019-08-03T14:15:34.000Z</time>
      </trkpt>
      <trkpt lat="45.0849" lon="5.9486">
        <ele>2341</ele>
        <time>2019-08-03T14:15:42.000Z</time>
      </trkpt>
      <trkpt lat="45.08491" lon="5.94867">
        <ele>2342</ele>
        <time>2019-08-03T14:15:48.000Z</time>
      </trkpt>
      <trkpt lat="45.08494" lon="5.94878">
        <ele>2342</ele>
        <time>2019-08-03T14:15:56.000Z</time>
      </trkpt>
      <trkpt lat="45.08498" lon="5.94885">
        <ele>2345</ele>
        <time>2019-08-03T14:16:04.000Z</time>
      </trkpt>
      <trkpt lat="45.08498" lon="5.94893">
        <ele>2348</ele>
        <time>2019-08-03T14:16:14.000Z</time>
      </trkpt>
      <trkpt lat="45.08501" lon="5.94898">
        <ele>2351</ele>
        <time>2019-08-03T14:16:22.000Z</time>
      </trkpt>
      <trkpt lat="45.08506" lon="5.94902">
        <ele>2351</ele>
        <time>2019-08-03T14:16:33.000Z</time>
      </trkpt>
      <trkpt lat="45.08506" lon="5.9491">
        <ele>2353</ele>
        <time>2019-08-03T14:16:43.000Z</time>
      </trkpt>
      <trkpt lat="45.08507" lon="5.94918">
        <ele>2356</ele>
        <time>2019-08-03T14:16:55.000Z</time>
      </trkpt>
      <trkpt lat="45.08507" lon="5.94926">
        <ele>2357</ele>
        <time>2019-08-03T14:17:02.000Z</time>
      </trkpt>
      <trkpt lat="45.08508" lon="5.94934">
        <ele>2360</ele>
        <time>2019-08-03T14:17:12.000Z</time>
      </trkpt>
      <trkpt lat="45.08511" lon="5.94943">
        <ele>2360</ele>
        <time>2019-08-03T14:17:24.000Z</time>
      </trkpt>
      <trkpt lat="45.08514" lon="5.9495">
        <ele>2362</ele>
        <time>2019-08-03T14:17:32.000Z</time>
      </trkpt>
      <trkpt lat="45.08514" lon="5.94958">
        <ele>2364</ele>
        <time>2019-08-03T14:17:39.000Z</time>
      </trkpt>
      <trkpt lat="45.08518" lon="5.94962">
        <ele>2367</ele>
        <time>2019-08-03T14:17:50.000Z</time>
      </trkpt>
      <trkpt lat="45.08521" lon="5.94967">
        <ele>2369</ele>
        <time>2019-08-03T14:17:57.000Z</time>
      </trkpt>
      <trkpt lat="45.08525" lon="5.94972">
        <ele>2370</ele>
        <time>2019-08-03T14:18:08.000Z</time>
      </trkpt>
      <trkpt lat="45.08529" lon="5.94977">
        <ele>2371</ele>
        <time>2019-08-03T14:18:18.000Z</time>
      </trkpt>
      <trkpt lat="45.08532" lon="5.94983">
        <ele>2374</ele>
        <time>2019-08-03T14:18:28.000Z</time>
      </trkpt>
      <trkpt lat="45.08537" lon="5.94987">
        <ele>2376</ele>
        <time>2019-08-03T14:18:40.000Z</time>
      </trkpt>
      <trkpt lat="45.08542" lon="5.9499">
        <ele>2380</ele>
        <time>2019-08-03T14:18:58.000Z</time>
      </trkpt>
      <trkpt lat="45.08547" lon="5.94994">
        <ele>2382</ele>
        <time>2019-08-03T14:19:10.000Z</time>
      </trkpt>
      <trkpt lat="45.08551" lon="5.94999">
        <ele>2384</ele>
        <time>2019-08-03T14:19:20.000Z</time>
      </trkpt>
      <trkpt lat="45.08557" lon="5.95004">
        <ele>2386</ele>
        <time>2019-08-03T14:19:35.000Z</time>
      </trkpt>
      <trkpt lat="45.08561" lon="5.95008">
        <ele>2388</ele>
        <time>2019-08-03T14:19:45.000Z</time>
      </trkpt>
      <trkpt lat="45.08563" lon="5.95013">
        <ele>2390</ele>
        <time>2019-08-03T14:20:00.000Z</time>
      </trkpt>
      <trkpt lat="45.08567" lon="5.95022">
        <ele>2392</ele>
        <time>2019-08-03T14:20:13.000Z</time>
      </trkpt>
      <trkpt lat="45.08569" lon="5.95028">
        <ele>2396</ele>
        <time>2019-08-03T14:20:26.000Z</time>
      </trkpt>
      <trkpt lat="45.08573" lon="5.95034">
        <ele>2400</ele>
        <time>2019-08-03T14:20:40.000Z</time>
      </trkpt>
      <trkpt lat="45.08575" lon="5.95042">
        <ele>2403</ele>
        <time>2019-08-03T14:20:54.000Z</time>
      </trkpt>
      <trkpt lat="45.08579" lon="5.95047">
        <ele>2404</ele>
        <time>2019-08-03T14:21:10.000Z</time>
      </trkpt>
      <trkpt lat="45.08583" lon="5.9505">
        <ele>2406</ele>
        <time>2019-08-03T14:21:20.000Z</time>
      </trkpt>
      <trkpt lat="45.08585" lon="5.95056">
        <ele>2410</ele>
        <time>2019-08-03T14:21:30.000Z</time>
      </trkpt>
      <trkpt lat="45.08585" lon="5.95063">
        <ele>2413</ele>
        <time>2019-08-03T14:21:41.000Z</time>
      </trkpt>
      <trkpt lat="45.08584" lon="5.95069">
        <ele>2415</ele>
        <time>2019-08-03T14:21:49.000Z</time>
      </trkpt>
      <trkpt lat="45.08582" lon="5.95076">
        <ele>2416</ele>
        <time>2019-08-03T14:21:59.000Z</time>
      </trkpt>
      <trkpt lat="45.08587" lon="5.9508">
        <ele>2416</ele>
        <time>2019-08-03T14:22:43.000Z</time>
      </trkpt>
      <trkpt lat="45.08593" lon="5.95084">
        <ele>2420</ele>
        <time>2019-08-03T14:22:53.000Z</time>
      </trkpt>
      <trkpt lat="45.08599" lon="5.95086">
        <ele>2422</ele>
        <time>2019-08-03T14:23:03.000Z</time>
      </trkpt>
      <trkpt lat="45.08603" lon="5.9509">
        <ele>2423</ele>
        <time>2019-08-03T14:23:11.000Z</time>
      </trkpt>
      <trkpt lat="45.08606" lon="5.95097">
        <ele>2427</ele>
        <time>2019-08-03T14:23:18.000Z</time>
      </trkpt>
      <trkpt lat="45.08606" lon="5.95103">
        <ele>2429</ele>
        <time>2019-08-03T14:23:25.000Z</time>
      </trkpt>
      <trkpt lat="45.08609" lon="5.95109">
        <ele>2432</ele>
        <time>2019-08-03T14:23:33.000Z</time>
      </trkpt>
      <trkpt lat="45.08613" lon="5.95115">
        <ele>2434</ele>
        <time>2019-08-03T14:23:44.000Z</time>
      </trkpt>
      <trkpt lat="45.08613" lon="5.95122">
        <ele>2435</ele>
        <time>2019-08-03T14:23:51.000Z</time>
      </trkpt>
      <trkpt lat="45.08616" lon="5.95128">
        <ele>2435</ele>
        <time>2019-08-03T14:24:00.000Z</time>
      </trkpt>
      <trkpt lat="45.08618" lon="5.95135">
        <ele>2437</ele>
        <time>2019-08-03T14:24:18.000Z</time>
      </trkpt>
      <trkpt lat="45.0862" lon="5.95143">
        <ele>2439</ele>
        <time>2019-08-03T14:24:26.000Z</time>
      </trkpt>
      <trkpt lat="45.08622" lon="5.9515">
        <ele>2441</ele>
        <time>2019-08-03T14:24:33.000Z</time>
      </trkpt>
      <trkpt lat="45.08626" lon="5.95155">
        <ele>2442</ele>
        <time>2019-08-03T14:24:40.000Z</time>
      </trkpt>
      <trkpt lat="45.08629" lon="5.9516">
        <ele>2444</ele>
        <time>2019-08-03T14:24:52.000Z</time>
      </trkpt>
      <trkpt lat="45.08632" lon="5.95167">
        <ele>2448</ele>
        <time>2019-08-03T14:27:17.000Z</time>
      </trkpt>
      <trkpt lat="45.08638" lon="5.95175">
        <ele>2449</ele>
        <time>2019-08-03T14:27:24.000Z</time>
      </trkpt>
      <trkpt lat="45.08641" lon="5.95183">
        <ele>2450</ele>
        <time>2019-08-03T14:27:32.000Z</time>
      </trkpt>
      <trkpt lat="45.08643" lon="5.9519">
        <ele>2451</ele>
        <time>2019-08-03T14:27:38.000Z</time>
      </trkpt>
      <trkpt lat="45.08647" lon="5.952">
        <ele>2451</ele>
        <time>2019-08-03T14:27:46.000Z</time>
      </trkpt>
      <trkpt lat="45.08649" lon="5.95208">
        <ele>2453</ele>
        <time>2019-08-03T14:27:53.000Z</time>
      </trkpt>
      <trkpt lat="45.08652" lon="5.95217">
        <ele>2454</ele>
        <time>2019-08-03T14:28:00.000Z</time>
      </trkpt>
      <trkpt lat="45.08654" lon="5.95227">
        <ele>2455</ele>
        <time>2019-08-03T14:28:07.000Z</time>
      </trkpt>
      <trkpt lat="45.08655" lon="5.95234">
        <ele>2456</ele>
        <time>2019-08-03T14:28:13.000Z</time>
      </trkpt>
      <trkpt lat="45.08657" lon="5.95241">
        <ele>2457</ele>
        <time>2019-08-03T14:28:19.000Z</time>
      </trkpt>
      <trkpt lat="45.0866" lon="5.9525">
        <ele>2457</ele>
        <time>2019-08-03T14:28:27.000Z</time>
      </trkpt>
      <trkpt lat="45.08661" lon="5.95258">
        <ele>2459</ele>
        <time>2019-08-03T14:28:34.000Z</time>
      </trkpt>
      <trkpt lat="45.08661" lon="5.95265">
        <ele>2462</ele>
        <time>2019-08-03T14:28:40.000Z</time>
      </trkpt>
      <trkpt lat="45.08662" lon="5.95273">
        <ele>2465</ele>
        <time>2019-08-03T14:28:48.000Z</time>
      </trkpt>
      <trkpt lat="45.08663" lon="5.95281">
        <ele>2467</ele>
        <time>2019-08-03T14:29:07.000Z</time>
      </trkpt>
      <trkpt lat="45.08665" lon="5.95289">
        <ele>2467</ele>
        <time>2019-08-03T14:29:14.000Z</time>
      </trkpt>
      <trkpt lat="45.08667" lon="5.95296">
        <ele>2468</ele>
        <time>2019-08-03T14:29:21.000Z</time>
      </trkpt>
      <trkpt lat="45.08667" lon="5.95302">
        <ele>2469</ele>
        <time>2019-08-03T14:29:28.000Z</time>
      </trkpt>
      <trkpt lat="45.0867" lon="5.95308">
        <ele>2469</ele>
        <time>2019-08-03T14:29:43.000Z</time>
      </trkpt>
      <trkpt lat="45.08676" lon="5.95312">
        <ele>2471</ele>
        <time>2019-08-03T14:29:52.000Z</time>
      </trkpt>
      <trkpt lat="45.0868" lon="5.95316">
        <ele>2473</ele>
        <time>2019-08-03T14:30:02.000Z</time>
      </trkpt>
      <trkpt lat="45.08684" lon="5.9532">
        <ele>2474</ele>
        <time>2019-08-03T14:30:10.000Z</time>
      </trkpt>
      <trkpt lat="45.0869" lon="5.95323">
        <ele>2476</ele>
        <time>2019-08-03T14:30:22.000Z</time>
      </trkpt>
      <trkpt lat="45.08693" lon="5.95327">
        <ele>2481</ele>
        <time>2019-08-03T14:30:32.000Z</time>
      </trkpt>
      <trkpt lat="45.08698" lon="5.95329">
        <ele>2482</ele>
        <time>2019-08-03T14:30:44.000Z</time>
      </trkpt>
      <trkpt lat="45.08704" lon="5.95329">
        <ele>2483</ele>
        <time>2019-08-03T14:30:54.000Z</time>
      </trkpt>
      <trkpt lat="45.08709" lon="5.95331">
        <ele>2486</ele>
        <time>2019-08-03T14:31:05.000Z</time>
      </trkpt>
      <trkpt lat="45.08714" lon="5.95335">
        <ele>2489</ele>
        <time>2019-08-03T14:31:18.000Z</time>
      </trkpt>
      <trkpt lat="45.08719" lon="5.95338">
        <ele>2490</ele>
        <time>2019-08-03T14:31:32.000Z</time>
      </trkpt>
      <trkpt lat="45.08723" lon="5.95344">
        <ele>2494</ele>
        <time>2019-08-03T14:31:40.000Z</time>
      </trkpt>
      <trkpt lat="45.08728" lon="5.95349">
        <ele>2496</ele>
        <time>2019-08-03T14:31:50.000Z</time>
      </trkpt>
      <trkpt lat="45.08733" lon="5.95353">
        <ele>2496</ele>
        <time>2019-08-03T14:32:01.000Z</time>
      </trkpt>
      <trkpt lat="45.08738" lon="5.95357">
        <ele>2496</ele>
        <time>2019-08-03T14:32:08.000Z</time>
      </trkpt>
      <trkpt lat="45.08742" lon="5.9536">
        <ele>2500</ele>
        <time>2019-08-03T14:32:21.000Z</time>
      </trkpt>
      <trkpt lat="45.08745" lon="5.95366">
        <ele>2500</ele>
        <time>2019-08-03T14:32:28.000Z</time>
      </trkpt>
      <trkpt lat="45.08751" lon="5.95369">
        <ele>2504</ele>
        <time>2019-08-03T14:32:39.000Z</time>
      </trkpt>
      <trkpt lat="45.08758" lon="5.95372">
        <ele>2505</ele>
        <time>2019-08-03T14:32:59.000Z</time>
      </trkpt>
      <trkpt lat="45.08761" lon="5.95379">
        <ele>2507</ele>
        <time>2019-08-03T14:33:06.000Z</time>
      </trkpt>
      <trkpt lat="45.08766" lon="5.95386">
        <ele>2508</ele>
        <time>2019-08-03T14:33:16.000Z</time>
      </trkpt>
      <trkpt lat="45.0877" lon="5.95394">
        <ele>2509</ele>
        <time>2019-08-03T14:33:27.000Z</time>
      </trkpt>
      <trkpt lat="45.08772" lon="5.95401">
        <ele>2512</ele>
        <time>2019-08-03T14:33:39.000Z</time>
      </trkpt>
      <trkpt lat="45.08776" lon="5.95404">
        <ele>2514</ele>
        <time>2019-08-03T14:34:01.000Z</time>
      </trkpt>
      <trkpt lat="45.0878" lon="5.95409">
        <ele>2517</ele>
        <time>2019-08-03T14:34:11.000Z</time>
      </trkpt>
      <trkpt lat="45.08783" lon="5.95414">
        <ele>2520</ele>
        <time>2019-08-03T14:34:21.000Z</time>
      </trkpt>
      <trkpt lat="45.08782" lon="5.95421">
        <ele>2521</ele>
        <time>2019-08-03T14:34:32.000Z</time>
      </trkpt>
      <trkpt lat="45.08785" lon="5.95428">
        <ele>2523</ele>
        <time>2019-08-03T14:34:56.000Z</time>
      </trkpt>
      <trkpt lat="45.08784" lon="5.95434">
        <ele>2527</ele>
        <time>2019-08-03T14:35:04.000Z</time>
      </trkpt>
      <trkpt lat="45.08784" lon="5.95442">
        <ele>2529</ele>
        <time>2019-08-03T14:35:16.000Z</time>
      </trkpt>
      <trkpt lat="45.08788" lon="5.9545">
        <ele>2532</ele>
        <time>2019-08-03T14:35:30.000Z</time>
      </trkpt>
      <trkpt lat="45.0879" lon="5.95456">
        <ele>2533</ele>
        <time>2019-08-03T14:35:42.000Z</time>
      </trkpt>
      <trkpt lat="45.08794" lon="5.9546">
        <ele>2536</ele>
        <time>2019-08-03T14:35:56.000Z</time>
      </trkpt>
      <trkpt lat="45.08798" lon="5.95464">
        <ele>2539</ele>
        <time>2019-08-03T14:36:08.000Z</time>
      </trkpt>
      <trkpt lat="45.08799" lon="5.95471">
        <ele>2542</ele>
        <time>2019-08-03T14:36:16.000Z</time>
      </trkpt>
      <trkpt lat="45.08801" lon="5.95477">
        <ele>2542</ele>
        <time>2019-08-03T14:36:28.000Z</time>
      </trkpt>
      <trkpt lat="45.08804" lon="5.95483">
        <ele>2545</ele>
        <time>2019-08-03T14:37:04.000Z</time>
      </trkpt>
      <trkpt lat="45.08805" lon="5.95491">
        <ele>2547</ele>
        <time>2019-08-03T14:37:15.000Z</time>
      </trkpt>
      <trkpt lat="45.08805" lon="5.95498">
        <ele>2548</ele>
        <time>2019-08-03T14:37:25.000Z</time>
      </trkpt>
      <trkpt lat="45.08808" lon="5.95505">
        <ele>2550</ele>
        <time>2019-08-03T14:37:36.000Z</time>
      </trkpt>
      <trkpt lat="45.0881" lon="5.95512">
        <ele>2552</ele>
        <time>2019-08-03T14:37:44.000Z</time>
      </trkpt>
      <trkpt lat="45.08809" lon="5.9552">
        <ele>2552</ele>
        <time>2019-08-03T14:37:56.000Z</time>
      </trkpt>
      <trkpt lat="45.08811" lon="5.95528">
        <ele>2556</ele>
        <time>2019-08-03T14:38:07.000Z</time>
      </trkpt>
      <trkpt lat="45.08814" lon="5.95537">
        <ele>2558</ele>
        <time>2019-08-03T14:38:18.000Z</time>
      </trkpt>
      <trkpt lat="45.08817" lon="5.95544">
        <ele>2561</ele>
        <time>2019-08-03T14:38:28.000Z</time>
      </trkpt>
      <trkpt lat="45.08819" lon="5.95549">
        <ele>2564</ele>
        <time>2019-08-03T14:38:42.000Z</time>
      </trkpt>
      <trkpt lat="45.08819" lon="5.95557">
        <ele>2567</ele>
        <time>2019-08-03T14:38:53.000Z</time>
      </trkpt>
      <trkpt lat="45.0882" lon="5.95565">
        <ele>2568</ele>
        <time>2019-08-03T14:39:00.000Z</time>
      </trkpt>
      <trkpt lat="45.08822" lon="5.95573">
        <ele>2570</ele>
        <time>2019-08-03T14:39:17.000Z</time>
      </trkpt>
      <trkpt lat="45.08827" lon="5.95578">
        <ele>2574</ele>
        <time>2019-08-03T14:39:28.000Z</time>
      </trkpt>
      <trkpt lat="45.0883" lon="5.95584">
        <ele>2574</ele>
        <time>2019-08-03T14:39:35.000Z</time>
      </trkpt>
      <trkpt lat="45.08832" lon="5.95591">
        <ele>2577</ele>
        <time>2019-08-03T14:39:44.000Z</time>
      </trkpt>
      <trkpt lat="45.08834" lon="5.95598">
        <ele>2578</ele>
        <time>2019-08-03T14:40:13.000Z</time>
      </trkpt>
      <trkpt lat="45.08838" lon="5.95605">
        <ele>2580</ele>
        <time>2019-08-03T14:40:23.000Z</time>
      </trkpt>
      <trkpt lat="45.08841" lon="5.95614">
        <ele>2581</ele>
        <time>2019-08-03T14:40:34.000Z</time>
      </trkpt>
      <trkpt lat="45.08843" lon="5.95624">
        <ele>2584</ele>
        <time>2019-08-03T14:40:45.000Z</time>
      </trkpt>
      <trkpt lat="45.08847" lon="5.9563">
        <ele>2585</ele>
        <time>2019-08-03T14:40:52.000Z</time>
      </trkpt>
      <trkpt lat="45.0885" lon="5.95636">
        <ele>2586</ele>
        <time>2019-08-03T14:41:00.000Z</time>
      </trkpt>
      <trkpt lat="45.08854" lon="5.95641">
        <ele>2587</ele>
        <time>2019-08-03T14:41:13.000Z</time>
      </trkpt>
      <trkpt lat="45.08857" lon="5.95647">
        <ele>2587</ele>
        <time>2019-08-03T14:41:20.000Z</time>
      </trkpt>
      <trkpt lat="45.08859" lon="5.95654">
        <ele>2588</ele>
        <time>2019-08-03T14:41:33.000Z</time>
      </trkpt>
      <trkpt lat="45.08861" lon="5.95661">
        <ele>2590</ele>
        <time>2019-08-03T14:41:40.000Z</time>
      </trkpt>
      <trkpt lat="45.08863" lon="5.9567">
        <ele>2592</ele>
        <time>2019-08-03T14:41:50.000Z</time>
      </trkpt>
      <trkpt lat="45.08867" lon="5.95674">
        <ele>2596</ele>
        <time>2019-08-03T14:42:04.000Z</time>
      </trkpt>
      <trkpt lat="45.08871" lon="5.95679">
        <ele>2597</ele>
        <time>2019-08-03T14:42:11.000Z</time>
      </trkpt>
      <trkpt lat="45.08874" lon="5.95684">
        <ele>2597</ele>
        <time>2019-08-03T14:42:22.000Z</time>
      </trkpt>
      <trkpt lat="45.08875" lon="5.9569">
        <ele>2599</ele>
        <time>2019-08-03T14:42:36.000Z</time>
      </trkpt>
      <trkpt lat="45.08876" lon="5.95697">
        <ele>2598</ele>
        <time>2019-08-03T15:01:12.000Z</time>
      </trkpt>
      <trkpt lat="45.08875" lon="5.95705">
        <ele>2598</ele>
        <time>2019-08-03T15:01:22.000Z</time>
      </trkpt>
      <trkpt lat="45.08878" lon="5.95714">
        <ele>2598</ele>
        <time>2019-08-03T15:01:29.000Z</time>
      </trkpt>
      <trkpt lat="45.08878" lon="5.95721">
        <ele>2598</ele>
        <time>2019-08-03T15:01:35.000Z</time>
      </trkpt>
      <trkpt lat="45.08881" lon="5.95728">
        <ele>2597</ele>
        <time>2019-08-03T15:01:42.000Z</time>
      </trkpt>
      <trkpt lat="45.08883" lon="5.95735">
        <ele>2596</ele>
        <time>2019-08-03T15:01:48.000Z</time>
      </trkpt>
      <trkpt lat="45.08885" lon="5.95742">
        <ele>2596</ele>
        <time>2019-08-03T15:01:56.000Z</time>
      </trkpt>
      <trkpt lat="45.08886" lon="5.95749">
        <ele>2595</ele>
        <time>2019-08-03T15:02:03.000Z</time>
      </trkpt>
      <trkpt lat="45.08886" lon="5.95756">
        <ele>2595</ele>
        <time>2019-08-03T15:02:10.000Z</time>
      </trkpt>
      <trkpt lat="45.08891" lon="5.95763">
        <ele>2594</ele>
        <time>2019-08-03T15:02:38.000Z</time>
      </trkpt>
      <trkpt lat="45.08896" lon="5.95768">
        <ele>2595</ele>
        <time>2019-08-03T15:02:45.000Z</time>
      </trkpt>
      <trkpt lat="45.089" lon="5.95773">
        <ele>2597</ele>
        <time>2019-08-03T15:03:00.000Z</time>
      </trkpt>
      <trkpt lat="45.08905" lon="5.95775">
        <ele>2597</ele>
        <time>2019-08-03T15:03:11.000Z</time>
      </trkpt>
      <trkpt lat="45.08911" lon="5.95779">
        <ele>2599</ele>
        <time>2019-08-03T15:03:19.000Z</time>
      </trkpt>
      <trkpt lat="45.08914" lon="5.95784">
        <ele>2600</ele>
        <time>2019-08-03T15:03:26.000Z</time>
      </trkpt>
      <trkpt lat="45.08916" lon="5.95791">
        <ele>2598</ele>
        <time>2019-08-03T15:03:43.000Z</time>
      </trkpt>
      <trkpt lat="45.08919" lon="5.95796">
        <ele>2599</ele>
        <time>2019-08-03T15:03:50.000Z</time>
      </trkpt>
      <trkpt lat="45.08924" lon="5.95799">
        <ele>2602</ele>
        <time>2019-08-03T15:03:58.000Z</time>
      </trkpt>
      <trkpt lat="45.08929" lon="5.95804">
        <ele>2603</ele>
        <time>2019-08-03T15:04:05.000Z</time>
      </trkpt>
      <trkpt lat="45.08933" lon="5.95808">
        <ele>2604</ele>
        <time>2019-08-03T15:04:12.000Z</time>
      </trkpt>
      <trkpt lat="45.08935" lon="5.95813">
        <ele>2604</ele>
        <time>2019-08-03T15:04:19.000Z</time>
      </trkpt>
      <trkpt lat="45.0894" lon="5.95816">
        <ele>2605</ele>
        <time>2019-08-03T15:04:26.000Z</time>
      </trkpt>
      <trkpt lat="45.08946" lon="5.95817">
        <ele>2606</ele>
        <time>2019-08-03T15:04:34.000Z</time>
      </trkpt>
      <trkpt lat="45.08951" lon="5.95822">
        <ele>2607</ele>
        <time>2019-08-03T15:04:43.000Z</time>
      </trkpt>
      <trkpt lat="45.08957" lon="5.95822">
        <ele>2606</ele>
        <time>2019-08-03T15:04:50.000Z</time>
      </trkpt>
      <trkpt lat="45.08962" lon="5.95822">
        <ele>2606</ele>
        <time>2019-08-03T15:05:05.000Z</time>
      </trkpt>
      <trkpt lat="45.08965" lon="5.95829">
        <ele>2605</ele>
        <time>2019-08-03T15:05:16.000Z</time>
      </trkpt>
      <trkpt lat="45.08969" lon="5.95834">
        <ele>2606</ele>
        <time>2019-08-03T15:05:23.000Z</time>
      </trkpt>
      <trkpt lat="45.08974" lon="5.95839">
        <ele>2605</ele>
        <time>2019-08-03T15:05:30.000Z</time>
      </trkpt>
      <trkpt lat="45.08979" lon="5.95846">
        <ele>2603</ele>
        <time>2019-08-03T15:05:41.000Z</time>
      </trkpt>
      <trkpt lat="45.08982" lon="5.95853">
        <ele>2602</ele>
        <time>2019-08-03T15:05:51.000Z</time>
      </trkpt>
      <trkpt lat="45.08986" lon="5.9586">
        <ele>2602</ele>
        <time>2019-08-03T15:05:58.000Z</time>
      </trkpt>
      <trkpt lat="45.08988" lon="5.95866">
        <ele>2603</ele>
        <time>2019-08-03T15:06:05.000Z</time>
      </trkpt>
      <trkpt lat="45.08992" lon="5.95872">
        <ele>2604</ele>
        <time>2019-08-03T15:06:12.000Z</time>
      </trkpt>
      <trkpt lat="45.08997" lon="5.95879">
        <ele>2605</ele>
        <time>2019-08-03T15:06:20.000Z</time>
      </trkpt>
      <trkpt lat="45.09001" lon="5.95887">
        <ele>2605</ele>
        <time>2019-08-03T15:06:28.000Z</time>
      </trkpt>
      <trkpt lat="45.09005" lon="5.95893">
        <ele>2606</ele>
        <time>2019-08-03T15:06:34.000Z</time>
      </trkpt>
      <trkpt lat="45.09009" lon="5.95899">
        <ele>2606</ele>
        <time>2019-08-03T15:06:40.000Z</time>
      </trkpt>
      <trkpt lat="45.09013" lon="5.95905">
        <ele>2607</ele>
        <time>2019-08-03T15:06:51.000Z</time>
      </trkpt>
      <trkpt lat="45.09019" lon="5.95912">
        <ele>2609</ele>
        <time>2019-08-03T15:06:58.000Z</time>
      </trkpt>
      <trkpt lat="45.09023" lon="5.95921">
        <ele>2611</ele>
        <time>2019-08-03T15:07:05.000Z</time>
      </trkpt>
      <trkpt lat="45.09026" lon="5.95927">
        <ele>2612</ele>
        <time>2019-08-03T15:07:12.000Z</time>
      </trkpt>
      <trkpt lat="45.0903" lon="5.95933">
        <ele>2611</ele>
        <time>2019-08-03T15:07:18.000Z</time>
      </trkpt>
      <trkpt lat="45.09035" lon="5.95932">
        <ele>2611</ele>
        <time>2019-08-03T15:07:54.000Z</time>
      </trkpt>
      <trkpt lat="45.09033" lon="5.95938">
        <ele>2612</ele>
        <time>2019-08-03T15:29:08.000Z</time>
      </trkpt>
      <trkpt lat="45.09029" lon="5.95943">
        <ele>2610</ele>
        <time>2019-08-03T15:29:58.000Z</time>
      </trkpt>
      <trkpt lat="45.09027" lon="5.95948">
        <ele>2609</ele>
        <time>2019-08-03T15:30:13.000Z</time>
      </trkpt>
      <trkpt lat="45.09021" lon="5.95949">
        <ele>2606</ele>
        <time>2019-08-03T15:30:28.000Z</time>
      </trkpt>
      <trkpt lat="45.09018" lon="5.95955">
        <ele>2606</ele>
        <time>2019-08-03T15:30:48.000Z</time>
      </trkpt>
      <trkpt lat="45.09013" lon="5.95959">
        <ele>2602</ele>
        <time>2019-08-03T15:31:07.000Z</time>
      </trkpt>
      <trkpt lat="45.09007" lon="5.95957">
        <ele>2598</ele>
        <time>2019-08-03T15:31:18.000Z</time>
      </trkpt>
      <trkpt lat="45.09007" lon="5.95964">
        <ele>2598</ele>
        <time>2019-08-03T15:31:30.000Z</time>
      </trkpt>
      <trkpt lat="45.09007" lon="5.95972">
        <ele>2596</ele>
        <time>2019-08-03T15:31:39.000Z</time>
      </trkpt>
      <trkpt lat="45.09003" lon="5.95975">
        <ele>2592</ele>
        <time>2019-08-03T15:31:53.000Z</time>
      </trkpt>
      <trkpt lat="45.08998" lon="5.95977">
        <ele>2590</ele>
        <time>2019-08-03T15:32:06.000Z</time>
      </trkpt>
      <trkpt lat="45.08993" lon="5.95975">
        <ele>2587</ele>
        <time>2019-08-03T15:32:22.000Z</time>
      </trkpt>
      <trkpt lat="45.08987" lon="5.95972">
        <ele>2584</ele>
        <time>2019-08-03T15:32:36.000Z</time>
      </trkpt>
      <trkpt lat="45.08981" lon="5.95968">
        <ele>2585</ele>
        <time>2019-08-03T15:32:47.000Z</time>
      </trkpt>
      <trkpt lat="45.08977" lon="5.95967">
        <ele>2582</ele>
        <time>2019-08-03T15:32:54.000Z</time>
      </trkpt>
      <trkpt lat="45.08972" lon="5.95963">
        <ele>2579</ele>
        <time>2019-08-03T15:33:05.000Z</time>
      </trkpt>
      <trkpt lat="45.08966" lon="5.95963">
        <ele>2576</ele>
        <time>2019-08-03T15:33:18.000Z</time>
      </trkpt>
      <trkpt lat="45.0896" lon="5.95961">
        <ele>2576</ele>
        <time>2019-08-03T15:33:24.000Z</time>
      </trkpt>
      <trkpt lat="45.08955" lon="5.95962">
        <ele>2575</ele>
        <time>2019-08-03T15:33:30.000Z</time>
      </trkpt>
      <trkpt lat="45.08951" lon="5.95969">
        <ele>2573</ele>
        <time>2019-08-03T15:33:37.000Z</time>
      </trkpt>
      <trkpt lat="45.08952" lon="5.95976">
        <ele>2573</ele>
        <time>2019-08-03T15:33:44.000Z</time>
      </trkpt>
      <trkpt lat="45.08952" lon="5.95984">
        <ele>2572</ele>
        <time>2019-08-03T15:33:51.000Z</time>
      </trkpt>
      <trkpt lat="45.08952" lon="5.9599">
        <ele>2571</ele>
        <time>2019-08-03T15:33:58.000Z</time>
      </trkpt>
      <trkpt lat="45.08945" lon="5.95989">
        <ele>2569</ele>
        <time>2019-08-03T15:34:07.000Z</time>
      </trkpt>
      <trkpt lat="45.0894" lon="5.95987">
        <ele>2566</ele>
        <time>2019-08-03T15:34:15.000Z</time>
      </trkpt>
      <trkpt lat="45.08934" lon="5.95986">
        <ele>2564</ele>
        <time>2019-08-03T15:34:26.000Z</time>
      </trkpt>
      <trkpt lat="45.08929" lon="5.95984">
        <ele>2562</ele>
        <time>2019-08-03T15:34:34.000Z</time>
      </trkpt>
      <trkpt lat="45.08924" lon="5.95983">
        <ele>2561</ele>
        <time>2019-08-03T15:34:41.000Z</time>
      </trkpt>
      <trkpt lat="45.08924" lon="5.95992">
        <ele>2559</ele>
        <time>2019-08-03T15:34:52.000Z</time>
      </trkpt>
      <trkpt lat="45.08921" lon="5.95997">
        <ele>2555</ele>
        <time>2019-08-03T15:35:00.000Z</time>
      </trkpt>
      <trkpt lat="45.08919" lon="5.96003">
        <ele>2555</ele>
        <time>2019-08-03T15:35:10.000Z</time>
      </trkpt>
      <trkpt lat="45.08914" lon="5.96002">
        <ele>2552</ele>
        <time>2019-08-03T15:35:19.000Z</time>
      </trkpt>
      <trkpt lat="45.08908" lon="5.96002">
        <ele>2550</ele>
        <time>2019-08-03T15:35:25.000Z</time>
      </trkpt>
      <trkpt lat="45.08904" lon="5.96005">
        <ele>2548</ele>
        <time>2019-08-03T15:35:32.000Z</time>
      </trkpt>
      <trkpt lat="45.089" lon="5.96012">
        <ele>2547</ele>
        <time>2019-08-03T15:35:44.000Z</time>
      </trkpt>
      <trkpt lat="45.089" lon="5.9602">
        <ele>2547</ele>
        <time>2019-08-03T15:35:54.000Z</time>
      </trkpt>
      <trkpt lat="45.08897" lon="5.96028">
        <ele>2546</ele>
        <time>2019-08-03T15:36:03.000Z</time>
      </trkpt>
      <trkpt lat="45.08895" lon="5.96036">
        <ele>2544</ele>
        <time>2019-08-03T15:36:10.000Z</time>
      </trkpt>
      <trkpt lat="45.08891" lon="5.9604">
        <ele>2541</ele>
        <time>2019-08-03T15:36:17.000Z</time>
      </trkpt>
      <trkpt lat="45.08888" lon="5.96045">
        <ele>2540</ele>
        <time>2019-08-03T15:36:24.000Z</time>
      </trkpt>
      <trkpt lat="45.08887" lon="5.96052">
        <ele>2539</ele>
        <time>2019-08-03T15:36:28.000Z</time>
      </trkpt>
      <trkpt lat="45.08886" lon="5.96058">
        <ele>2539</ele>
        <time>2019-08-03T15:36:34.000Z</time>
      </trkpt>
      <trkpt lat="45.0888" lon="5.96056">
        <ele>2533</ele>
        <time>2019-08-03T15:36:45.000Z</time>
      </trkpt>
      <trkpt lat="45.08873" lon="5.96054">
        <ele>2532</ele>
        <time>2019-08-03T15:36:52.000Z</time>
      </trkpt>
      <trkpt lat="45.08868" lon="5.96049">
        <ele>2532</ele>
        <time>2019-08-03T15:36:58.000Z</time>
      </trkpt>
      <trkpt lat="45.0886" lon="5.96044">
        <ele>2531</ele>
        <time>2019-08-03T15:37:06.000Z</time>
      </trkpt>
      <trkpt lat="45.08855" lon="5.96042">
        <ele>2530</ele>
        <time>2019-08-03T15:37:12.000Z</time>
      </trkpt>
      <trkpt lat="45.08848" lon="5.96037">
        <ele>2528</ele>
        <time>2019-08-03T15:37:19.000Z</time>
      </trkpt>
      <trkpt lat="45.08842" lon="5.9603">
        <ele>2526</ele>
        <time>2019-08-03T15:37:27.000Z</time>
      </trkpt>
      <trkpt lat="45.08836" lon="5.96026">
        <ele>2525</ele>
        <time>2019-08-03T15:37:34.000Z</time>
      </trkpt>
      <trkpt lat="45.0883" lon="5.96023">
        <ele>2525</ele>
        <time>2019-08-03T15:37:41.000Z</time>
      </trkpt>
      <trkpt lat="45.08825" lon="5.96021">
        <ele>2524</ele>
        <time>2019-08-03T15:37:48.000Z</time>
      </trkpt>
      <trkpt lat="45.08817" lon="5.96019">
        <ele>2522</ele>
        <time>2019-08-03T15:37:56.000Z</time>
      </trkpt>
      <trkpt lat="45.08812" lon="5.96016">
        <ele>2522</ele>
        <time>2019-08-03T15:38:00.000Z</time>
      </trkpt>
      <trkpt lat="45.08807" lon="5.96014">
        <ele>2522</ele>
        <time>2019-08-03T15:38:04.000Z</time>
      </trkpt>
      <trkpt lat="45.08802" lon="5.96013">
        <ele>2520</ele>
        <time>2019-08-03T15:38:15.000Z</time>
      </trkpt>
      <trkpt lat="45.08795" lon="5.96011">
        <ele>2519</ele>
        <time>2019-08-03T15:38:21.000Z</time>
      </trkpt>
      <trkpt lat="45.08787" lon="5.96012">
        <ele>2518</ele>
        <time>2019-08-03T15:38:28.000Z</time>
      </trkpt>
      <trkpt lat="45.08778" lon="5.96015">
        <ele>2518</ele>
        <time>2019-08-03T15:38:35.000Z</time>
      </trkpt>
      <trkpt lat="45.08769" lon="5.96018">
        <ele>2516</ele>
        <time>2019-08-03T15:38:42.000Z</time>
      </trkpt>
      <trkpt lat="45.08763" lon="5.96018">
        <ele>2514</ele>
        <time>2019-08-03T15:38:46.000Z</time>
      </trkpt>
      <trkpt lat="45.08757" lon="5.96018">
        <ele>2513</ele>
        <time>2019-08-03T15:38:50.000Z</time>
      </trkpt>
      <trkpt lat="45.08749" lon="5.96018">
        <ele>2512</ele>
        <time>2019-08-03T15:38:56.000Z</time>
      </trkpt>
      <trkpt lat="45.08742" lon="5.96019">
        <ele>2511</ele>
        <time>2019-08-03T15:39:02.000Z</time>
      </trkpt>
      <trkpt lat="45.08736" lon="5.96012">
        <ele>2511</ele>
        <time>2019-08-03T15:39:34.000Z</time>
      </trkpt>
      <trkpt lat="45.08731" lon="5.96015">
        <ele>2510</ele>
        <time>2019-08-03T15:39:42.000Z</time>
      </trkpt>
      <trkpt lat="45.08726" lon="5.96019">
        <ele>2508</ele>
        <time>2019-08-03T15:39:49.000Z</time>
      </trkpt>
      <trkpt lat="45.0872" lon="5.9602">
        <ele>2506</ele>
        <time>2019-08-03T15:40:13.000Z</time>
      </trkpt>
      <trkpt lat="45.08713" lon="5.96021">
        <ele>2504</ele>
        <time>2019-08-03T15:40:20.000Z</time>
      </trkpt>
      <trkpt lat="45.08708" lon="5.96022">
        <ele>2504</ele>
        <time>2019-08-03T15:40:24.000Z</time>
      </trkpt>
      <trkpt lat="45.08703" lon="5.96024">
        <ele>2503</ele>
        <time>2019-08-03T15:40:28.000Z</time>
      </trkpt>
      <trkpt lat="45.08699" lon="5.96025">
        <ele>2503</ele>
        <time>2019-08-03T15:40:32.000Z</time>
      </trkpt>
      <trkpt lat="45.08693" lon="5.96024">
        <ele>2502</ele>
        <time>2019-08-03T15:40:36.000Z</time>
      </trkpt>
      <trkpt lat="45.08688" lon="5.96022">
        <ele>2502</ele>
        <time>2019-08-03T15:40:40.000Z</time>
      </trkpt>
      <trkpt lat="45.08682" lon="5.96022">
        <ele>2502</ele>
        <time>2019-08-03T15:40:44.000Z</time>
      </trkpt>
      <trkpt lat="45.08675" lon="5.96021">
        <ele>2502</ele>
        <time>2019-08-03T15:40:51.000Z</time>
      </trkpt>
      <trkpt lat="45.08666" lon="5.96015">
        <ele>2503</ele>
        <time>2019-08-03T15:40:59.000Z</time>
      </trkpt>
      <trkpt lat="45.08658" lon="5.96008">
        <ele>2503</ele>
        <time>2019-08-03T15:41:06.000Z</time>
      </trkpt>
      <trkpt lat="45.08651" lon="5.96003">
        <ele>2503</ele>
        <time>2019-08-03T15:41:12.000Z</time>
      </trkpt>
      <trkpt lat="45.08647" lon="5.96">
        <ele>2505</ele>
        <time>2019-08-03T15:41:16.000Z</time>
      </trkpt>
      <trkpt lat="45.08641" lon="5.95995">
        <ele>2505</ele>
        <time>2019-08-03T15:41:22.000Z</time>
      </trkpt>
      <trkpt lat="45.08634" lon="5.95991">
        <ele>2505</ele>
        <time>2019-08-03T15:41:30.000Z</time>
      </trkpt>
      <trkpt lat="45.08625" lon="5.95986">
        <ele>2504</ele>
        <time>2019-08-03T15:41:38.000Z</time>
      </trkpt>
      <trkpt lat="45.08621" lon="5.95983">
        <ele>2504</ele>
        <time>2019-08-03T15:41:42.000Z</time>
      </trkpt>
      <trkpt lat="45.08616" lon="5.9598">
        <ele>2503</ele>
        <time>2019-08-03T15:41:46.000Z</time>
      </trkpt>
      <trkpt lat="45.08612" lon="5.95976">
        <ele>2502</ele>
        <time>2019-08-03T15:41:50.000Z</time>
      </trkpt>
      <trkpt lat="45.08606" lon="5.95972">
        <ele>2502</ele>
        <time>2019-08-03T15:41:57.000Z</time>
      </trkpt>
      <trkpt lat="45.08599" lon="5.9597">
        <ele>2501</ele>
        <time>2019-08-03T15:42:04.000Z</time>
      </trkpt>
      <trkpt lat="45.08593" lon="5.95966">
        <ele>2500</ele>
        <time>2019-08-03T15:42:11.000Z</time>
      </trkpt>
      <trkpt lat="45.08589" lon="5.95971">
        <ele>2501</ele>
        <time>2019-08-03T15:43:40.000Z</time>
      </trkpt>
      <trkpt lat="45.08587" lon="5.95978">
        <ele>2499</ele>
        <time>2019-08-03T15:43:51.000Z</time>
      </trkpt>
      <trkpt lat="45.08584" lon="5.95985">
        <ele>2498</ele>
        <time>2019-08-03T15:43:57.000Z</time>
      </trkpt>
      <trkpt lat="45.08579" lon="5.95987">
        <ele>2498</ele>
        <time>2019-08-03T15:44:05.000Z</time>
      </trkpt>
      <trkpt lat="45.08576" lon="5.95992">
        <ele>2497</ele>
        <time>2019-08-03T15:44:12.000Z</time>
      </trkpt>
      <trkpt lat="45.08573" lon="5.96">
        <ele>2495</ele>
        <time>2019-08-03T15:44:19.000Z</time>
      </trkpt>
      <trkpt lat="45.08568" lon="5.96002">
        <ele>2494</ele>
        <time>2019-08-03T15:44:26.000Z</time>
      </trkpt>
      <trkpt lat="45.08562" lon="5.96001">
        <ele>2490</ele>
        <time>2019-08-03T15:44:39.000Z</time>
      </trkpt>
      <trkpt lat="45.08557" lon="5.96003">
        <ele>2489</ele>
        <time>2019-08-03T15:44:50.000Z</time>
      </trkpt>
      <trkpt lat="45.08552" lon="5.96006">
        <ele>2486</ele>
        <time>2019-08-03T15:44:58.000Z</time>
      </trkpt>
      <trkpt lat="45.08546" lon="5.96008">
        <ele>2486</ele>
        <time>2019-08-03T15:45:06.000Z</time>
      </trkpt>
      <trkpt lat="45.08541" lon="5.96013">
        <ele>2484</ele>
        <time>2019-08-03T15:45:15.000Z</time>
      </trkpt>
      <trkpt lat="45.08536" lon="5.96018">
        <ele>2482</ele>
        <time>2019-08-03T15:45:22.000Z</time>
      </trkpt>
      <trkpt lat="45.08532" lon="5.96021">
        <ele>2481</ele>
        <time>2019-08-03T15:45:28.000Z</time>
      </trkpt>
      <trkpt lat="45.08523" lon="5.96016">
        <ele>2480</ele>
        <time>2019-08-03T15:45:36.000Z</time>
      </trkpt>
      <trkpt lat="45.0852" lon="5.96021">
        <ele>2479</ele>
        <time>2019-08-03T15:45:45.000Z</time>
      </trkpt>
      <trkpt lat="45.08514" lon="5.96025">
        <ele>2477</ele>
        <time>2019-08-03T15:45:55.000Z</time>
      </trkpt>
      <trkpt lat="45.0851" lon="5.96028">
        <ele>2475</ele>
        <time>2019-08-03T15:46:02.000Z</time>
      </trkpt>
      <trkpt lat="45.08504" lon="5.96027">
        <ele>2473</ele>
        <time>2019-08-03T15:46:10.000Z</time>
      </trkpt>
      <trkpt lat="45.08496" lon="5.96021">
        <ele>2471</ele>
        <time>2019-08-03T15:46:18.000Z</time>
      </trkpt>
      <trkpt lat="45.08492" lon="5.96023">
        <ele>2471</ele>
        <time>2019-08-03T15:46:24.000Z</time>
      </trkpt>
      <trkpt lat="45.08488" lon="5.96029">
        <ele>2469</ele>
        <time>2019-08-03T15:46:30.000Z</time>
      </trkpt>
      <trkpt lat="45.08483" lon="5.96031">
        <ele>2468</ele>
        <time>2019-08-03T15:46:37.000Z</time>
      </trkpt>
      <trkpt lat="45.08478" lon="5.96029">
        <ele>2467</ele>
        <time>2019-08-03T15:46:48.000Z</time>
      </trkpt>
      <trkpt lat="45.08473" lon="5.9603">
        <ele>2465</ele>
        <time>2019-08-03T15:46:58.000Z</time>
      </trkpt>
      <trkpt lat="45.08468" lon="5.96032">
        <ele>2463</ele>
        <time>2019-08-03T15:47:07.000Z</time>
      </trkpt>
      <trkpt lat="45.08463" lon="5.96037">
        <ele>2461</ele>
        <time>2019-08-03T15:47:17.000Z</time>
      </trkpt>
      <trkpt lat="45.08459" lon="5.96031">
        <ele>2459</ele>
        <time>2019-08-03T15:47:28.000Z</time>
      </trkpt>
      <trkpt lat="45.08454" lon="5.9603">
        <ele>2457</ele>
        <time>2019-08-03T15:47:41.000Z</time>
      </trkpt>
      <trkpt lat="45.0845" lon="5.96035">
        <ele>2454</ele>
        <time>2019-08-03T15:47:52.000Z</time>
      </trkpt>
      <trkpt lat="45.08445" lon="5.96031">
        <ele>2452</ele>
        <time>2019-08-03T15:48:00.000Z</time>
      </trkpt>
      <trkpt lat="45.08439" lon="5.96036">
        <ele>2450</ele>
        <time>2019-08-03T15:48:14.000Z</time>
      </trkpt>
      <trkpt lat="45.08432" lon="5.96039">
        <ele>2446</ele>
        <time>2019-08-03T15:48:23.000Z</time>
      </trkpt>
      <trkpt lat="45.08428" lon="5.96041">
        <ele>2446</ele>
        <time>2019-08-03T15:48:30.000Z</time>
      </trkpt>
      <trkpt lat="45.08424" lon="5.96045">
        <ele>2444</ele>
        <time>2019-08-03T15:48:38.000Z</time>
      </trkpt>
      <trkpt lat="45.08418" lon="5.96049">
        <ele>2441</ele>
        <time>2019-08-03T15:48:46.000Z</time>
      </trkpt>
      <trkpt lat="45.08413" lon="5.96053">
        <ele>2439</ele>
        <time>2019-08-03T15:48:53.000Z</time>
      </trkpt>
      <trkpt lat="45.08408" lon="5.96057">
        <ele>2438</ele>
        <time>2019-08-03T15:49:01.000Z</time>
      </trkpt>
      <trkpt lat="45.08402" lon="5.96058">
        <ele>2435</ele>
        <time>2019-08-03T15:49:08.000Z</time>
      </trkpt>
      <trkpt lat="45.08397" lon="5.96061">
        <ele>2432</ele>
        <time>2019-08-03T15:49:15.000Z</time>
      </trkpt>
      <trkpt lat="45.08395" lon="5.96068">
        <ele>2430</ele>
        <time>2019-08-03T15:49:22.000Z</time>
      </trkpt>
      <trkpt lat="45.08391" lon="5.96073">
        <ele>2427</ele>
        <time>2019-08-03T15:49:34.000Z</time>
      </trkpt>
      <trkpt lat="45.08388" lon="5.96081">
        <ele>2427</ele>
        <time>2019-08-03T15:49:41.000Z</time>
      </trkpt>
      <trkpt lat="45.08383" lon="5.96083">
        <ele>2424</ele>
        <time>2019-08-03T15:49:55.000Z</time>
      </trkpt>
      <trkpt lat="45.0838" lon="5.96079">
        <ele>2423</ele>
        <time>2019-08-03T15:50:02.000Z</time>
      </trkpt>
      <trkpt lat="45.08375" lon="5.96077">
        <ele>2420</ele>
        <time>2019-08-03T15:50:09.000Z</time>
      </trkpt>
      <trkpt lat="45.08368" lon="5.96078">
        <ele>2419</ele>
        <time>2019-08-03T15:50:16.000Z</time>
      </trkpt>
      <trkpt lat="45.08362" lon="5.96082">
        <ele>2419</ele>
        <time>2019-08-03T15:50:24.000Z</time>
      </trkpt>
      <trkpt lat="45.08355" lon="5.9608">
        <ele>2416</ele>
        <time>2019-08-03T15:50:31.000Z</time>
      </trkpt>
      <trkpt lat="45.08347" lon="5.96081">
        <ele>2415</ele>
        <time>2019-08-03T15:50:38.000Z</time>
      </trkpt>
      <trkpt lat="45.0834" lon="5.96082">
        <ele>2413</ele>
        <time>2019-08-03T15:50:45.000Z</time>
      </trkpt>
      <trkpt lat="45.08334" lon="5.96082">
        <ele>2411</ele>
        <time>2019-08-03T15:50:51.000Z</time>
      </trkpt>
      <trkpt lat="45.08327" lon="5.96087">
        <ele>2410</ele>
        <time>2019-08-03T15:50:58.000Z</time>
      </trkpt>
      <trkpt lat="45.08318" lon="5.9609">
        <ele>2409</ele>
        <time>2019-08-03T15:51:05.000Z</time>
      </trkpt>
      <trkpt lat="45.0831" lon="5.96092">
        <ele>2407</ele>
        <time>2019-08-03T15:51:11.000Z</time>
      </trkpt>
      <trkpt lat="45.08304" lon="5.96097">
        <ele>2407</ele>
        <time>2019-08-03T15:51:18.000Z</time>
      </trkpt>
      <trkpt lat="45.08297" lon="5.96101">
        <ele>2404</ele>
        <time>2019-08-03T15:51:25.000Z</time>
      </trkpt>
      <trkpt lat="45.08296" lon="5.96094">
        <ele>2402</ele>
        <time>2019-08-03T15:51:39.000Z</time>
      </trkpt>
      <trkpt lat="45.08297" lon="5.96082">
        <ele>2401</ele>
        <time>2019-08-03T15:51:46.000Z</time>
      </trkpt>
      <trkpt lat="45.08293" lon="5.96069">
        <ele>2400</ele>
        <time>2019-08-03T15:51:53.000Z</time>
      </trkpt>
      <trkpt lat="45.08288" lon="5.96063">
        <ele>2398</ele>
        <time>2019-08-03T15:52:00.000Z</time>
      </trkpt>
      <trkpt lat="45.08281" lon="5.96059">
        <ele>2397</ele>
        <time>2019-08-03T15:52:06.000Z</time>
      </trkpt>
      <trkpt lat="45.08277" lon="5.96055">
        <ele>2397</ele>
        <time>2019-08-03T15:52:10.000Z</time>
      </trkpt>
      <trkpt lat="45.08271" lon="5.96045">
        <ele>2395</ele>
        <time>2019-08-03T15:52:17.000Z</time>
      </trkpt>
      <trkpt lat="45.08269" lon="5.96039">
        <ele>2395</ele>
        <time>2019-08-03T15:52:21.000Z</time>
      </trkpt>
      <trkpt lat="45.08263" lon="5.96033">
        <ele>2393</ele>
        <time>2019-08-03T15:52:29.000Z</time>
      </trkpt>
      <trkpt lat="45.08259" lon="5.96025">
        <ele>2393</ele>
        <time>2019-08-03T15:52:35.000Z</time>
      </trkpt>
      <trkpt lat="45.08255" lon="5.96022">
        <ele>2393</ele>
        <time>2019-08-03T15:52:38.000Z</time>
      </trkpt>
      <trkpt lat="45.08247" lon="5.96022">
        <ele>2392</ele>
        <time>2019-08-03T15:52:44.000Z</time>
      </trkpt>
      <trkpt lat="45.0824" lon="5.96025">
        <ele>2389</ele>
        <time>2019-08-03T15:52:51.000Z</time>
      </trkpt>
      <trkpt lat="45.08235" lon="5.96024">
        <ele>2389</ele>
        <time>2019-08-03T15:52:55.000Z</time>
      </trkpt>
      <trkpt lat="45.08229" lon="5.96022">
        <ele>2389</ele>
        <time>2019-08-03T15:52:59.000Z</time>
      </trkpt>
      <trkpt lat="45.0822" lon="5.96019">
        <ele>2387</ele>
        <time>2019-08-03T15:53:06.000Z</time>
      </trkpt>
      <trkpt lat="45.08218" lon="5.96014">
        <ele>2387</ele>
        <time>2019-08-03T15:53:10.000Z</time>
      </trkpt>
      <trkpt lat="45.08214" lon="5.9601">
        <ele>2386</ele>
        <time>2019-08-03T15:53:14.000Z</time>
      </trkpt>
      <trkpt lat="45.08207" lon="5.96006">
        <ele>2384</ele>
        <time>2019-08-03T15:53:20.000Z</time>
      </trkpt>
      <trkpt lat="45.08202" lon="5.96003">
        <ele>2383</ele>
        <time>2019-08-03T15:53:24.000Z</time>
      </trkpt>
      <trkpt lat="45.08193" lon="5.96002">
        <ele>2383</ele>
        <time>2019-08-03T15:53:31.000Z</time>
      </trkpt>
      <trkpt lat="45.08185" lon="5.95996">
        <ele>2383</ele>
        <time>2019-08-03T15:53:38.000Z</time>
      </trkpt>
      <trkpt lat="45.08177" lon="5.95992">
        <ele>2383</ele>
        <time>2019-08-03T15:53:44.000Z</time>
      </trkpt>
      <trkpt lat="45.08173" lon="5.95988">
        <ele>2383</ele>
        <time>2019-08-03T15:53:48.000Z</time>
      </trkpt>
      <trkpt lat="45.08168" lon="5.95985">
        <ele>2382</ele>
        <time>2019-08-03T15:53:52.000Z</time>
      </trkpt>
      <trkpt lat="45.0816" lon="5.95979">
        <ele>2382</ele>
        <time>2019-08-03T15:53:58.000Z</time>
      </trkpt>
      <trkpt lat="45.08152" lon="5.95972">
        <ele>2381</ele>
        <time>2019-08-03T15:54:05.000Z</time>
      </trkpt>
      <trkpt lat="45.08147" lon="5.9597">
        <ele>2381</ele>
        <time>2019-08-03T15:54:09.000Z</time>
      </trkpt>
      <trkpt lat="45.08139" lon="5.95964">
        <ele>2380</ele>
        <time>2019-08-03T15:54:16.000Z</time>
      </trkpt>
      <trkpt lat="45.08132" lon="5.95959">
        <ele>2381</ele>
        <time>2019-08-03T15:54:22.000Z</time>
      </trkpt>
      <trkpt lat="45.08127" lon="5.95956">
        <ele>2381</ele>
        <time>2019-08-03T15:54:25.000Z</time>
      </trkpt>
      <trkpt lat="45.08122" lon="5.95954">
        <ele>2381</ele>
        <time>2019-08-03T15:54:29.000Z</time>
      </trkpt>
      <trkpt lat="45.08117" lon="5.9595">
        <ele>2381</ele>
        <time>2019-08-03T15:54:35.000Z</time>
      </trkpt>
      <trkpt lat="45.0811" lon="5.95945">
        <ele>2380</ele>
        <time>2019-08-03T15:54:41.000Z</time>
      </trkpt>
      <trkpt lat="45.08106" lon="5.95939">
        <ele>2380</ele>
        <time>2019-08-03T15:54:48.000Z</time>
      </trkpt>
      <trkpt lat="45.08103" lon="5.95934">
        <ele>2380</ele>
        <time>2019-08-03T15:55:23.000Z</time>
      </trkpt>
      <trkpt lat="45.08098" lon="5.95929">
        <ele>2379</ele>
        <time>2019-08-03T15:55:30.000Z</time>
      </trkpt>
      <trkpt lat="45.08094" lon="5.95924">
        <ele>2378</ele>
        <time>2019-08-03T15:55:34.000Z</time>
      </trkpt>
      <trkpt lat="45.08089" lon="5.95918">
        <ele>2377</ele>
        <time>2019-08-03T15:55:38.000Z</time>
      </trkpt>
      <trkpt lat="45.08085" lon="5.95915">
        <ele>2377</ele>
        <time>2019-08-03T15:55:42.000Z</time>
      </trkpt>
      <trkpt lat="45.08079" lon="5.95914">
        <ele>2376</ele>
        <time>2019-08-03T15:55:49.000Z</time>
      </trkpt>
      <trkpt lat="45.08074" lon="5.95915">
        <ele>2376</ele>
        <time>2019-08-03T15:55:55.000Z</time>
      </trkpt>
      <trkpt lat="45.08066" lon="5.95913">
        <ele>2376</ele>
        <time>2019-08-03T15:56:03.000Z</time>
      </trkpt>
      <trkpt lat="45.08059" lon="5.9591">
        <ele>2375</ele>
        <time>2019-08-03T15:56:10.000Z</time>
      </trkpt>
      <trkpt lat="45.08054" lon="5.9591">
        <ele>2376</ele>
        <time>2019-08-03T15:56:18.000Z</time>
      </trkpt>
      <trkpt lat="45.08049" lon="5.95908">
        <ele>2375</ele>
        <time>2019-08-03T15:56:27.000Z</time>
      </trkpt>
      <trkpt lat="45.08044" lon="5.95902">
        <ele>2375</ele>
        <time>2019-08-03T15:57:38.000Z</time>
      </trkpt>
      <trkpt lat="45.0804" lon="5.95899">
        <ele>2375</ele>
        <time>2019-08-03T15:57:44.000Z</time>
      </trkpt>
      <trkpt lat="45.08034" lon="5.959">
        <ele>2371</ele>
        <time>2019-08-03T15:57:52.000Z</time>
      </trkpt>
      <trkpt lat="45.08028" lon="5.95898">
        <ele>2371</ele>
        <time>2019-08-03T15:57:59.000Z</time>
      </trkpt>
      <trkpt lat="45.08023" lon="5.95895">
        <ele>2371</ele>
        <time>2019-08-03T15:58:06.000Z</time>
      </trkpt>
      <trkpt lat="45.08019" lon="5.95892">
        <ele>2369</ele>
        <time>2019-08-03T15:58:14.000Z</time>
      </trkpt>
      <trkpt lat="45.08014" lon="5.95891">
        <ele>2368</ele>
        <time>2019-08-03T15:58:20.000Z</time>
      </trkpt>
      <trkpt lat="45.08008" lon="5.95889">
        <ele>2364</ele>
        <time>2019-08-03T15:58:34.000Z</time>
      </trkpt>
      <trkpt lat="45.08002" lon="5.95885">
        <ele>2363</ele>
        <time>2019-08-03T15:58:43.000Z</time>
      </trkpt>
      <trkpt lat="45.07997" lon="5.95885">
        <ele>2362</ele>
        <time>2019-08-03T15:58:51.000Z</time>
      </trkpt>
      <trkpt lat="45.07992" lon="5.95889">
        <ele>2360</ele>
        <time>2019-08-03T15:58:57.000Z</time>
      </trkpt>
      <trkpt lat="45.07989" lon="5.95879">
        <ele>2360</ele>
        <time>2019-08-03T15:59:04.000Z</time>
      </trkpt>
      <trkpt lat="45.07987" lon="5.95873">
        <ele>2359</ele>
        <time>2019-08-03T15:59:08.000Z</time>
      </trkpt>
      <trkpt lat="45.07986" lon="5.95865">
        <ele>2357</ele>
        <time>2019-08-03T15:59:15.000Z</time>
      </trkpt>
      <trkpt lat="45.07984" lon="5.95859">
        <ele>2356</ele>
        <time>2019-08-03T15:59:22.000Z</time>
      </trkpt>
      <trkpt lat="45.07979" lon="5.95852">
        <ele>2355</ele>
        <time>2019-08-03T15:59:28.000Z</time>
      </trkpt>
      <trkpt lat="45.07974" lon="5.95847">
        <ele>2351</ele>
        <time>2019-08-03T15:59:41.000Z</time>
      </trkpt>
      <trkpt lat="45.07969" lon="5.95841">
        <ele>2351</ele>
        <time>2019-08-03T15:59:48.000Z</time>
      </trkpt>
      <trkpt lat="45.07965" lon="5.95837">
        <ele>2350</ele>
        <time>2019-08-03T15:59:52.000Z</time>
      </trkpt>
      <trkpt lat="45.07962" lon="5.95828">
        <ele>2350</ele>
        <time>2019-08-03T15:59:59.000Z</time>
      </trkpt>
      <trkpt lat="45.07958" lon="5.95821">
        <ele>2350</ele>
        <time>2019-08-03T16:00:06.000Z</time>
      </trkpt>
      <trkpt lat="45.07952" lon="5.95822">
        <ele>2347</ele>
        <time>2019-08-03T16:00:12.000Z</time>
      </trkpt>
      <trkpt lat="45.07947" lon="5.95825">
        <ele>2346</ele>
        <time>2019-08-03T16:00:16.000Z</time>
      </trkpt>
      <trkpt lat="45.07939" lon="5.95826">
        <ele>2344</ele>
        <time>2019-08-03T16:00:23.000Z</time>
      </trkpt>
      <trkpt lat="45.07935" lon="5.95824">
        <ele>2345</ele>
        <time>2019-08-03T16:00:27.000Z</time>
      </trkpt>
      <trkpt lat="45.07927" lon="5.95823">
        <ele>2345</ele>
        <time>2019-08-03T16:00:34.000Z</time>
      </trkpt>
      <trkpt lat="45.07921" lon="5.95824">
        <ele>2345</ele>
        <time>2019-08-03T16:00:38.000Z</time>
      </trkpt>
      <trkpt lat="45.07916" lon="5.95824">
        <ele>2345</ele>
        <time>2019-08-03T16:00:42.000Z</time>
      </trkpt>
      <trkpt lat="45.07908" lon="5.95819">
        <ele>2344</ele>
        <time>2019-08-03T16:00:49.000Z</time>
      </trkpt>
      <trkpt lat="45.07901" lon="5.95819">
        <ele>2344</ele>
        <time>2019-08-03T16:00:55.000Z</time>
      </trkpt>
      <trkpt lat="45.07891" lon="5.95816">
        <ele>2343</ele>
        <time>2019-08-03T16:01:02.000Z</time>
      </trkpt>
      <trkpt lat="45.07886" lon="5.95813">
        <ele>2342</ele>
        <time>2019-08-03T16:01:06.000Z</time>
      </trkpt>
      <trkpt lat="45.07878" lon="5.95811">
        <ele>2341</ele>
        <time>2019-08-03T16:01:13.000Z</time>
      </trkpt>
      <trkpt lat="45.07874" lon="5.95804">
        <ele>2340</ele>
        <time>2019-08-03T16:01:19.000Z</time>
      </trkpt>
      <trkpt lat="45.07872" lon="5.95799">
        <ele>2341</ele>
        <time>2019-08-03T16:01:23.000Z</time>
      </trkpt>
      <trkpt lat="45.07867" lon="5.95791">
        <ele>2340</ele>
        <time>2019-08-03T16:01:29.000Z</time>
      </trkpt>
      <trkpt lat="45.07864" lon="5.95783">
        <ele>2340</ele>
        <time>2019-08-03T16:01:36.000Z</time>
      </trkpt>
      <trkpt lat="45.07861" lon="5.95771">
        <ele>2338</ele>
        <time>2019-08-03T16:01:44.000Z</time>
      </trkpt>
      <trkpt lat="45.07861" lon="5.95764">
        <ele>2337</ele>
        <time>2019-08-03T16:01:48.000Z</time>
      </trkpt>
      <trkpt lat="45.0786" lon="5.95756">
        <ele>2336</ele>
        <time>2019-08-03T16:01:52.000Z</time>
      </trkpt>
      <trkpt lat="45.07859" lon="5.95749">
        <ele>2335</ele>
        <time>2019-08-03T16:01:56.000Z</time>
      </trkpt>
      <trkpt lat="45.07854" lon="5.95742">
        <ele>2334</ele>
        <time>2019-08-03T16:02:03.000Z</time>
      </trkpt>
      <trkpt lat="45.07848" lon="5.95739">
        <ele>2333</ele>
        <time>2019-08-03T16:02:09.000Z</time>
      </trkpt>
      <trkpt lat="45.07845" lon="5.95733">
        <ele>2330</ele>
        <time>2019-08-03T16:02:37.000Z</time>
      </trkpt>
      <trkpt lat="45.07844" lon="5.95725">
        <ele>2328</ele>
        <time>2019-08-03T16:02:43.000Z</time>
      </trkpt>
      <trkpt lat="45.0784" lon="5.95718">
        <ele>2324</ele>
        <time>2019-08-03T16:02:53.000Z</time>
      </trkpt>
      <trkpt lat="45.07835" lon="5.95713">
        <ele>2321</ele>
        <time>2019-08-03T16:02:57.000Z</time>
      </trkpt>
      <trkpt lat="45.0783" lon="5.95707">
        <ele>2319</ele>
        <time>2019-08-03T16:03:03.000Z</time>
      </trkpt>
      <trkpt lat="45.07822" lon="5.95707">
        <ele>2318</ele>
        <time>2019-08-03T16:03:10.000Z</time>
      </trkpt>
      <trkpt lat="45.07816" lon="5.95699">
        <ele>2318</ele>
        <time>2019-08-03T16:03:17.000Z</time>
      </trkpt>
      <trkpt lat="45.0781" lon="5.95693">
        <ele>2315</ele>
        <time>2019-08-03T16:03:24.000Z</time>
      </trkpt>
      <trkpt lat="45.07806" lon="5.95687">
        <ele>2314</ele>
        <time>2019-08-03T16:03:32.000Z</time>
      </trkpt>
      <trkpt lat="45.07801" lon="5.95685">
        <ele>2311</ele>
        <time>2019-08-03T16:03:38.000Z</time>
      </trkpt>
      <trkpt lat="45.07794" lon="5.9568">
        <ele>2310</ele>
        <time>2019-08-03T16:03:44.000Z</time>
      </trkpt>
      <trkpt lat="45.0779" lon="5.95675">
        <ele>2309</ele>
        <time>2019-08-03T16:03:50.000Z</time>
      </trkpt>
      <trkpt lat="45.07784" lon="5.95666">
        <ele>2308</ele>
        <time>2019-08-03T16:03:58.000Z</time>
      </trkpt>
      <trkpt lat="45.07778" lon="5.95662">
        <ele>2306</ele>
        <time>2019-08-03T16:04:05.000Z</time>
      </trkpt>
      <trkpt lat="45.07776" lon="5.95656">
        <ele>2306</ele>
        <time>2019-08-03T16:04:09.000Z</time>
      </trkpt>
      <trkpt lat="45.07774" lon="5.95646">
        <ele>2305</ele>
        <time>2019-08-03T16:04:15.000Z</time>
      </trkpt>
      <trkpt lat="45.07769" lon="5.95637">
        <ele>2303</ele>
        <time>2019-08-03T16:04:21.000Z</time>
      </trkpt>
      <trkpt lat="45.07763" lon="5.95629">
        <ele>2300</ele>
        <time>2019-08-03T16:04:28.000Z</time>
      </trkpt>
      <trkpt lat="45.07757" lon="5.95621">
        <ele>2298</ele>
        <time>2019-08-03T16:04:36.000Z</time>
      </trkpt>
      <trkpt lat="45.0775" lon="5.95616">
        <ele>2297</ele>
        <time>2019-08-03T16:04:43.000Z</time>
      </trkpt>
      <trkpt lat="45.07743" lon="5.95612">
        <ele>2295</ele>
        <time>2019-08-03T16:04:50.000Z</time>
      </trkpt>
      <trkpt lat="45.0774" lon="5.95606">
        <ele>2293</ele>
        <time>2019-08-03T16:04:57.000Z</time>
      </trkpt>
      <trkpt lat="45.07739" lon="5.956">
        <ele>2294</ele>
        <time>2019-08-03T16:05:01.000Z</time>
      </trkpt>
      <trkpt lat="45.07735" lon="5.95589">
        <ele>2293</ele>
        <time>2019-08-03T16:05:09.000Z</time>
      </trkpt>
      <trkpt lat="45.07731" lon="5.95585">
        <ele>2289</ele>
        <time>2019-08-03T16:05:31.000Z</time>
      </trkpt>
      <trkpt lat="45.07727" lon="5.95575">
        <ele>2288</ele>
        <time>2019-08-03T16:05:38.000Z</time>
      </trkpt>
      <trkpt lat="45.07721" lon="5.95565">
        <ele>2287</ele>
        <time>2019-08-03T16:05:45.000Z</time>
      </trkpt>
      <trkpt lat="45.0772" lon="5.95552">
        <ele>2286</ele>
        <time>2019-08-03T16:05:52.000Z</time>
      </trkpt>
      <trkpt lat="45.07719" lon="5.95545">
        <ele>2285</ele>
        <time>2019-08-03T16:05:56.000Z</time>
      </trkpt>
      <trkpt lat="45.07716" lon="5.95534">
        <ele>2285</ele>
        <time>2019-08-03T16:06:02.000Z</time>
      </trkpt>
      <trkpt lat="45.07714" lon="5.95523">
        <ele>2283</ele>
        <time>2019-08-03T16:06:08.000Z</time>
      </trkpt>
      <trkpt lat="45.0771" lon="5.95515">
        <ele>2282</ele>
        <time>2019-08-03T16:06:15.000Z</time>
      </trkpt>
      <trkpt lat="45.07707" lon="5.9551">
        <ele>2283</ele>
        <time>2019-08-03T16:06:22.000Z</time>
      </trkpt>
      <trkpt lat="45.07703" lon="5.95505">
        <ele>2282</ele>
        <time>2019-08-03T16:06:36.000Z</time>
      </trkpt>
      <trkpt lat="45.07699" lon="5.95498">
        <ele>2283</ele>
        <time>2019-08-03T16:06:43.000Z</time>
      </trkpt>
      <trkpt lat="45.07694" lon="5.95491">
        <ele>2284</ele>
        <time>2019-08-03T16:06:54.000Z</time>
      </trkpt>
      <trkpt lat="45.07688" lon="5.9549">
        <ele>2283</ele>
        <time>2019-08-03T16:07:01.000Z</time>
      </trkpt>
      <trkpt lat="45.07687" lon="5.95482">
        <ele>2283</ele>
        <time>2019-08-03T16:07:08.000Z</time>
      </trkpt>
      <trkpt lat="45.07685" lon="5.95473">
        <ele>2283</ele>
        <time>2019-08-03T16:07:15.000Z</time>
      </trkpt>
      <trkpt lat="45.07683" lon="5.95464">
        <ele>2281</ele>
        <time>2019-08-03T16:07:21.000Z</time>
      </trkpt>
      <trkpt lat="45.07678" lon="5.95458">
        <ele>2280</ele>
        <time>2019-08-03T16:07:27.000Z</time>
      </trkpt>
      <trkpt lat="45.07672" lon="5.95455">
        <ele>2280</ele>
        <time>2019-08-03T16:07:35.000Z</time>
      </trkpt>
      <trkpt lat="45.07665" lon="5.95456">
        <ele>2280</ele>
        <time>2019-08-03T16:07:52.000Z</time>
      </trkpt>
      <trkpt lat="45.07658" lon="5.95455">
        <ele>2279</ele>
        <time>2019-08-03T16:07:58.000Z</time>
      </trkpt>
      <trkpt lat="45.07649" lon="5.95453">
        <ele>2278</ele>
        <time>2019-08-03T16:08:05.000Z</time>
      </trkpt>
      <trkpt lat="45.07644" lon="5.95452">
        <ele>2276</ele>
        <time>2019-08-03T16:08:09.000Z</time>
      </trkpt>
      <trkpt lat="45.07636" lon="5.95444">
        <ele>2276</ele>
        <time>2019-08-03T16:08:16.000Z</time>
      </trkpt>
      <trkpt lat="45.07632" lon="5.95438">
        <ele>2276</ele>
        <time>2019-08-03T16:08:20.000Z</time>
      </trkpt>
      <trkpt lat="45.07626" lon="5.95434">
        <ele>2275</ele>
        <time>2019-08-03T16:08:26.000Z</time>
      </trkpt>
      <trkpt lat="45.07619" lon="5.9543">
        <ele>2274</ele>
        <time>2019-08-03T16:08:32.000Z</time>
      </trkpt>
      <trkpt lat="45.07611" lon="5.95427">
        <ele>2274</ele>
        <time>2019-08-03T16:08:39.000Z</time>
      </trkpt>
      <trkpt lat="45.07605" lon="5.95425">
        <ele>2273</ele>
        <time>2019-08-03T16:08:43.000Z</time>
      </trkpt>
      <trkpt lat="45.07598" lon="5.95424">
        <ele>2272</ele>
        <time>2019-08-03T16:08:50.000Z</time>
      </trkpt>
      <trkpt lat="45.07593" lon="5.95424">
        <ele>2271</ele>
        <time>2019-08-03T16:08:54.000Z</time>
      </trkpt>
      <trkpt lat="45.07589" lon="5.95425">
        <ele>2270</ele>
        <time>2019-08-03T16:08:58.000Z</time>
      </trkpt>
      <trkpt lat="45.07584" lon="5.95427">
        <ele>2269</ele>
        <time>2019-08-03T16:09:02.000Z</time>
      </trkpt>
      <trkpt lat="45.07576" lon="5.95422">
        <ele>2268</ele>
        <time>2019-08-03T16:09:08.000Z</time>
      </trkpt>
      <trkpt lat="45.07572" lon="5.95416">
        <ele>2267</ele>
        <time>2019-08-03T16:09:11.000Z</time>
      </trkpt>
      <trkpt lat="45.07568" lon="5.95404">
        <ele>2266</ele>
        <time>2019-08-03T16:09:18.000Z</time>
      </trkpt>
      <trkpt lat="45.07566" lon="5.95397">
        <ele>2266</ele>
        <time>2019-08-03T16:09:22.000Z</time>
      </trkpt>
      <trkpt lat="45.07562" lon="5.95391">
        <ele>2264</ele>
        <time>2019-08-03T16:09:28.000Z</time>
      </trkpt>
      <trkpt lat="45.07555" lon="5.95384">
        <ele>2263</ele>
        <time>2019-08-03T16:09:35.000Z</time>
      </trkpt>
      <trkpt lat="45.07551" lon="5.95379">
        <ele>2265</ele>
        <time>2019-08-03T16:09:59.000Z</time>
      </trkpt>
      <trkpt lat="45.07546" lon="5.95371">
        <ele>2264</ele>
        <time>2019-08-03T16:10:06.000Z</time>
      </trkpt>
      <trkpt lat="45.07542" lon="5.95366">
        <ele>2264</ele>
        <time>2019-08-03T16:10:10.000Z</time>
      </trkpt>
      <trkpt lat="45.07537" lon="5.95363">
        <ele>2263</ele>
        <time>2019-08-03T16:10:14.000Z</time>
      </trkpt>
      <trkpt lat="45.07532" lon="5.9536">
        <ele>2262</ele>
        <time>2019-08-03T16:10:18.000Z</time>
      </trkpt>
      <trkpt lat="45.07524" lon="5.95358">
        <ele>2260</ele>
        <time>2019-08-03T16:10:25.000Z</time>
      </trkpt>
      <trkpt lat="45.07515" lon="5.95361">
        <ele>2257</ele>
        <time>2019-08-03T16:10:33.000Z</time>
      </trkpt>
      <trkpt lat="45.07507" lon="5.95357">
        <ele>2257</ele>
        <time>2019-08-03T16:10:40.000Z</time>
      </trkpt>
      <trkpt lat="45.075" lon="5.9535">
        <ele>2255</ele>
        <time>2019-08-03T16:10:47.000Z</time>
      </trkpt>
      <trkpt lat="45.07495" lon="5.95344">
        <ele>2255</ele>
        <time>2019-08-03T16:10:53.000Z</time>
      </trkpt>
      <trkpt lat="45.07488" lon="5.95336">
        <ele>2255</ele>
        <time>2019-08-03T16:10:59.000Z</time>
      </trkpt>
      <trkpt lat="45.0748" lon="5.95336">
        <ele>2253</ele>
        <time>2019-08-03T16:11:06.000Z</time>
      </trkpt>
      <trkpt lat="45.07476" lon="5.95335">
        <ele>2253</ele>
        <time>2019-08-03T16:11:10.000Z</time>
      </trkpt>
      <trkpt lat="45.07466" lon="5.95332">
        <ele>2250</ele>
        <time>2019-08-03T16:11:17.000Z</time>
      </trkpt>
      <trkpt lat="45.07457" lon="5.95332">
        <ele>2249</ele>
        <time>2019-08-03T16:11:24.000Z</time>
      </trkpt>
      <trkpt lat="45.07452" lon="5.95334">
        <ele>2249</ele>
        <time>2019-08-03T16:11:28.000Z</time>
      </trkpt>
      <trkpt lat="45.07447" lon="5.95335">
        <ele>2248</ele>
        <time>2019-08-03T16:11:31.000Z</time>
      </trkpt>
      <trkpt lat="45.07441" lon="5.95337">
        <ele>2248</ele>
        <time>2019-08-03T16:11:35.000Z</time>
      </trkpt>
      <trkpt lat="45.07437" lon="5.95335">
        <ele>2246</ele>
        <time>2019-08-03T16:11:39.000Z</time>
      </trkpt>
      <trkpt lat="45.07429" lon="5.95334">
        <ele>2243</ele>
        <time>2019-08-03T16:11:46.000Z</time>
      </trkpt>
      <trkpt lat="45.07425" lon="5.95333">
        <ele>2242</ele>
        <time>2019-08-03T16:11:50.000Z</time>
      </trkpt>
      <trkpt lat="45.07418" lon="5.95335">
        <ele>2241</ele>
        <time>2019-08-03T16:11:56.000Z</time>
      </trkpt>
      <trkpt lat="45.07411" lon="5.95337">
        <ele>2237</ele>
        <time>2019-08-03T16:12:03.000Z</time>
      </trkpt>
      <trkpt lat="45.07404" lon="5.95335">
        <ele>2236</ele>
        <time>2019-08-03T16:12:09.000Z</time>
      </trkpt>
      <trkpt lat="45.07395" lon="5.95334">
        <ele>2235</ele>
        <time>2019-08-03T16:12:16.000Z</time>
      </trkpt>
      <trkpt lat="45.07386" lon="5.95335">
        <ele>2234</ele>
        <time>2019-08-03T16:12:23.000Z</time>
      </trkpt>
      <trkpt lat="45.07377" lon="5.95338">
        <ele>2232</ele>
        <time>2019-08-03T16:12:30.000Z</time>
      </trkpt>
      <trkpt lat="45.0737" lon="5.9534">
        <ele>2231</ele>
        <time>2019-08-03T16:12:37.000Z</time>
      </trkpt>
      <trkpt lat="45.07365" lon="5.95342">
        <ele>2231</ele>
        <time>2019-08-03T16:12:41.000Z</time>
      </trkpt>
      <trkpt lat="45.07358" lon="5.95344">
        <ele>2230</ele>
        <time>2019-08-03T16:12:47.000Z</time>
      </trkpt>
      <trkpt lat="45.07353" lon="5.95344">
        <ele>2230</ele>
        <time>2019-08-03T16:12:50.000Z</time>
      </trkpt>
      <trkpt lat="45.07346" lon="5.95346">
        <ele>2229</ele>
        <time>2019-08-03T16:12:56.000Z</time>
      </trkpt>
      <trkpt lat="45.07341" lon="5.95347">
        <ele>2228</ele>
        <time>2019-08-03T16:13:00.000Z</time>
      </trkpt>
      <trkpt lat="45.07335" lon="5.95348">
        <ele>2227</ele>
        <time>2019-08-03T16:13:04.000Z</time>
      </trkpt>
      <trkpt lat="45.0733" lon="5.95347">
        <ele>2227</ele>
        <time>2019-08-03T16:13:08.000Z</time>
      </trkpt>
      <trkpt lat="45.07324" lon="5.95346">
        <ele>2226</ele>
        <time>2019-08-03T16:13:12.000Z</time>
      </trkpt>
      <trkpt lat="45.07318" lon="5.95346">
        <ele>2225</ele>
        <time>2019-08-03T16:13:16.000Z</time>
      </trkpt>
      <trkpt lat="45.07311" lon="5.95344">
        <ele>2223</ele>
        <time>2019-08-03T16:13:22.000Z</time>
      </trkpt>
      <trkpt lat="45.07304" lon="5.95342">
        <ele>2221</ele>
        <time>2019-08-03T16:13:28.000Z</time>
      </trkpt>
      <trkpt lat="45.07299" lon="5.9534">
        <ele>2220</ele>
        <time>2019-08-03T16:13:32.000Z</time>
      </trkpt>
      <trkpt lat="45.07291" lon="5.95341">
        <ele>2220</ele>
        <time>2019-08-03T16:13:40.000Z</time>
      </trkpt>
      <trkpt lat="45.07283" lon="5.95339">
        <ele>2217</ele>
        <time>2019-08-03T16:13:47.000Z</time>
      </trkpt>
      <trkpt lat="45.07273" lon="5.95335">
        <ele>2215</ele>
        <time>2019-08-03T16:13:55.000Z</time>
      </trkpt>
      <trkpt lat="45.07267" lon="5.95333">
        <ele>2216</ele>
        <time>2019-08-03T16:14:01.000Z</time>
      </trkpt>
      <trkpt lat="45.0726" lon="5.95329">
        <ele>2214</ele>
        <time>2019-08-03T16:14:07.000Z</time>
      </trkpt>
      <trkpt lat="45.07252" lon="5.95325">
        <ele>2213</ele>
        <time>2019-08-03T16:14:14.000Z</time>
      </trkpt>
      <trkpt lat="45.07247" lon="5.95323">
        <ele>2213</ele>
        <time>2019-08-03T16:14:18.000Z</time>
      </trkpt>
      <trkpt lat="45.07242" lon="5.95321">
        <ele>2213</ele>
        <time>2019-08-03T16:14:22.000Z</time>
      </trkpt>
      <trkpt lat="45.07236" lon="5.9532">
        <ele>2211</ele>
        <time>2019-08-03T16:15:12.000Z</time>
      </trkpt>
      <trkpt lat="45.0723" lon="5.95319">
        <ele>2208</ele>
        <time>2019-08-03T16:15:18.000Z</time>
      </trkpt>
      <trkpt lat="45.07222" lon="5.95318">
        <ele>2208</ele>
        <time>2019-08-03T16:15:25.000Z</time>
      </trkpt>
      <trkpt lat="45.07218" lon="5.9532">
        <ele>2207</ele>
        <time>2019-08-03T16:15:29.000Z</time>
      </trkpt>
      <trkpt lat="45.07209" lon="5.9532">
        <ele>2205</ele>
        <time>2019-08-03T16:15:36.000Z</time>
      </trkpt>
      <trkpt lat="45.07199" lon="5.95322">
        <ele>2204</ele>
        <time>2019-08-03T16:15:43.000Z</time>
      </trkpt>
      <trkpt lat="45.07192" lon="5.95322">
        <ele>2201</ele>
        <time>2019-08-03T16:15:51.000Z</time>
      </trkpt>
      <trkpt lat="45.07186" lon="5.95322">
        <ele>2200</ele>
        <time>2019-08-03T16:15:54.000Z</time>
      </trkpt>
      <trkpt lat="45.07177" lon="5.9532">
        <ele>2199</ele>
        <time>2019-08-03T16:16:00.000Z</time>
      </trkpt>
      <trkpt lat="45.0717" lon="5.95318">
        <ele>2198</ele>
        <time>2019-08-03T16:16:07.000Z</time>
      </trkpt>
      <trkpt lat="45.07161" lon="5.95312">
        <ele>2195</ele>
        <time>2019-08-03T16:16:14.000Z</time>
      </trkpt>
      <trkpt lat="45.07154" lon="5.95307">
        <ele>2194</ele>
        <time>2019-08-03T16:16:20.000Z</time>
      </trkpt>
      <trkpt lat="45.07147" lon="5.95304">
        <ele>2194</ele>
        <time>2019-08-03T16:16:27.000Z</time>
      </trkpt>
      <trkpt lat="45.07142" lon="5.95299">
        <ele>2193</ele>
        <time>2019-08-03T16:16:33.000Z</time>
      </trkpt>
      <trkpt lat="45.07135" lon="5.95293">
        <ele>2192</ele>
        <time>2019-08-03T16:16:39.000Z</time>
      </trkpt>
      <trkpt lat="45.07126" lon="5.95289">
        <ele>2193</ele>
        <time>2019-08-03T16:16:46.000Z</time>
      </trkpt>
      <trkpt lat="45.07118" lon="5.95289">
        <ele>2191</ele>
        <time>2019-08-03T16:16:54.000Z</time>
      </trkpt>
      <trkpt lat="45.07113" lon="5.95285">
        <ele>2192</ele>
        <time>2019-08-03T16:17:55.000Z</time>
      </trkpt>
      <trkpt lat="45.07108" lon="5.95283">
        <ele>2191</ele>
        <time>2019-08-03T16:18:02.000Z</time>
      </trkpt>
      <trkpt lat="45.07102" lon="5.95279">
        <ele>2190</ele>
        <time>2019-08-03T16:18:09.000Z</time>
      </trkpt>
      <trkpt lat="45.07097" lon="5.95273">
        <ele>2188</ele>
        <time>2019-08-03T16:18:15.000Z</time>
      </trkpt>
      <trkpt lat="45.0709" lon="5.95276">
        <ele>2185</ele>
        <time>2019-08-03T16:18:25.000Z</time>
      </trkpt>
      <trkpt lat="45.07082" lon="5.95278">
        <ele>2184</ele>
        <time>2019-08-03T16:18:32.000Z</time>
      </trkpt>
      <trkpt lat="45.07074" lon="5.95277">
        <ele>2180</ele>
        <time>2019-08-03T16:18:39.000Z</time>
      </trkpt>
      <trkpt lat="45.07065" lon="5.95277">
        <ele>2179</ele>
        <time>2019-08-03T16:18:46.000Z</time>
      </trkpt>
      <trkpt lat="45.0706" lon="5.95279">
        <ele>2176</ele>
        <time>2019-08-03T16:18:54.000Z</time>
      </trkpt>
      <trkpt lat="45.07052" lon="5.95281">
        <ele>2176</ele>
        <time>2019-08-03T16:19:11.000Z</time>
      </trkpt>
      <trkpt lat="45.07048" lon="5.95281">
        <ele>2176</ele>
        <time>2019-08-03T16:19:15.000Z</time>
      </trkpt>
      <trkpt lat="45.07039" lon="5.9528">
        <ele>2177</ele>
        <time>2019-08-03T16:19:22.000Z</time>
      </trkpt>
      <trkpt lat="45.07029" lon="5.95282">
        <ele>2177</ele>
        <time>2019-08-03T16:19:29.000Z</time>
      </trkpt>
      <trkpt lat="45.07024" lon="5.95285">
        <ele>2177</ele>
        <time>2019-08-03T16:19:33.000Z</time>
      </trkpt>
      <trkpt lat="45.07017" lon="5.95292">
        <ele>2176</ele>
        <time>2019-08-03T16:19:40.000Z</time>
      </trkpt>
      <trkpt lat="45.0701" lon="5.95295">
        <ele>2176</ele>
        <time>2019-08-03T16:19:46.000Z</time>
      </trkpt>
      <trkpt lat="45.07" lon="5.953">
        <ele>2176</ele>
        <time>2019-08-03T16:19:53.000Z</time>
      </trkpt>
      <trkpt lat="45.06991" lon="5.95303">
        <ele>2177</ele>
        <time>2019-08-03T16:20:00.000Z</time>
      </trkpt>
      <trkpt lat="45.06983" lon="5.95307">
        <ele>2177</ele>
        <time>2019-08-03T16:20:07.000Z</time>
      </trkpt>
      <trkpt lat="45.06976" lon="5.9531">
        <ele>2176</ele>
        <time>2019-08-03T16:20:13.000Z</time>
      </trkpt>
      <trkpt lat="45.0697" lon="5.95309">
        <ele>2175</ele>
        <time>2019-08-03T16:20:19.000Z</time>
      </trkpt>
      <trkpt lat="45.06964" lon="5.95306">
        <ele>2175</ele>
        <time>2019-08-03T16:20:25.000Z</time>
      </trkpt>
      <trkpt lat="45.06958" lon="5.95304">
        <ele>2174</ele>
        <time>2019-08-03T16:20:32.000Z</time>
      </trkpt>
      <trkpt lat="45.06954" lon="5.95314">
        <ele>2171</ele>
        <time>2019-08-03T16:21:44.000Z</time>
      </trkpt>
      <trkpt lat="45.06951" lon="5.95319">
        <ele>2170</ele>
        <time>2019-08-03T16:21:51.000Z</time>
      </trkpt>
      <trkpt lat="45.06945" lon="5.95325">
        <ele>2172</ele>
        <time>2019-08-03T16:21:58.000Z</time>
      </trkpt>
      <trkpt lat="45.06937" lon="5.95328">
        <ele>2172</ele>
        <time>2019-08-03T16:22:05.000Z</time>
      </trkpt>
      <trkpt lat="45.06931" lon="5.9533">
        <ele>2173</ele>
        <time>2019-08-03T16:22:11.000Z</time>
      </trkpt>
      <trkpt lat="45.06926" lon="5.95328">
        <ele>2173</ele>
        <time>2019-08-03T16:22:15.000Z</time>
      </trkpt>
      <trkpt lat="45.06917" lon="5.95324">
        <ele>2171</ele>
        <time>2019-08-03T16:22:22.000Z</time>
      </trkpt>
      <trkpt lat="45.06909" lon="5.95324">
        <ele>2169</ele>
        <time>2019-08-03T16:22:30.000Z</time>
      </trkpt>
      <trkpt lat="45.06903" lon="5.95325">
        <ele>2168</ele>
        <time>2019-08-03T16:22:34.000Z</time>
      </trkpt>
      <trkpt lat="45.06898" lon="5.95323">
        <ele>2168</ele>
        <time>2019-08-03T16:22:38.000Z</time>
      </trkpt>
      <trkpt lat="45.06891" lon="5.95324">
        <ele>2167</ele>
        <time>2019-08-03T16:22:44.000Z</time>
      </trkpt>
      <trkpt lat="45.06886" lon="5.95323">
        <ele>2164</ele>
        <time>2019-08-03T16:22:54.000Z</time>
      </trkpt>
      <trkpt lat="45.06879" lon="5.95323">
        <ele>2164</ele>
        <time>2019-08-03T16:23:01.000Z</time>
      </trkpt>
      <trkpt lat="45.06872" lon="5.95326">
        <ele>2162</ele>
        <time>2019-08-03T16:23:08.000Z</time>
      </trkpt>
      <trkpt lat="45.06866" lon="5.95327">
        <ele>2163</ele>
        <time>2019-08-03T16:23:15.000Z</time>
      </trkpt>
      <trkpt lat="45.06859" lon="5.95324">
        <ele>2161</ele>
        <time>2019-08-03T16:23:25.000Z</time>
      </trkpt>
      <trkpt lat="45.06852" lon="5.95323">
        <ele>2157</ele>
        <time>2019-08-03T16:23:33.000Z</time>
      </trkpt>
      <trkpt lat="45.06847" lon="5.95328">
        <ele>2155</ele>
        <time>2019-08-03T16:23:39.000Z</time>
      </trkpt>
      <trkpt lat="45.06841" lon="5.95328">
        <ele>2153</ele>
        <time>2019-08-03T16:23:43.000Z</time>
      </trkpt>
      <trkpt lat="45.06837" lon="5.95326">
        <ele>2153</ele>
        <time>2019-08-03T16:23:47.000Z</time>
      </trkpt>
      <trkpt lat="45.06831" lon="5.95322">
        <ele>2152</ele>
        <time>2019-08-03T16:23:53.000Z</time>
      </trkpt>
      <trkpt lat="45.06826" lon="5.95322">
        <ele>2153</ele>
        <time>2019-08-03T16:23:57.000Z</time>
      </trkpt>
      <trkpt lat="45.06821" lon="5.95325">
        <ele>2151</ele>
        <time>2019-08-03T16:24:03.000Z</time>
      </trkpt>
      <trkpt lat="45.06813" lon="5.95325">
        <ele>2148</ele>
        <time>2019-08-03T16:24:10.000Z</time>
      </trkpt>
      <trkpt lat="45.06807" lon="5.95324">
        <ele>2148</ele>
        <time>2019-08-03T16:24:14.000Z</time>
      </trkpt>
      <trkpt lat="45.06798" lon="5.95325">
        <ele>2145</ele>
        <time>2019-08-03T16:24:21.000Z</time>
      </trkpt>
      <trkpt lat="45.06788" lon="5.95327">
        <ele>2145</ele>
        <time>2019-08-03T16:24:28.000Z</time>
      </trkpt>
      <trkpt lat="45.0678" lon="5.95328">
        <ele>2144</ele>
        <time>2019-08-03T16:24:34.000Z</time>
      </trkpt>
      <trkpt lat="45.06774" lon="5.95328">
        <ele>2143</ele>
        <time>2019-08-03T16:24:38.000Z</time>
      </trkpt>
      <trkpt lat="45.06767" lon="5.9533">
        <ele>2143</ele>
        <time>2019-08-03T16:24:45.000Z</time>
      </trkpt>
      <trkpt lat="45.06758" lon="5.95332">
        <ele>2141</ele>
        <time>2019-08-03T16:24:52.000Z</time>
      </trkpt>
      <trkpt lat="45.06749" lon="5.95335">
        <ele>2140</ele>
        <time>2019-08-03T16:24:59.000Z</time>
      </trkpt>
      <trkpt lat="45.06739" lon="5.95335">
        <ele>2141</ele>
        <time>2019-08-03T16:25:06.000Z</time>
      </trkpt>
      <trkpt lat="45.06731" lon="5.95338">
        <ele>2140</ele>
        <time>2019-08-03T16:25:12.000Z</time>
      </trkpt>
      <trkpt lat="45.06723" lon="5.95345">
        <ele>2139</ele>
        <time>2019-08-03T16:25:19.000Z</time>
      </trkpt>
      <trkpt lat="45.06718" lon="5.95349">
        <ele>2140</ele>
        <time>2019-08-03T16:25:23.000Z</time>
      </trkpt>
      <trkpt lat="45.06713" lon="5.95352">
        <ele>2138</ele>
        <time>2019-08-03T16:25:27.000Z</time>
      </trkpt>
      <trkpt lat="45.06705" lon="5.95356">
        <ele>2136</ele>
        <time>2019-08-03T16:25:34.000Z</time>
      </trkpt>
      <trkpt lat="45.06701" lon="5.9536">
        <ele>2136</ele>
        <time>2019-08-03T16:25:38.000Z</time>
      </trkpt>
      <trkpt lat="45.06696" lon="5.95362">
        <ele>2136</ele>
        <time>2019-08-03T16:25:42.000Z</time>
      </trkpt>
      <trkpt lat="45.06691" lon="5.95361">
        <ele>2135</ele>
        <time>2019-08-03T16:25:45.000Z</time>
      </trkpt>
      <trkpt lat="45.06681" lon="5.9536">
        <ele>2136</ele>
        <time>2019-08-03T16:25:52.000Z</time>
      </trkpt>
      <trkpt lat="45.06673" lon="5.95359">
        <ele>2135</ele>
        <time>2019-08-03T16:25:59.000Z</time>
      </trkpt>
      <trkpt lat="45.06665" lon="5.95359">
        <ele>2134</ele>
        <time>2019-08-03T16:26:06.000Z</time>
      </trkpt>
      <trkpt lat="45.0666" lon="5.95359">
        <ele>2133</ele>
        <time>2019-08-03T16:26:10.000Z</time>
      </trkpt>
      <trkpt lat="45.06654" lon="5.95359">
        <ele>2133</ele>
        <time>2019-08-03T16:26:14.000Z</time>
      </trkpt>
      <trkpt lat="45.0665" lon="5.9536">
        <ele>2132</ele>
        <time>2019-08-03T16:26:18.000Z</time>
      </trkpt>
      <trkpt lat="45.0664" lon="5.95364">
        <ele>2132</ele>
        <time>2019-08-03T16:26:25.000Z</time>
      </trkpt>
      <trkpt lat="45.06634" lon="5.95367">
        <ele>2132</ele>
        <time>2019-08-03T16:26:29.000Z</time>
      </trkpt>
      <trkpt lat="45.06629" lon="5.95371">
        <ele>2132</ele>
        <time>2019-08-03T16:26:33.000Z</time>
      </trkpt>
      <trkpt lat="45.06625" lon="5.95373">
        <ele>2132</ele>
        <time>2019-08-03T16:26:37.000Z</time>
      </trkpt>
      <trkpt lat="45.06619" lon="5.95377">
        <ele>2132</ele>
        <time>2019-08-03T16:26:44.000Z</time>
      </trkpt>
      <trkpt lat="45.06611" lon="5.95381">
        <ele>2133</ele>
        <time>2019-08-03T16:26:51.000Z</time>
      </trkpt>
      <trkpt lat="45.06605" lon="5.95383">
        <ele>2132</ele>
        <time>2019-08-03T16:26:57.000Z</time>
      </trkpt>
      <trkpt lat="45.066" lon="5.95383">
        <ele>2132</ele>
        <time>2019-08-03T16:27:00.000Z</time>
      </trkpt>
      <trkpt lat="45.06594" lon="5.95384">
        <ele>2132</ele>
        <time>2019-08-03T16:27:03.000Z</time>
      </trkpt>
      <trkpt lat="45.06589" lon="5.95385">
        <ele>2132</ele>
        <time>2019-08-03T16:27:07.000Z</time>
      </trkpt>
      <trkpt lat="45.0658" lon="5.95385">
        <ele>2132</ele>
        <time>2019-08-03T16:27:13.000Z</time>
      </trkpt>
      <trkpt lat="45.06573" lon="5.95383">
        <ele>2130</ele>
        <time>2019-08-03T16:27:20.000Z</time>
      </trkpt>
      <trkpt lat="45.06567" lon="5.95383">
        <ele>2129</ele>
        <time>2019-08-03T16:27:27.000Z</time>
      </trkpt>
      <trkpt lat="45.06561" lon="5.95382">
        <ele>2126</ele>
        <time>2019-08-03T16:27:33.000Z</time>
      </trkpt>
      <trkpt lat="45.06557" lon="5.95385">
        <ele>2126</ele>
        <time>2019-08-03T16:27:36.000Z</time>
      </trkpt>
      <trkpt lat="45.0655" lon="5.95388">
        <ele>2124</ele>
        <time>2019-08-03T16:27:42.000Z</time>
      </trkpt>
      <trkpt lat="45.0654" lon="5.95389">
        <ele>2122</ele>
        <time>2019-08-03T16:27:50.000Z</time>
      </trkpt>
      <trkpt lat="45.06531" lon="5.95393">
        <ele>2122</ele>
        <time>2019-08-03T16:27:58.000Z</time>
      </trkpt>
      <trkpt lat="45.06526" lon="5.95396">
        <ele>2122</ele>
        <time>2019-08-03T16:28:02.000Z</time>
      </trkpt>
      <trkpt lat="45.06521" lon="5.95398">
        <ele>2120</ele>
        <time>2019-08-03T16:28:06.000Z</time>
      </trkpt>
      <trkpt lat="45.06513" lon="5.954">
        <ele>2119</ele>
        <time>2019-08-03T16:28:12.000Z</time>
      </trkpt>
      <trkpt lat="45.06503" lon="5.95401">
        <ele>2118</ele>
        <time>2019-08-03T16:28:19.000Z</time>
      </trkpt>
      <trkpt lat="45.06497" lon="5.95402">
        <ele>2117</ele>
        <time>2019-08-03T16:28:23.000Z</time>
      </trkpt>
      <trkpt lat="45.06488" lon="5.95408">
        <ele>2118</ele>
        <time>2019-08-03T16:28:30.000Z</time>
      </trkpt>
      <trkpt lat="45.06484" lon="5.95413">
        <ele>2118</ele>
        <time>2019-08-03T16:28:34.000Z</time>
      </trkpt>
      <trkpt lat="45.06479" lon="5.95414">
        <ele>2118</ele>
        <time>2019-08-03T16:28:38.000Z</time>
      </trkpt>
      <trkpt lat="45.06472" lon="5.95418">
        <ele>2117</ele>
        <time>2019-08-03T16:28:45.000Z</time>
      </trkpt>
      <trkpt lat="45.06465" lon="5.9542">
        <ele>2118</ele>
        <time>2019-08-03T16:28:51.000Z</time>
      </trkpt>
      <trkpt lat="45.06459" lon="5.95422">
        <ele>2118</ele>
        <time>2019-08-03T16:28:55.000Z</time>
      </trkpt>
      <trkpt lat="45.06454" lon="5.95426">
        <ele>2117</ele>
        <time>2019-08-03T16:29:02.000Z</time>
      </trkpt>
      <trkpt lat="45.06446" lon="5.95429">
        <ele>2117</ele>
        <time>2019-08-03T16:29:31.000Z</time>
      </trkpt>
      <trkpt lat="45.06439" lon="5.95429">
        <ele>2115</ele>
        <time>2019-08-03T16:29:38.000Z</time>
      </trkpt>
      <trkpt lat="45.06433" lon="5.95425">
        <ele>2115</ele>
        <time>2019-08-03T16:29:42.000Z</time>
      </trkpt>
      <trkpt lat="45.06428" lon="5.95421">
        <ele>2114</ele>
        <time>2019-08-03T16:29:46.000Z</time>
      </trkpt>
      <trkpt lat="45.06424" lon="5.95417">
        <ele>2113</ele>
        <time>2019-08-03T16:29:49.000Z</time>
      </trkpt>
      <trkpt lat="45.0642" lon="5.95421">
        <ele>2113</ele>
        <time>2019-08-03T16:29:53.000Z</time>
      </trkpt>
      <trkpt lat="45.06413" lon="5.95428">
        <ele>2112</ele>
        <time>2019-08-03T16:29:59.000Z</time>
      </trkpt>
      <trkpt lat="45.06409" lon="5.95432">
        <ele>2112</ele>
        <time>2019-08-03T16:30:02.000Z</time>
      </trkpt>
      <trkpt lat="45.06401" lon="5.9544">
        <ele>2110</ele>
        <time>2019-08-03T16:30:09.000Z</time>
      </trkpt>
      <trkpt lat="45.06393" lon="5.95448">
        <ele>2110</ele>
        <time>2019-08-03T16:30:16.000Z</time>
      </trkpt>
      <trkpt lat="45.06387" lon="5.9546">
        <ele>2108</ele>
        <time>2019-08-03T16:30:23.000Z</time>
      </trkpt>
      <trkpt lat="45.06382" lon="5.95463">
        <ele>2109</ele>
        <time>2019-08-03T16:30:27.000Z</time>
      </trkpt>
      <trkpt lat="45.06374" lon="5.95462">
        <ele>2108</ele>
        <time>2019-08-03T16:30:33.000Z</time>
      </trkpt>
      <trkpt lat="45.06371" lon="5.95458">
        <ele>2108</ele>
        <time>2019-08-03T16:30:36.000Z</time>
      </trkpt>
      <trkpt lat="45.06366" lon="5.95455">
        <ele>2108</ele>
        <time>2019-08-03T16:30:39.000Z</time>
      </trkpt>
      <trkpt lat="45.0636" lon="5.95454">
        <ele>2108</ele>
        <time>2019-08-03T16:30:43.000Z</time>
      </trkpt>
      <trkpt lat="45.06353" lon="5.95455">
        <ele>2107</ele>
        <time>2019-08-03T16:30:51.000Z</time>
      </trkpt>
      <trkpt lat="45.06347" lon="5.95447">
        <ele>2106</ele>
        <time>2019-08-03T16:30:58.000Z</time>
      </trkpt>
      <trkpt lat="45.0634" lon="5.9545">
        <ele>2106</ele>
        <time>2019-08-03T16:31:04.000Z</time>
      </trkpt>
      <trkpt lat="45.06337" lon="5.95459">
        <ele>2104</ele>
        <time>2019-08-03T16:31:10.000Z</time>
      </trkpt>
      <trkpt lat="45.06343" lon="5.95463">
        <ele>2105</ele>
        <time>2019-08-03T16:31:17.000Z</time>
      </trkpt>
      <trkpt lat="45.06348" lon="5.95464">
        <ele>2106</ele>
        <time>2019-08-03T16:31:24.000Z</time>
      </trkpt>
      <trkpt lat="45.0634" lon="5.95463">
        <ele>2105</ele>
        <time>2019-08-03T16:34:40.000Z</time>
      </trkpt>
      <trkpt lat="45.06336" lon="5.95466">
        <ele>2103</ele>
        <time>2019-08-03T16:34:47.000Z</time>
      </trkpt>
      <trkpt lat="45.06334" lon="5.95459">
        <ele>2103</ele>
        <time>2019-08-03T16:34:53.000Z</time>
      </trkpt>
      <trkpt lat="45.06332" lon="5.9545">
        <ele>2104</ele>
        <time>2019-08-03T16:34:59.000Z</time>
      </trkpt>
      <trkpt lat="45.06327" lon="5.9544">
        <ele>2102</ele>
        <time>2019-08-03T16:35:07.000Z</time>
      </trkpt>
      <trkpt lat="45.06325" lon="5.95434">
        <ele>2102</ele>
        <time>2019-08-03T16:35:11.000Z</time>
      </trkpt>
      <trkpt lat="45.0632" lon="5.95425">
        <ele>2102</ele>
        <time>2019-08-03T16:35:22.000Z</time>
      </trkpt>
      <trkpt lat="45.06316" lon="5.95418">
        <ele>2102</ele>
        <time>2019-08-03T16:35:26.000Z</time>
      </trkpt>
      <trkpt lat="45.06312" lon="5.95413">
        <ele>2102</ele>
        <time>2019-08-03T16:35:30.000Z</time>
      </trkpt>
      <trkpt lat="45.06306" lon="5.95407">
        <ele>2100</ele>
        <time>2019-08-03T16:35:36.000Z</time>
      </trkpt>
      <trkpt lat="45.06301" lon="5.954">
        <ele>2099</ele>
        <time>2019-08-03T16:35:43.000Z</time>
      </trkpt>
      <trkpt lat="45.06305" lon="5.95396">
        <ele>2095</ele>
        <time>2019-08-03T16:36:45.000Z</time>
      </trkpt>
      <trkpt lat="45.0631" lon="5.95396">
        <ele>2095</ele>
        <time>2019-08-03T16:36:49.000Z</time>
      </trkpt>
      <trkpt lat="45.06315" lon="5.95394">
        <ele>2095</ele>
        <time>2019-08-03T16:36:56.000Z</time>
      </trkpt>
      <trkpt lat="45.06318" lon="5.95389">
        <ele>2094</ele>
        <time>2019-08-03T16:37:00.000Z</time>
      </trkpt>
      <trkpt lat="45.06324" lon="5.95381">
        <ele>2093</ele>
        <time>2019-08-03T16:37:07.000Z</time>
      </trkpt>
      <trkpt lat="45.06329" lon="5.95379">
        <ele>2093</ele>
        <time>2019-08-03T16:37:10.000Z</time>
      </trkpt>
      <trkpt lat="45.06334" lon="5.95377">
        <ele>2092</ele>
        <time>2019-08-03T16:37:14.000Z</time>
      </trkpt>
      <trkpt lat="45.06343" lon="5.9537">
        <ele>2091</ele>
        <time>2019-08-03T16:37:21.000Z</time>
      </trkpt>
      <trkpt lat="45.06348" lon="5.95365">
        <ele>2091</ele>
        <time>2019-08-03T16:37:25.000Z</time>
      </trkpt>
      <trkpt lat="45.06354" lon="5.95359">
        <ele>2091</ele>
        <time>2019-08-03T16:37:31.000Z</time>
      </trkpt>
      <trkpt lat="45.0636" lon="5.95355">
        <ele>2091</ele>
        <time>2019-08-03T16:37:35.000Z</time>
      </trkpt>
      <trkpt lat="45.06364" lon="5.95352">
        <ele>2091</ele>
        <time>2019-08-03T16:37:38.000Z</time>
      </trkpt>
      <trkpt lat="45.06369" lon="5.95346">
        <ele>2091</ele>
        <time>2019-08-03T16:37:42.000Z</time>
      </trkpt>
      <trkpt lat="45.06374" lon="5.95343">
        <ele>2090</ele>
        <time>2019-08-03T16:37:45.000Z</time>
      </trkpt>
      <trkpt lat="45.06378" lon="5.95341">
        <ele>2089</ele>
        <time>2019-08-03T16:37:48.000Z</time>
      </trkpt>
      <trkpt lat="45.06383" lon="5.9534">
        <ele>2089</ele>
        <time>2019-08-03T16:37:52.000Z</time>
      </trkpt>
      <trkpt lat="45.06388" lon="5.9534">
        <ele>2088</ele>
        <time>2019-08-03T16:37:56.000Z</time>
      </trkpt>
      <trkpt lat="45.06393" lon="5.95341">
        <ele>2087</ele>
        <time>2019-08-03T16:38:00.000Z</time>
      </trkpt>
      <trkpt lat="45.06398" lon="5.95342">
        <ele>2085</ele>
        <time>2019-08-03T16:38:04.000Z</time>
      </trkpt>
      <trkpt lat="45.06402" lon="5.95339">
        <ele>2085</ele>
        <time>2019-08-03T16:38:08.000Z</time>
      </trkpt>
      <trkpt lat="45.06403" lon="5.95331">
        <ele>2085</ele>
        <time>2019-08-03T16:38:12.000Z</time>
      </trkpt>
      <trkpt lat="45.06401" lon="5.95323">
        <ele>2084</ele>
        <time>2019-08-03T16:38:19.000Z</time>
      </trkpt>
      <trkpt lat="45.06396" lon="5.95321">
        <ele>2084</ele>
        <time>2019-08-03T16:38:25.000Z</time>
      </trkpt>
      <trkpt lat="45.0639" lon="5.95317">
        <ele>2085</ele>
        <time>2019-08-03T16:38:32.000Z</time>
      </trkpt>
      <trkpt lat="45.06381" lon="5.95313">
        <ele>2085</ele>
        <time>2019-08-03T16:38:39.000Z</time>
      </trkpt>
      <trkpt lat="45.06372" lon="5.95307">
        <ele>2087</ele>
        <time>2019-08-03T16:38:46.000Z</time>
      </trkpt>
      <trkpt lat="45.06368" lon="5.95303">
        <ele>2087</ele>
        <time>2019-08-03T16:38:53.000Z</time>
      </trkpt>
      <trkpt lat="45.06362" lon="5.95294">
        <ele>2087</ele>
        <time>2019-08-03T16:39:22.000Z</time>
      </trkpt>
      <trkpt lat="45.06354" lon="5.95289">
        <ele>2087</ele>
        <time>2019-08-03T16:39:28.000Z</time>
      </trkpt>
      <trkpt lat="45.06351" lon="5.95284">
        <ele>2087</ele>
        <time>2019-08-03T16:39:32.000Z</time>
      </trkpt>
      <trkpt lat="45.06349" lon="5.95278">
        <ele>2086</ele>
        <time>2019-08-03T16:39:35.000Z</time>
      </trkpt>
      <trkpt lat="45.06347" lon="5.95271">
        <ele>2086</ele>
        <time>2019-08-03T16:39:39.000Z</time>
      </trkpt>
      <trkpt lat="45.06343" lon="5.95263">
        <ele>2087</ele>
        <time>2019-08-03T16:39:45.000Z</time>
      </trkpt>
      <trkpt lat="45.0634" lon="5.95252">
        <ele>2087</ele>
        <time>2019-08-03T16:39:51.000Z</time>
      </trkpt>
      <trkpt lat="45.06339" lon="5.95245">
        <ele>2088</ele>
        <time>2019-08-03T16:39:55.000Z</time>
      </trkpt>
      <trkpt lat="45.06335" lon="5.95232">
        <ele>2089</ele>
        <time>2019-08-03T16:40:02.000Z</time>
      </trkpt>
      <trkpt lat="45.06334" lon="5.95219">
        <ele>2089</ele>
        <time>2019-08-03T16:40:09.000Z</time>
      </trkpt>
      <trkpt lat="45.06336" lon="5.95205">
        <ele>2089</ele>
        <time>2019-08-03T16:40:16.000Z</time>
      </trkpt>
      <trkpt lat="45.06339" lon="5.95196">
        <ele>2089</ele>
        <time>2019-08-03T16:40:22.000Z</time>
      </trkpt>
      <trkpt lat="45.06339" lon="5.9519">
        <ele>2089</ele>
        <time>2019-08-03T16:40:25.000Z</time>
      </trkpt>
      <trkpt lat="45.0634" lon="5.95181">
        <ele>2089</ele>
        <time>2019-08-03T16:40:28.000Z</time>
      </trkpt>
      <trkpt lat="45.06339" lon="5.95174">
        <ele>2089</ele>
        <time>2019-08-03T16:40:32.000Z</time>
      </trkpt>
      <trkpt lat="45.06337" lon="5.95166">
        <ele>2089</ele>
        <time>2019-08-03T16:40:36.000Z</time>
      </trkpt>
      <trkpt lat="45.06332" lon="5.95157">
        <ele>2091</ele>
        <time>2019-08-03T16:40:44.000Z</time>
      </trkpt>
      <trkpt lat="45.06332" lon="5.95146">
        <ele>2095</ele>
        <time>2019-08-03T16:40:52.000Z</time>
      </trkpt>
      <trkpt lat="45.06331" lon="5.9514">
        <ele>2096</ele>
        <time>2019-08-03T16:40:58.000Z</time>
      </trkpt>
      <trkpt lat="45.06325" lon="5.95132">
        <ele>2096</ele>
        <time>2019-08-03T16:41:08.000Z</time>
      </trkpt>
      <trkpt lat="45.06318" lon="5.95128">
        <ele>2096</ele>
        <time>2019-08-03T16:41:15.000Z</time>
      </trkpt>
      <trkpt lat="45.06313" lon="5.95124">
        <ele>2097</ele>
        <time>2019-08-03T16:41:19.000Z</time>
      </trkpt>
      <trkpt lat="45.06305" lon="5.95114">
        <ele>2098</ele>
        <time>2019-08-03T16:41:26.000Z</time>
      </trkpt>
      <trkpt lat="45.06299" lon="5.95105">
        <ele>2098</ele>
        <time>2019-08-03T16:41:33.000Z</time>
      </trkpt>
      <trkpt lat="45.06295" lon="5.95098">
        <ele>2099</ele>
        <time>2019-08-03T16:41:39.000Z</time>
      </trkpt>
      <trkpt lat="45.06291" lon="5.95088">
        <ele>2099</ele>
        <time>2019-08-03T16:41:46.000Z</time>
      </trkpt>
      <trkpt lat="45.06287" lon="5.95082">
        <ele>2100</ele>
        <time>2019-08-03T16:41:52.000Z</time>
      </trkpt>
      <trkpt lat="45.06284" lon="5.95076">
        <ele>2100</ele>
        <time>2019-08-03T16:42:02.000Z</time>
      </trkpt>
      <trkpt lat="45.06282" lon="5.95066">
        <ele>2101</ele>
        <time>2019-08-03T16:42:09.000Z</time>
      </trkpt>
      <trkpt lat="45.0628" lon="5.95059">
        <ele>2102</ele>
        <time>2019-08-03T16:42:15.000Z</time>
      </trkpt>
      <trkpt lat="45.06277" lon="5.95048">
        <ele>2103</ele>
        <time>2019-08-03T16:43:18.000Z</time>
      </trkpt>
      <trkpt lat="45.06275" lon="5.95041">
        <ele>2103</ele>
        <time>2019-08-03T16:43:22.000Z</time>
      </trkpt>
      <trkpt lat="45.06273" lon="5.95029">
        <ele>2104</ele>
        <time>2019-08-03T16:43:28.000Z</time>
      </trkpt>
      <trkpt lat="45.0627" lon="5.95021">
        <ele>2105</ele>
        <time>2019-08-03T16:43:32.000Z</time>
      </trkpt>
      <trkpt lat="45.06267" lon="5.95008">
        <ele>2105</ele>
        <time>2019-08-03T16:43:39.000Z</time>
      </trkpt>
      <trkpt lat="45.06264" lon="5.95003">
        <ele>2106</ele>
        <time>2019-08-03T16:43:42.000Z</time>
      </trkpt>
      <trkpt lat="45.06261" lon="5.94997">
        <ele>2105</ele>
        <time>2019-08-03T16:43:46.000Z</time>
      </trkpt>
      <trkpt lat="45.0626" lon="5.94988">
        <ele>2106</ele>
        <time>2019-08-03T16:43:50.000Z</time>
      </trkpt>
      <trkpt lat="45.06258" lon="5.94977">
        <ele>2107</ele>
        <time>2019-08-03T16:43:56.000Z</time>
      </trkpt>
      <trkpt lat="45.06256" lon="5.94969">
        <ele>2108</ele>
        <time>2019-08-03T16:44:00.000Z</time>
      </trkpt>
      <trkpt lat="45.06251" lon="5.9496">
        <ele>2108</ele>
        <time>2019-08-03T16:44:06.000Z</time>
      </trkpt>
      <trkpt lat="45.06246" lon="5.94951">
        <ele>2107</ele>
        <time>2019-08-03T16:44:12.000Z</time>
      </trkpt>
      <trkpt lat="45.06243" lon="5.94944">
        <ele>2107</ele>
        <time>2019-08-03T16:44:16.000Z</time>
      </trkpt>
      <trkpt lat="45.06242" lon="5.94937">
        <ele>2108</ele>
        <time>2019-08-03T16:44:19.000Z</time>
      </trkpt>
      <trkpt lat="45.06242" lon="5.94926">
        <ele>2108</ele>
        <time>2019-08-03T16:44:26.000Z</time>
      </trkpt>
      <trkpt lat="45.06243" lon="5.94917">
        <ele>2108</ele>
        <time>2019-08-03T16:44:40.000Z</time>
      </trkpt>
      <trkpt lat="45.06244" lon="5.9491">
        <ele>2108</ele>
        <time>2019-08-03T16:44:44.000Z</time>
      </trkpt>
      <trkpt lat="45.06246" lon="5.949">
        <ele>2106</ele>
        <time>2019-08-03T16:44:50.000Z</time>
      </trkpt>
      <trkpt lat="45.06247" lon="5.9489">
        <ele>2106</ele>
        <time>2019-08-03T16:44:57.000Z</time>
      </trkpt>
      <trkpt lat="45.0625" lon="5.94884">
        <ele>2105</ele>
        <time>2019-08-03T16:45:01.000Z</time>
      </trkpt>
      <trkpt lat="45.06251" lon="5.9487">
        <ele>2104</ele>
        <time>2019-08-03T16:45:08.000Z</time>
      </trkpt>
      <trkpt lat="45.06248" lon="5.94864">
        <ele>2103</ele>
        <time>2019-08-03T16:45:12.000Z</time>
      </trkpt>
      <trkpt lat="45.06245" lon="5.94858">
        <ele>2104</ele>
        <time>2019-08-03T16:45:16.000Z</time>
      </trkpt>
      <trkpt lat="45.0624" lon="5.94853">
        <ele>2104</ele>
        <time>2019-08-03T16:45:20.000Z</time>
      </trkpt>
      <trkpt lat="45.06237" lon="5.94846">
        <ele>2104</ele>
        <time>2019-08-03T16:45:24.000Z</time>
      </trkpt>
      <trkpt lat="45.06232" lon="5.94835">
        <ele>2105</ele>
        <time>2019-08-03T16:45:31.000Z</time>
      </trkpt>
      <trkpt lat="45.06229" lon="5.9483">
        <ele>2105</ele>
        <time>2019-08-03T16:45:34.000Z</time>
      </trkpt>
      <trkpt lat="45.06225" lon="5.94824">
        <ele>2105</ele>
        <time>2019-08-03T16:45:38.000Z</time>
      </trkpt>
      <trkpt lat="45.0622" lon="5.94812">
        <ele>2105</ele>
        <time>2019-08-03T16:45:46.000Z</time>
      </trkpt>
      <trkpt lat="45.06216" lon="5.94807">
        <ele>2106</ele>
        <time>2019-08-03T16:45:50.000Z</time>
      </trkpt>
      <trkpt lat="45.06212" lon="5.94801">
        <ele>2105</ele>
        <time>2019-08-03T16:45:54.000Z</time>
      </trkpt>
      <trkpt lat="45.06208" lon="5.94794">
        <ele>2106</ele>
        <time>2019-08-03T16:45:58.000Z</time>
      </trkpt>
      <trkpt lat="45.06205" lon="5.94789">
        <ele>2106</ele>
        <time>2019-08-03T16:46:01.000Z</time>
      </trkpt>
      <trkpt lat="45.062" lon="5.94779">
        <ele>2107</ele>
        <time>2019-08-03T16:46:07.000Z</time>
      </trkpt>
      <trkpt lat="45.06194" lon="5.94767">
        <ele>2106</ele>
        <time>2019-08-03T16:46:14.000Z</time>
      </trkpt>
      <trkpt lat="45.06192" lon="5.94761">
        <ele>2105</ele>
        <time>2019-08-03T16:46:18.000Z</time>
      </trkpt>
      <trkpt lat="45.0619" lon="5.9475">
        <ele>2105</ele>
        <time>2019-08-03T16:46:24.000Z</time>
      </trkpt>
      <trkpt lat="45.06189" lon="5.94742">
        <ele>2105</ele>
        <time>2019-08-03T16:46:28.000Z</time>
      </trkpt>
      <trkpt lat="45.06188" lon="5.94735">
        <ele>2104</ele>
        <time>2019-08-03T16:46:31.000Z</time>
      </trkpt>
      <trkpt lat="45.06187" lon="5.94727">
        <ele>2105</ele>
        <time>2019-08-03T16:46:35.000Z</time>
      </trkpt>
      <trkpt lat="45.06185" lon="5.94721">
        <ele>2105</ele>
        <time>2019-08-03T16:46:39.000Z</time>
      </trkpt>
      <trkpt lat="45.06181" lon="5.94711">
        <ele>2105</ele>
        <time>2019-08-03T16:46:45.000Z</time>
      </trkpt>
      <trkpt lat="45.06176" lon="5.947">
        <ele>2107</ele>
        <time>2019-08-03T16:46:52.000Z</time>
      </trkpt>
      <trkpt lat="45.06174" lon="5.94694">
        <ele>2107</ele>
        <time>2019-08-03T16:46:56.000Z</time>
      </trkpt>
      <trkpt lat="45.06171" lon="5.94682">
        <ele>2109</ele>
        <time>2019-08-03T16:47:04.000Z</time>
      </trkpt>
      <trkpt lat="45.06169" lon="5.94676">
        <ele>2108</ele>
        <time>2019-08-03T16:47:08.000Z</time>
      </trkpt>
      <trkpt lat="45.06163" lon="5.94667">
        <ele>2110</ele>
        <time>2019-08-03T16:47:15.000Z</time>
      </trkpt>
      <trkpt lat="45.06156" lon="5.94659">
        <ele>2110</ele>
        <time>2019-08-03T16:47:21.000Z</time>
      </trkpt>
      <trkpt lat="45.06151" lon="5.94651">
        <ele>2111</ele>
        <time>2019-08-03T16:47:27.000Z</time>
      </trkpt>
      <trkpt lat="45.06145" lon="5.94643">
        <ele>2112</ele>
        <time>2019-08-03T16:47:34.000Z</time>
      </trkpt>
      <trkpt lat="45.06143" lon="5.94638">
        <ele>2113</ele>
        <time>2019-08-03T16:47:38.000Z</time>
      </trkpt>
      <trkpt lat="45.06137" lon="5.9463">
        <ele>2113</ele>
        <time>2019-08-03T16:47:44.000Z</time>
      </trkpt>
      <trkpt lat="45.06132" lon="5.9462">
        <ele>2113</ele>
        <time>2019-08-03T16:47:51.000Z</time>
      </trkpt>
      <trkpt lat="45.06128" lon="5.94609">
        <ele>2112</ele>
        <time>2019-08-03T16:47:57.000Z</time>
      </trkpt>
      <trkpt lat="45.06125" lon="5.94602">
        <ele>2112</ele>
        <time>2019-08-03T16:48:01.000Z</time>
      </trkpt>
      <trkpt lat="45.0612" lon="5.94592">
        <ele>2111</ele>
        <time>2019-08-03T16:48:07.000Z</time>
      </trkpt>
      <trkpt lat="45.06117" lon="5.94586">
        <ele>2111</ele>
        <time>2019-08-03T16:48:11.000Z</time>
      </trkpt>
      <trkpt lat="45.06111" lon="5.94579">
        <ele>2111</ele>
        <time>2019-08-03T16:48:17.000Z</time>
      </trkpt>
      <trkpt lat="45.06107" lon="5.94566">
        <ele>2110</ele>
        <time>2019-08-03T16:48:24.000Z</time>
      </trkpt>
      <trkpt lat="45.06106" lon="5.94552">
        <ele>2109</ele>
        <time>2019-08-03T16:48:31.000Z</time>
      </trkpt>
      <trkpt lat="45.06104" lon="5.94542">
        <ele>2109</ele>
        <time>2019-08-03T16:48:37.000Z</time>
      </trkpt>
      <trkpt lat="45.061" lon="5.94534">
        <ele>2110</ele>
        <time>2019-08-03T16:48:43.000Z</time>
      </trkpt>
      <trkpt lat="45.06097" lon="5.94528">
        <ele>2110</ele>
        <time>2019-08-03T16:48:47.000Z</time>
      </trkpt>
      <trkpt lat="45.0609" lon="5.94521">
        <ele>2109</ele>
        <time>2019-08-03T16:48:54.000Z</time>
      </trkpt>
      <trkpt lat="45.06085" lon="5.94517">
        <ele>2109</ele>
        <time>2019-08-03T16:48:58.000Z</time>
      </trkpt>
      <trkpt lat="45.06081" lon="5.9451">
        <ele>2109</ele>
        <time>2019-08-03T16:49:02.000Z</time>
      </trkpt>
      <trkpt lat="45.06078" lon="5.94503">
        <ele>2108</ele>
        <time>2019-08-03T16:49:06.000Z</time>
      </trkpt>
      <trkpt lat="45.06077" lon="5.94496">
        <ele>2108</ele>
        <time>2019-08-03T16:49:10.000Z</time>
      </trkpt>
      <trkpt lat="45.06076" lon="5.94486">
        <ele>2107</ele>
        <time>2019-08-03T16:49:16.000Z</time>
      </trkpt>
      <trkpt lat="45.06072" lon="5.94477">
        <ele>2107</ele>
        <time>2019-08-03T16:49:23.000Z</time>
      </trkpt>
      <trkpt lat="45.06068" lon="5.94469">
        <ele>2108</ele>
        <time>2019-08-03T16:49:27.000Z</time>
      </trkpt>
      <trkpt lat="45.06065" lon="5.94455">
        <ele>2107</ele>
        <time>2019-08-03T16:49:34.000Z</time>
      </trkpt>
      <trkpt lat="45.06064" lon="5.94448">
        <ele>2106</ele>
        <time>2019-08-03T16:49:37.000Z</time>
      </trkpt>
      <trkpt lat="45.06062" lon="5.9444">
        <ele>2107</ele>
        <time>2019-08-03T16:49:41.000Z</time>
      </trkpt>
      <trkpt lat="45.0606" lon="5.94434">
        <ele>2106</ele>
        <time>2019-08-03T16:49:44.000Z</time>
      </trkpt>
      <trkpt lat="45.06059" lon="5.94427">
        <ele>2106</ele>
        <time>2019-08-03T16:49:47.000Z</time>
      </trkpt>
      <trkpt lat="45.06055" lon="5.94416">
        <ele>2108</ele>
        <time>2019-08-03T16:49:53.000Z</time>
      </trkpt>
      <trkpt lat="45.06051" lon="5.9441">
        <ele>2107</ele>
        <time>2019-08-03T16:49:57.000Z</time>
      </trkpt>
      <trkpt lat="45.06049" lon="5.94397">
        <ele>2108</ele>
        <time>2019-08-03T16:50:04.000Z</time>
      </trkpt>
      <trkpt lat="45.06048" lon="5.9439">
        <ele>2107</ele>
        <time>2019-08-03T16:50:07.000Z</time>
      </trkpt>
      <trkpt lat="45.06049" lon="5.94383">
        <ele>2107</ele>
        <time>2019-08-03T16:50:11.000Z</time>
      </trkpt>
      <trkpt lat="45.06044" lon="5.9437">
        <ele>2109</ele>
        <time>2019-08-03T16:50:18.000Z</time>
      </trkpt>
      <trkpt lat="45.0604" lon="5.94359">
        <ele>2110</ele>
        <time>2019-08-03T16:50:25.000Z</time>
      </trkpt>
      <trkpt lat="45.06034" lon="5.94352">
        <ele>2110</ele>
        <time>2019-08-03T16:50:32.000Z</time>
      </trkpt>
      <trkpt lat="45.06032" lon="5.94345">
        <ele>2110</ele>
        <time>2019-08-03T16:50:36.000Z</time>
      </trkpt>
      <trkpt lat="45.06031" lon="5.94339">
        <ele>2110</ele>
        <time>2019-08-03T16:50:39.000Z</time>
      </trkpt>
      <trkpt lat="45.0603" lon="5.94333">
        <ele>2110</ele>
        <time>2019-08-03T16:50:42.000Z</time>
      </trkpt>
      <trkpt lat="45.06029" lon="5.94326">
        <ele>2110</ele>
        <time>2019-08-03T16:50:46.000Z</time>
      </trkpt>
      <trkpt lat="45.0603" lon="5.94318">
        <ele>2110</ele>
        <time>2019-08-03T16:50:50.000Z</time>
      </trkpt>
      <trkpt lat="45.06031" lon="5.94311">
        <ele>2111</ele>
        <time>2019-08-03T16:50:54.000Z</time>
      </trkpt>
      <trkpt lat="45.06031" lon="5.94303">
        <ele>2111</ele>
        <time>2019-08-03T16:50:58.000Z</time>
      </trkpt>
      <trkpt lat="45.06031" lon="5.94293">
        <ele>2111</ele>
        <time>2019-08-03T16:51:04.000Z</time>
      </trkpt>
      <trkpt lat="45.0603" lon="5.94282">
        <ele>2112</ele>
        <time>2019-08-03T16:51:11.000Z</time>
      </trkpt>
      <trkpt lat="45.06028" lon="5.94274">
        <ele>2113</ele>
        <time>2019-08-03T16:51:18.000Z</time>
      </trkpt>
      <trkpt lat="45.06024" lon="5.94267">
        <ele>2114</ele>
        <time>2019-08-03T16:51:22.000Z</time>
      </trkpt>
      <trkpt lat="45.06018" lon="5.94259">
        <ele>2113</ele>
        <time>2019-08-03T16:51:29.000Z</time>
      </trkpt>
      <trkpt lat="45.06014" lon="5.94249">
        <ele>2113</ele>
        <time>2019-08-03T16:51:36.000Z</time>
      </trkpt>
      <trkpt lat="45.06009" lon="5.94237">
        <ele>2111</ele>
        <time>2019-08-03T16:51:43.000Z</time>
      </trkpt>
      <trkpt lat="45.06007" lon="5.94227">
        <ele>2113</ele>
        <time>2019-08-03T16:51:49.000Z</time>
      </trkpt>
      <trkpt lat="45.06004" lon="5.9422">
        <ele>2113</ele>
        <time>2019-08-03T16:51:53.000Z</time>
      </trkpt>
      <trkpt lat="45.06001" lon="5.94209">
        <ele>2114</ele>
        <time>2019-08-03T16:52:00.000Z</time>
      </trkpt>
      <trkpt lat="45.06" lon="5.94199">
        <ele>2116</ele>
        <time>2019-08-03T16:52:08.000Z</time>
      </trkpt>
      <trkpt lat="45.05996" lon="5.94187">
        <ele>2116</ele>
        <time>2019-08-03T16:52:15.000Z</time>
      </trkpt>
      <trkpt lat="45.0599" lon="5.94178">
        <ele>2116</ele>
        <time>2019-08-03T16:52:21.000Z</time>
      </trkpt>
      <trkpt lat="45.05986" lon="5.94165">
        <ele>2116</ele>
        <time>2019-08-03T16:52:28.000Z</time>
      </trkpt>
      <trkpt lat="45.05985" lon="5.94157">
        <ele>2117</ele>
        <time>2019-08-03T16:52:32.000Z</time>
      </trkpt>
      <trkpt lat="45.05983" lon="5.9415">
        <ele>2118</ele>
        <time>2019-08-03T16:52:36.000Z</time>
      </trkpt>
      <trkpt lat="45.05978" lon="5.94141">
        <ele>2119</ele>
        <time>2019-08-03T16:52:43.000Z</time>
      </trkpt>
      <trkpt lat="45.05972" lon="5.9414">
        <ele>2119</ele>
        <time>2019-08-03T16:52:55.000Z</time>
      </trkpt>
      <trkpt lat="45.05963" lon="5.94141">
        <ele>2119</ele>
        <time>2019-08-03T16:54:17.000Z</time>
      </trkpt>
      <trkpt lat="45.05958" lon="5.94148">
        <ele>2118</ele>
        <time>2019-08-03T16:54:25.000Z</time>
      </trkpt>
      <trkpt lat="45.05951" lon="5.94149">
        <ele>2116</ele>
        <time>2019-08-03T16:54:32.000Z</time>
      </trkpt>
      <trkpt lat="45.05945" lon="5.94153">
        <ele>2116</ele>
        <time>2019-08-03T16:54:39.000Z</time>
      </trkpt>
      <trkpt lat="45.05946" lon="5.94165">
        <ele>2115</ele>
        <time>2019-08-03T16:54:45.000Z</time>
      </trkpt>
      <trkpt lat="45.05945" lon="5.94174">
        <ele>2113</ele>
        <time>2019-08-03T16:54:52.000Z</time>
      </trkpt>
      <trkpt lat="45.0594" lon="5.94173">
        <ele>2110</ele>
        <time>2019-08-03T16:54:56.000Z</time>
      </trkpt>
      <trkpt lat="45.05932" lon="5.94167">
        <ele>2108</ele>
        <time>2019-08-03T16:55:04.000Z</time>
      </trkpt>
      <trkpt lat="45.05927" lon="5.94165">
        <ele>2106</ele>
        <time>2019-08-03T16:55:08.000Z</time>
      </trkpt>
      <trkpt lat="45.05925" lon="5.94171">
        <ele>2104</ele>
        <time>2019-08-03T16:55:16.000Z</time>
      </trkpt>
      <trkpt lat="45.05917" lon="5.94172">
        <ele>2101</ele>
        <time>2019-08-03T16:55:25.000Z</time>
      </trkpt>
      <trkpt lat="45.05912" lon="5.94178">
        <ele>2102</ele>
        <time>2019-08-03T16:55:32.000Z</time>
      </trkpt>
      <trkpt lat="45.0591" lon="5.94184">
        <ele>2099</ele>
        <time>2019-08-03T16:55:39.000Z</time>
      </trkpt>
      <trkpt lat="45.05903" lon="5.94179">
        <ele>2097</ele>
        <time>2019-08-03T16:55:46.000Z</time>
      </trkpt>
      <trkpt lat="45.05899" lon="5.94182">
        <ele>2096</ele>
        <time>2019-08-03T16:55:53.000Z</time>
      </trkpt>
      <trkpt lat="45.05896" lon="5.94188">
        <ele>2093</ele>
        <time>2019-08-03T16:56:00.000Z</time>
      </trkpt>
      <trkpt lat="45.05892" lon="5.94185">
        <ele>2092</ele>
        <time>2019-08-03T16:56:04.000Z</time>
      </trkpt>
      <trkpt lat="45.05885" lon="5.94182">
        <ele>2090</ele>
        <time>2019-08-03T16:56:11.000Z</time>
      </trkpt>
      <trkpt lat="45.05881" lon="5.9419">
        <ele>2086</ele>
        <time>2019-08-03T16:56:18.000Z</time>
      </trkpt>
      <trkpt lat="45.05877" lon="5.94195">
        <ele>2084</ele>
        <time>2019-08-03T16:56:26.000Z</time>
      </trkpt>
      <trkpt lat="45.05873" lon="5.942">
        <ele>2082</ele>
        <time>2019-08-03T16:56:32.000Z</time>
      </trkpt>
      <trkpt lat="45.05866" lon="5.94201">
        <ele>2082</ele>
        <time>2019-08-03T16:56:38.000Z</time>
      </trkpt>
      <trkpt lat="45.05862" lon="5.94212">
        <ele>2079</ele>
        <time>2019-08-03T16:56:46.000Z</time>
      </trkpt>
      <trkpt lat="45.05858" lon="5.9422">
        <ele>2075</ele>
        <time>2019-08-03T16:56:54.000Z</time>
      </trkpt>
      <trkpt lat="45.05849" lon="5.9422">
        <ele>2074</ele>
        <time>2019-08-03T16:57:02.000Z</time>
      </trkpt>
      <trkpt lat="45.05844" lon="5.94219">
        <ele>2072</ele>
        <time>2019-08-03T16:57:06.000Z</time>
      </trkpt>
      <trkpt lat="45.05836" lon="5.94218">
        <ele>2071</ele>
        <time>2019-08-03T16:57:13.000Z</time>
      </trkpt>
      <trkpt lat="45.05827" lon="5.94216">
        <ele>2069</ele>
        <time>2019-08-03T16:57:19.000Z</time>
      </trkpt>
      <trkpt lat="45.05823" lon="5.94214">
        <ele>2067</ele>
        <time>2019-08-03T16:57:23.000Z</time>
      </trkpt>
      <trkpt lat="45.05818" lon="5.94211">
        <ele>2065</ele>
        <time>2019-08-03T16:57:33.000Z</time>
      </trkpt>
      <trkpt lat="45.05812" lon="5.9421">
        <ele>2063</ele>
        <time>2019-08-03T16:57:44.000Z</time>
      </trkpt>
      <trkpt lat="45.05803" lon="5.94209">
        <ele>2061</ele>
        <time>2019-08-03T16:57:50.000Z</time>
      </trkpt>
      <trkpt lat="45.05795" lon="5.94206">
        <ele>2060</ele>
        <time>2019-08-03T16:57:56.000Z</time>
      </trkpt>
      <trkpt lat="45.05791" lon="5.94204">
        <ele>2059</ele>
        <time>2019-08-03T16:58:00.000Z</time>
      </trkpt>
      <trkpt lat="45.05787" lon="5.94198">
        <ele>2059</ele>
        <time>2019-08-03T16:58:04.000Z</time>
      </trkpt>
      <trkpt lat="45.05781" lon="5.94196">
        <ele>2059</ele>
        <time>2019-08-03T16:58:08.000Z</time>
      </trkpt>
      <trkpt lat="45.05776" lon="5.94193">
        <ele>2057</ele>
        <time>2019-08-03T16:58:12.000Z</time>
      </trkpt>
      <trkpt lat="45.05769" lon="5.94189">
        <ele>2056</ele>
        <time>2019-08-03T16:58:16.000Z</time>
      </trkpt>
      <trkpt lat="45.05762" lon="5.94183">
        <ele>2055</ele>
        <time>2019-08-03T16:58:23.000Z</time>
      </trkpt>
      <trkpt lat="45.05761" lon="5.94176">
        <ele>2053</ele>
        <time>2019-08-03T16:59:18.000Z</time>
      </trkpt>
      <trkpt lat="45.05758" lon="5.94171">
        <ele>2054</ele>
        <time>2019-08-03T16:59:43.000Z</time>
      </trkpt>
      <trkpt lat="45.05755" lon="5.94165">
        <ele>2055</ele>
        <time>2019-08-03T16:59:50.000Z</time>
      </trkpt>
      <trkpt lat="45.05752" lon="5.94159">
        <ele>2057</ele>
        <time>2019-08-03T16:59:58.000Z</time>
      </trkpt>
      <trkpt lat="45.05747" lon="5.94157">
        <ele>2059</ele>
        <time>2019-08-03T17:01:45.000Z</time>
      </trkpt>
      <trkpt lat="45.05743" lon="5.94154">
        <ele>2059</ele>
        <time>2019-08-03T17:02:01.000Z</time>
      </trkpt>
      <trkpt lat="45.05738" lon="5.94147">
        <ele>2058</ele>
        <time>2019-08-03T17:03:00.000Z</time>
      </trkpt>
      <trkpt lat="45.05732" lon="5.9414">
        <ele>2059</ele>
        <time>2019-08-03T17:03:06.000Z</time>
      </trkpt>
      <trkpt lat="45.05729" lon="5.94135">
        <ele>2060</ele>
        <time>2019-08-03T17:03:09.000Z</time>
      </trkpt>
      <trkpt lat="45.05725" lon="5.9413">
        <ele>2060</ele>
        <time>2019-08-03T17:03:16.000Z</time>
      </trkpt>
      <trkpt lat="45.05721" lon="5.94124">
        <ele>2064</ele>
        <time>2019-08-03T17:03:28.000Z</time>
      </trkpt>
      <trkpt lat="45.05716" lon="5.94122">
        <ele>2066</ele>
        <time>2019-08-03T17:03:41.000Z</time>
      </trkpt>
      <trkpt lat="45.05712" lon="5.94118">
        <ele>2066</ele>
        <time>2019-08-03T17:04:14.000Z</time>
      </trkpt>
      <trkpt lat="45.05707" lon="5.94114">
        <ele>2067</ele>
        <time>2019-08-03T17:04:21.000Z</time>
      </trkpt>
      <trkpt lat="45.05702" lon="5.94107">
        <ele>2067</ele>
        <time>2019-08-03T17:04:49.000Z</time>
      </trkpt>
      <trkpt lat="45.05696" lon="5.94105">
        <ele>2068</ele>
        <time>2019-08-03T17:04:55.000Z</time>
      </trkpt>
      <trkpt lat="45.0569" lon="5.94103">
        <ele>2068</ele>
        <time>2019-08-03T17:05:01.000Z</time>
      </trkpt>
      <trkpt lat="45.05693" lon="5.94091">
        <ele>2066</ele>
        <time>2019-08-03T17:06:50.000Z</time>
      </trkpt>
      <trkpt lat="45.05692" lon="5.94079">
        <ele>2067</ele>
        <time>2019-08-03T17:06:57.000Z</time>
      </trkpt>
      <trkpt lat="45.05687" lon="5.94074">
        <ele>2069</ele>
        <time>2019-08-03T17:07:05.000Z</time>
      </trkpt>
      <trkpt lat="45.05683" lon="5.94072">
        <ele>2069</ele>
        <time>2019-08-03T17:07:52.000Z</time>
      </trkpt>
      <trkpt lat="45.05677" lon="5.94072">
        <ele>2069</ele>
        <time>2019-08-03T17:07:59.000Z</time>
      </trkpt>
      <trkpt lat="45.05671" lon="5.94073">
        <ele>2069</ele>
        <time>2019-08-03T17:08:05.000Z</time>
      </trkpt>
      <trkpt lat="45.05667" lon="5.94076">
        <ele>2068</ele>
        <time>2019-08-03T17:09:03.000Z</time>
      </trkpt>
      <trkpt lat="45.05662" lon="5.94067">
        <ele>2068</ele>
        <time>2019-08-03T17:09:45.000Z</time>
      </trkpt>
      <trkpt lat="45.05659" lon="5.94062">
        <ele>2068</ele>
        <time>2019-08-03T17:09:49.000Z</time>
      </trkpt>
      <trkpt lat="45.05656" lon="5.94057">
        <ele>2070</ele>
        <time>2019-08-03T17:09:53.000Z</time>
      </trkpt>
      <trkpt lat="45.05654" lon="5.94046">
        <ele>2069</ele>
        <time>2019-08-03T17:09:59.000Z</time>
      </trkpt>
      <trkpt lat="45.05653" lon="5.9404">
        <ele>2069</ele>
        <time>2019-08-03T17:10:02.000Z</time>
      </trkpt>
      <trkpt lat="45.05654" lon="5.94032">
        <ele>2069</ele>
        <time>2019-08-03T17:10:06.000Z</time>
      </trkpt>
      <trkpt lat="45.05652" lon="5.94026">
        <ele>2069</ele>
        <time>2019-08-03T17:10:10.000Z</time>
      </trkpt>
      <trkpt lat="45.0565" lon="5.9402">
        <ele>2069</ele>
        <time>2019-08-03T17:10:14.000Z</time>
      </trkpt>
      <trkpt lat="45.05647" lon="5.94013">
        <ele>2069</ele>
        <time>2019-08-03T17:10:18.000Z</time>
      </trkpt>
      <trkpt lat="45.05644" lon="5.94002">
        <ele>2069</ele>
        <time>2019-08-03T17:10:25.000Z</time>
      </trkpt>
      <trkpt lat="45.05642" lon="5.93995">
        <ele>2070</ele>
        <time>2019-08-03T17:10:29.000Z</time>
      </trkpt>
      <trkpt lat="45.05639" lon="5.9399">
        <ele>2070</ele>
        <time>2019-08-03T17:10:32.000Z</time>
      </trkpt>
      <trkpt lat="45.05634" lon="5.93978">
        <ele>2068</ele>
        <time>2019-08-03T17:10:39.000Z</time>
      </trkpt>
      <trkpt lat="45.05631" lon="5.93971">
        <ele>2069</ele>
        <time>2019-08-03T17:10:43.000Z</time>
      </trkpt>
      <trkpt lat="45.05628" lon="5.93966">
        <ele>2069</ele>
        <time>2019-08-03T17:10:46.000Z</time>
      </trkpt>
      <trkpt lat="45.05624" lon="5.93963">
        <ele>2070</ele>
        <time>2019-08-03T17:10:50.000Z</time>
      </trkpt>
      <trkpt lat="45.05617" lon="5.93958">
        <ele>2073</ele>
        <time>2019-08-03T17:10:58.000Z</time>
      </trkpt>
      <trkpt lat="45.0561" lon="5.93952">
        <ele>2074</ele>
        <time>2019-08-03T17:11:05.000Z</time>
      </trkpt>
      <trkpt lat="45.05606" lon="5.93944">
        <ele>2074</ele>
        <time>2019-08-03T17:11:16.000Z</time>
      </trkpt>
      <trkpt lat="45.05598" lon="5.93935">
        <ele>2075</ele>
        <time>2019-08-03T17:11:23.000Z</time>
      </trkpt>
      <trkpt lat="45.05592" lon="5.93929">
        <ele>2076</ele>
        <time>2019-08-03T17:11:34.000Z</time>
      </trkpt>
      <trkpt lat="45.05584" lon="5.93922">
        <ele>2078</ele>
        <time>2019-08-03T17:11:41.000Z</time>
      </trkpt>
      <trkpt lat="45.05577" lon="5.93914">
        <ele>2076</ele>
        <time>2019-08-03T17:11:49.000Z</time>
      </trkpt>
      <trkpt lat="45.05572" lon="5.93908">
        <ele>2077</ele>
        <time>2019-08-03T17:11:55.000Z</time>
      </trkpt>
      <trkpt lat="45.05565" lon="5.939">
        <ele>2077</ele>
        <time>2019-08-03T17:12:03.000Z</time>
      </trkpt>
      <trkpt lat="45.05559" lon="5.93893">
        <ele>2077</ele>
        <time>2019-08-03T17:12:10.000Z</time>
      </trkpt>
      <trkpt lat="45.05556" lon="5.93888">
        <ele>2078</ele>
        <time>2019-08-03T17:12:17.000Z</time>
      </trkpt>
      <trkpt lat="45.05552" lon="5.93883">
        <ele>2079</ele>
        <time>2019-08-03T17:12:28.000Z</time>
      </trkpt>
      <trkpt lat="45.05546" lon="5.93874">
        <ele>2078</ele>
        <time>2019-08-03T17:12:34.000Z</time>
      </trkpt>
      <trkpt lat="45.05543" lon="5.93869">
        <ele>2079</ele>
        <time>2019-08-03T17:12:38.000Z</time>
      </trkpt>
      <trkpt lat="45.05539" lon="5.93864">
        <ele>2079</ele>
        <time>2019-08-03T17:12:42.000Z</time>
      </trkpt>
      <trkpt lat="45.05533" lon="5.93857">
        <ele>2081</ele>
        <time>2019-08-03T17:12:50.000Z</time>
      </trkpt>
      <trkpt lat="45.0553" lon="5.93852">
        <ele>2082</ele>
        <time>2019-08-03T17:13:08.000Z</time>
      </trkpt>
      <trkpt lat="45.05525" lon="5.93839">
        <ele>2082</ele>
        <time>2019-08-03T17:13:15.000Z</time>
      </trkpt>
      <trkpt lat="45.05524" lon="5.93831">
        <ele>2082</ele>
        <time>2019-08-03T17:13:19.000Z</time>
      </trkpt>
      <trkpt lat="45.05522" lon="5.93823">
        <ele>2082</ele>
        <time>2019-08-03T17:13:23.000Z</time>
      </trkpt>
      <trkpt lat="45.0552" lon="5.93811">
        <ele>2083</ele>
        <time>2019-08-03T17:13:30.000Z</time>
      </trkpt>
      <trkpt lat="45.05518" lon="5.93804">
        <ele>2083</ele>
        <time>2019-08-03T17:13:34.000Z</time>
      </trkpt>
      <trkpt lat="45.05516" lon="5.9379">
        <ele>2084</ele>
        <time>2019-08-03T17:13:41.000Z</time>
      </trkpt>
      <trkpt lat="45.05512" lon="5.93779">
        <ele>2083</ele>
        <time>2019-08-03T17:13:48.000Z</time>
      </trkpt>
      <trkpt lat="45.05511" lon="5.93771">
        <ele>2083</ele>
        <time>2019-08-03T17:13:52.000Z</time>
      </trkpt>
      <trkpt lat="45.05509" lon="5.93764">
        <ele>2082</ele>
        <time>2019-08-03T17:13:56.000Z</time>
      </trkpt>
      <trkpt lat="45.05508" lon="5.93757">
        <ele>2083</ele>
        <time>2019-08-03T17:14:00.000Z</time>
      </trkpt>
      <trkpt lat="45.05506" lon="5.93751">
        <ele>2084</ele>
        <time>2019-08-03T17:14:03.000Z</time>
      </trkpt>
      <trkpt lat="45.05502" lon="5.93737">
        <ele>2085</ele>
        <time>2019-08-03T17:14:10.000Z</time>
      </trkpt>
      <trkpt lat="45.05501" lon="5.93731">
        <ele>2084</ele>
        <time>2019-08-03T17:14:13.000Z</time>
      </trkpt>
      <trkpt lat="45.05499" lon="5.93724">
        <ele>2085</ele>
        <time>2019-08-03T17:14:17.000Z</time>
      </trkpt>
      <trkpt lat="45.05498" lon="5.93718">
        <ele>2086</ele>
        <time>2019-08-03T17:14:20.000Z</time>
      </trkpt>
      <trkpt lat="45.05496" lon="5.9371">
        <ele>2087</ele>
        <time>2019-08-03T17:14:24.000Z</time>
      </trkpt>
      <trkpt lat="45.05493" lon="5.93699">
        <ele>2087</ele>
        <time>2019-08-03T17:14:30.000Z</time>
      </trkpt>
      <trkpt lat="45.05492" lon="5.93692">
        <ele>2087</ele>
        <time>2019-08-03T17:14:34.000Z</time>
      </trkpt>
      <trkpt lat="45.05488" lon="5.93683">
        <ele>2088</ele>
        <time>2019-08-03T17:14:40.000Z</time>
      </trkpt>
      <trkpt lat="45.05486" lon="5.93674">
        <ele>2088</ele>
        <time>2019-08-03T17:14:47.000Z</time>
      </trkpt>
      <trkpt lat="45.05485" lon="5.93667">
        <ele>2089</ele>
        <time>2019-08-03T17:14:54.000Z</time>
      </trkpt>
      <trkpt lat="45.05483" lon="5.9366">
        <ele>2088</ele>
        <time>2019-08-03T17:15:30.000Z</time>
      </trkpt>
      <trkpt lat="45.05482" lon="5.93652">
        <ele>2088</ele>
        <time>2019-08-03T17:15:34.000Z</time>
      </trkpt>
      <trkpt lat="45.05478" lon="5.93641">
        <ele>2088</ele>
        <time>2019-08-03T17:15:41.000Z</time>
      </trkpt>
      <trkpt lat="45.05473" lon="5.93635">
        <ele>2089</ele>
        <time>2019-08-03T17:15:48.000Z</time>
      </trkpt>
      <trkpt lat="45.0547" lon="5.93629">
        <ele>2091</ele>
        <time>2019-08-03T17:16:01.000Z</time>
      </trkpt>
      <trkpt lat="45.05465" lon="5.93628">
        <ele>2090</ele>
        <time>2019-08-03T17:16:46.000Z</time>
      </trkpt>
      <trkpt lat="45.05459" lon="5.93618">
        <ele>2089</ele>
        <time>2019-08-03T17:16:53.000Z</time>
      </trkpt>
      <trkpt lat="45.05453" lon="5.93614">
        <ele>2089</ele>
        <time>2019-08-03T17:16:57.000Z</time>
      </trkpt>
      <trkpt lat="45.05449" lon="5.93616">
        <ele>2089</ele>
        <time>2019-08-03T17:17:04.000Z</time>
      </trkpt>
      <trkpt lat="45.05446" lon="5.9361">
        <ele>2089</ele>
        <time>2019-08-03T17:17:26.000Z</time>
      </trkpt>
      <trkpt lat="45.05439" lon="5.93604">
        <ele>2089</ele>
        <time>2019-08-03T17:17:33.000Z</time>
      </trkpt>
      <trkpt lat="45.05434" lon="5.936">
        <ele>2090</ele>
        <time>2019-08-03T17:17:37.000Z</time>
      </trkpt>
      <trkpt lat="45.05429" lon="5.93597">
        <ele>2090</ele>
        <time>2019-08-03T17:17:41.000Z</time>
      </trkpt>
      <trkpt lat="45.05421" lon="5.93592">
        <ele>2091</ele>
        <time>2019-08-03T17:17:48.000Z</time>
      </trkpt>
      <trkpt lat="45.05416" lon="5.93589">
        <ele>2091</ele>
        <time>2019-08-03T17:17:52.000Z</time>
      </trkpt>
      <trkpt lat="45.05407" lon="5.93582">
        <ele>2090</ele>
        <time>2019-08-03T17:17:59.000Z</time>
      </trkpt>
      <trkpt lat="45.05401" lon="5.93573">
        <ele>2091</ele>
        <time>2019-08-03T17:18:06.000Z</time>
      </trkpt>
      <trkpt lat="45.05394" lon="5.93568">
        <ele>2092</ele>
        <time>2019-08-03T17:18:13.000Z</time>
      </trkpt>
      <trkpt lat="45.05386" lon="5.93564">
        <ele>2092</ele>
        <time>2019-08-03T17:18:20.000Z</time>
      </trkpt>
      <trkpt lat="45.0538" lon="5.93561">
        <ele>2092</ele>
        <time>2019-08-03T17:18:26.000Z</time>
      </trkpt>
      <trkpt lat="45.05375" lon="5.93564">
        <ele>2092</ele>
        <time>2019-08-03T17:18:33.000Z</time>
      </trkpt>
      <trkpt lat="45.0537" lon="5.93559">
        <ele>2092</ele>
        <time>2019-08-03T17:18:54.000Z</time>
      </trkpt>
      <trkpt lat="45.05369" lon="5.93547">
        <ele>2092</ele>
        <time>2019-08-03T17:19:13.000Z</time>
      </trkpt>
      <trkpt lat="45.0537" lon="5.93537">
        <ele>2091</ele>
        <time>2019-08-03T17:19:20.000Z</time>
      </trkpt>
      <trkpt lat="45.05371" lon="5.93528">
        <ele>2090</ele>
        <time>2019-08-03T17:19:27.000Z</time>
      </trkpt>
      <trkpt lat="45.05367" lon="5.93519">
        <ele>2090</ele>
        <time>2019-08-03T17:19:35.000Z</time>
      </trkpt>
      <trkpt lat="45.05363" lon="5.93514">
        <ele>2091</ele>
        <time>2019-08-03T17:20:03.000Z</time>
      </trkpt>
      <trkpt lat="45.05358" lon="5.93515">
        <ele>2091</ele>
        <time>2019-08-03T17:20:10.000Z</time>
      </trkpt>
      <trkpt lat="45.05352" lon="5.9352">
        <ele>2089</ele>
        <time>2019-08-03T17:20:17.000Z</time>
      </trkpt>
      <trkpt lat="45.05348" lon="5.93526">
        <ele>2089</ele>
        <time>2019-08-03T17:20:30.000Z</time>
      </trkpt>
      <trkpt lat="45.05349" lon="5.93533">
        <ele>2089</ele>
        <time>2019-08-03T17:21:22.000Z</time>
      </trkpt>
    </trkseg>
  </trk>
</gpx>